[[{"header":{"parameterUnit":"m.s-1","parameterCategory":1,"la1":31.0,"la2":29.5877,"lo1":-88.7671,"lo2":-86.6584,"dy":0.0162,"dx":0.0185,"nx":115,"ny":88,"refTime":"2024-09-12T00:00:00:Z","depth":0,"parameterNumber":2,"parameterNumberName":"U-component_of_WINDS"},"data":[0.0,0.0,0.0,0.0,0.0,0.0,0.0,0.0,0.0,0.0,0.0,0.0,0.0,0.0,0.0,0.0,0.0,0.0,0.0,0.0,0.0,0.0,0.0,0.0,0.0,0.0,0.0,0.0,0.0,0.0,0.0,0.0,0.0,0.0,0.0,0.0,0.0,0.0,0.0,0.0,0.0,0.0,0.0,0.0,0.0,0.0,0.0,0.0,0.0,0.0,0.0,0.0,0.0,0.0,0.0,0.0,0.0,0.0,0.0,0.0,0.0,0.0,0.0,0.0,0.0,0.0,0.0,0.0,0.0,0.0,0.0,0.0,0.0,0.0,0.0,0.0,0.0,0.0,0.0,0.0,0.0,0.0,0.0,0.0,0.0,0.0,0.0,0.0,0.0,0.0,0.0,0.0,0.0,0.0,0.0,0.0,0.0,0.0,0.0,0.0,0.0,0.0,0.0,0.0,0.0,0.0,0.0,0.0,0.0,0.0,0.0,0.0,0.0,0.0,0.0,0.0,0.0,0.0,0.0,0.0,0.0,0.0,0.0,0.0,0.0,0.0,0.0,0.0,0.0,0.0,0.0,0.0,0.0,0.0,0.0,0.0,0.0,0.0,0.0,0.0,0.0,0.0,0.0,0.0,0.0,0.0,0.0,0.0,0.0,0.0,0.0,0.0,0.0,0.0,0.0,0.0,0.0,0.0,0.0,0.0,0.0,0.0,0.0,0.0,0.0,0.0,0.0,0.0,0.0,0.0,0.0,0.0,0.0,0.0,0.0,0.0,0.0,0.0,0.0,0.0,0.0,0.0,0.0,0.0,0.0,0.0,0.0,0.0,0.0,0.0,0.0,0.0,0.0,0.0,0.0,0.0,0.0,0.0,0.0,0.0,0.0,0.0,0.0,0.0,0.0,0.0,0.0,0.0,0.0,0.0,0.0,0.0,0.0,0.0,0.0,0.0,0.0,0.0,0.0,0.0,0.0,0.0,0.0,0.0,0.0,0.0,0.0,0.0,0.0,0.0,0.0,0.0,0.0,0.0,0.0,0.0,0.0,0.0,0.0,0.0,0.0,0.0,0.0,0.0,0.0,0.0,0.0,0.0,0.0,0.0,0.0,0.0,0.0,0.0,0.0,0.0,0.0,0.0,0.0,0.0,0.0,0.0,0.0,0.0,0.0,0.0,0.0,0.0,0.0,0.0,0.0,0.0,0.0,0.0,0.0,0.0,0.0,0.0,0.0,0.0,0.0,0.0,0.0,0.0,0.0,0.0,0.0,0.0,0.0,0.0,0.0,0.0,0.0,0.0,0.0,0.0,0.0,0.0,0.0,0.0,0.0,0.0,0.0,0.0,0.0,0.0,0.0,0.0,0.0,0.0,0.0,0.0,0.0,0.0,0.0,0.0,0.0,0.0,0.0,0.0,0.0,0.0,0.0,0.0,0.0,0.0,0.0,0.0,0.0,0.0,0.0,0.0,0.0,0.0,0.0,0.0,0.0,0.0,0.0,0.0,0.0,0.0,0.0,0.0,0.0,0.0,0.0,0.0,0.0,0.0,0.0,0.0,0.0,0.0,0.0,0.0,0.0,0.0,0.0,0.0,0.0,0.0,0.0,0.0,0.0,0.0,0.0,0.0,0.0,0.0,0.0,0.0,0.0,0.0,0.0,0.0,0.0,0.0,0.0,0.0,0.0,0.0,0.0,0.0,0.0,0.0,0.0,0.0,0.0,0.0,0.0,0.0,0.0,0.0,0.0,0.0,0.0,0.0,0.0,0.0,0.0,0.0,0.0,0.0,0.0,0.0,0.0,0.0,0.0,0.0,0.0,0.0,0.0,0.0,0.0,0.0,0.0,0.0,0.0,0.0,0.0,0.0,0.0,0.0,0.0,0.0,0.0,0.0,0.0,0.0,0.0,0.0,0.0,0.0,0.0,0.0,0.0,0.0,0.0,0.0,0.0,0.0,0.0,0.0,0.0,0.0,0.0,0.0,0.0,0.0,0.0,0.0,0.0,0.0,0.0,0.0,0.0,0.0,0.0,0.0,0.0,0.0,0.0,0.0,0.0,0.0,0.0,0.0,0.0,0.0,0.0,0.0,0.0,0.0,0.0,0.0,0.0,0.0,0.0,0.0,0.0,0.0,0.0,0.0,0.0,0.0,0.0,0.0,0.0,0.0,0.0,0.0,0.0,0.0,0.0,0.0,0.0,0.0,0.0,0.0,0.0,0.0,0.0,0.0,0.0,0.0,0.0,0.0,0.0,0.0,0.0,0.0,0.0,0.0,0.0,0.0,0.0,0.0,0.0,0.0,0.0,0.0,0.0,0.0,0.0,0.0,0.0,0.0,0.0,0.0,0.0,0.0,0.0,0.0,0.0,0.0,0.0,0.0,0.0,0.0,0.0,0.0,0.0,0.0,0.0,0.0,0.0,0.0,0.0,0.0,0.0,0.0,0.0,0.0,0.0,0.0,0.0,0.0,0.0,0.0,0.0,0.0,0.0,0.0,0.0,0.0,0.0,0.0,0.0,0.0,0.0,0.0,0.0,0.0,0.0,0.0,0.0,0.0,0.0,0.0,0.0,0.0,0.0,0.0,0.0,0.0,0.0,0.0,0.0,0.0,0.0,0.0,0.0,0.0,0.0,0.0,0.0,0.0,0.0,0.0,0.0,0.0,0.0,0.0,0.0,0.0,0.0,0.0,0.0,0.0,0.0,0.0,0.0,0.0,0.0,0.0,0.0,0.0,0.0,0.0,0.0,0.0,0.0,0.0,0.0,0.0,0.0,0.0,0.0,0.0,0.0,0.0,0.0,0.0,0.0,0.0,0.0,0.0,0.0,0.0,0.0,0.0,0.0,0.0,0.0,0.0,0.0,0.0,0.0,0.0,0.0,0.0,0.0,0.0,0.0,0.0,0.0,0.0,0.0,0.0,0.0,0.0,0.0,0.0,0.0,0.0,0.0,0.0,0.0,0.0,0.0,0.0,0.0,0.0,0.0,0.0,0.0,0.0,0.0,0.0,0.0,0.0,0.0,0.0,0.0,0.0,0.0,0.0,0.0,0.0,0.0,0.0,0.0,0.0,0.0,0.0,0.0,0.0,0.0,0.0,0.0,0.0,0.0,0.0,0.0,0.0,0.0,0.0,0.0,0.0,0.0,0.0,0.0,0.0,0.0,0.0,0.0,0.0,0.0,0.0,0.0,0.0,0.0,0.0,0.0,0.0,0.0,0.0,0.0,0.0,0.0,0.0,0.0,0.0,0.0,0.0,0.0,0.0,0.0,0.0,0.0,0.0,0.0,0.0,0.0,0.0,0.0,0.0,0.0,0.0,0.0,0.0,0.0,0.0,0.0,0.0,0.0,0.0,0.0,0.0,0.0,0.0,0.0,0.0,0.0,0.0,0.0,0.0,0.0,0.0,0.0,0.0,0.0,0.0,0.0,0.0,0.0,0.0,0.0,0.0,0.0,0.0,0.0,0.0,0.0,0.0,0.0,0.0,0.0,0.0,0.0,0.0,0.0,0.0,0.0,0.0,0.0,0.0,0.0,0.0,0.0,0.0,0.0,0.0,0.0,0.0,0.0,0.0,0.0,0.0,0.0,0.0,0.0,0.0,0.0,0.0,0.0,0.0,0.0,0.0,0.0,0.0,0.0,0.0,0.0,0.0,0.0,0.0,0.0,0.0,0.0,0.0,0.0,0.0,0.0,0.0,0.0,0.0,0.0,0.0,0.0,0.0,0.0,0.0,0.0,0.0,0.0,0.0,0.0,0.0,0.0,0.0,0.0,0.0,0.0,0.0,0.0,0.0,0.0,0.0,0.0,0.0,0.0,0.0,0.0,0.0,0.0,0.0,0.0,0.0,0.0,0.0,0.0,0.0,0.0,0.0,0.0,0.0,0.0,0.0,0.0,0.0,0.0,0.0,0.0,0.0,0.0,0.0,0.0,0.0,0.0,0.0,0.0,0.0,0.0,0.0,0.0,0.0,0.0,0.0,0.0,0.0,0.0,0.0,0.0,0.0,0.0,0.0,0.0,0.0,0.0,0.0,0.0,0.0,0.0,0.0,0.0,0.0,0.0,0.0,0.0,0.0,0.0,0.0,0.0,0.0,0.0,0.0,0.0,0.0,0.0,0.0,0.0,0.0,0.0,0.0,0.0,0.0,0.0,0.0,0.0,0.0,0.0,0.0,0.0,0.0,0.0,0.0,0.0,0.0,0.0,0.0,0.0,0.0,0.0,0.0,0.0,0.0,0.0,0.0,0.0,0.0,0.0,0.0,0.0,0.0,-1.5153,0.0,0.0,0.0,0.0,0.0,0.0,0.0,0.0,0.0,0.0,0.0,0.0,0.0,0.0,0.0,0.0,0.0,0.0,0.0,0.0,0.0,0.0,0.0,0.0,0.0,0.0,0.0,0.0,0.0,0.0,0.0,0.0,0.0,0.0,0.0,0.0,0.0,0.0,0.0,0.0,0.0,0.0,0.0,0.0,0.0,0.0,0.0,0.0,0.0,0.0,0.0,0.0,0.0,0.0,0.0,0.0,0.0,0.0,0.0,0.0,0.0,0.0,0.0,0.0,0.0,0.0,0.0,0.0,0.0,0.0,0.0,0.0,0.0,0.0,0.0,0.0,0.0,0.0,0.0,0.0,0.0,0.0,0.0,0.0,0.0,0.0,0.0,0.0,0.0,0.0,0.0,0.0,0.0,0.0,0.0,0.0,0.0,0.0,0.0,0.0,0.0,0.0,0.0,0.0,0.0,0.0,0.0,0.0,0.0,0.0,-1.5872,-1.5642,-1.5574,-1.5425,-1.5194,0.0,0.0,0.0,0.0,0.0,0.0,0.0,0.0,0.0,0.0,0.0,0.0,0.0,0.0,0.0,0.0,0.0,0.0,0.0,0.0,0.0,0.0,0.0,0.0,0.0,0.0,0.0,0.0,0.0,0.0,0.0,0.0,0.0,0.0,0.0,0.0,0.0,0.0,0.0,0.0,0.0,0.0,0.0,0.0,0.0,0.0,0.0,0.0,0.0,0.0,0.0,0.0,0.0,0.0,0.0,0.0,0.0,0.0,0.0,0.0,0.0,0.0,0.0,0.0,0.0,0.0,0.0,0.0,0.0,0.0,0.0,0.0,0.0,0.0,0.0,0.0,0.0,0.0,0.0,0.0,0.0,0.0,0.0,0.0,0.0,0.0,0.0,0.0,0.0,0.0,0.0,0.0,0.0,0.0,0.0,0.0,0.0,0.0,0.0,0.0,0.0,0.0,0.0,0.0,0.0,0.0,0.0,0.0,0.0,0.0,0.0,0.0,-1.594,-1.5805,-1.5506,0.0,0.0,0.0,0.0,0.0,0.0,0.0,0.0,0.0,0.0,0.0,0.0,0.0,0.0,0.0,0.0,0.0,0.0,0.0,0.0,0.0,0.0,0.0,0.0,0.0,0.0,0.0,0.0,0.0,0.0,0.0,0.0,0.0,0.0,0.0,0.0,0.0,0.0,0.0,0.0,0.0,0.0,0.0,0.0,0.0,0.0,0.0,0.0,0.0,0.0,0.0,0.0,0.0,0.0,0.0,0.0,0.0,0.0,0.0,0.0,0.0,0.0,0.0,0.0,0.0,0.0,0.0,0.0,0.0,0.0,0.0,0.0,0.0,0.0,0.0,0.0,0.0,0.0,0.0,0.0,0.0,0.0,0.0,0.0,0.0,0.0,0.0,0.0,0.0,0.0,0.0,0.0,0.0,0.0,0.0,0.0,0.0,0.0,0.0,0.0,0.0,0.0,0.0,0.0,0.0,0.0,0.0,0.0,0.0,0.0,-1.6334,-1.6836,-1.6849,0.0,-1.6429,0.0,0.0,0.0,0.0,0.0,0.0,0.0,0.0,0.0,0.0,0.0,0.0,0.0,0.0,0.0,0.0,0.0,0.0,0.0,0.0,0.0,0.0,0.0,0.0,0.0,0.0,0.0,0.0,0.0,0.0,0.0,0.0,0.0,0.0,0.0,0.0,0.0,0.0,0.0,0.0,0.0,0.0,0.0,0.0,0.0,0.0,0.0,0.0,0.0,0.0,0.0,0.0,0.0,0.0,0.0,0.0,0.0,0.0,0.0,0.0,0.0,0.0,0.0,0.0,0.0,0.0,0.0,0.0,0.0,0.0,0.0,0.0,0.0,0.0,0.0,0.0,0.0,0.0,0.0,0.0,0.0,0.0,0.0,0.0,0.0,0.0,0.0,0.0,0.0,0.0,0.0,0.0,0.0,0.0,0.0,0.0,0.0,0.0,0.0,0.0,0.0,0.0,0.0,0.0,0.0,0.0,0.0,0.0,0.0,0.0,-1.6944,-1.7107,-1.6849,-1.6646,0.0,0.0,0.0,0.0,0.0,0.0,0.0,0.0,0.0,0.0,0.0,0.0,0.0,0.0,0.0,0.0,0.0,0.0,0.0,0.0,0.0,0.0,0.0,0.0,0.0,0.0,0.0,0.0,0.0,0.0,0.0,0.0,0.0,0.0,0.0,0.0,0.0,0.0,0.0,0.0,0.0,0.0,0.0,0.0,0.0,0.0,0.0,0.0,0.0,0.0,0.0,0.0,0.0,0.0,0.0,0.0,0.0,0.0,0.0,0.0,0.0,0.0,0.0,0.0,0.0,0.0,0.0,0.0,0.0,0.0,0.0,0.0,0.0,0.0,0.0,0.0,0.0,0.0,0.0,0.0,0.0,0.0,0.0,0.0,0.0,0.0,0.0,0.0,0.0,0.0,0.0,0.0,0.0,0.0,0.0,0.0,0.0,0.0,0.0,0.0,0.0,0.0,0.0,0.0,0.0,0.0,0.0,0.0,0.0,0.0,-1.7216,-1.7446,-1.7487,-1.7107,-1.6754,-1.6469,0.0,0.0,0.0,0.0,0.0,0.0,0.0,0.0,0.0,0.0,0.0,0.0,0.0,0.0,0.0,0.0,0.0,0.0,0.0,0.0,0.0,0.0,0.0,0.0,0.0,0.0,0.0,0.0,0.0,0.0,0.0,0.0,0.0,0.0,0.0,0.0,0.0,0.0,0.0,0.0,0.0,0.0,0.0,0.0,0.0,0.0,0.0,0.0,0.0,0.0,0.0,0.0,0.0,0.0,0.0,0.0,0.0,0.0,0.0,0.0,0.0,0.0,0.0,0.0,0.0,0.0,0.0,0.0,0.0,0.0,0.0,0.0,0.0,0.0,0.0,0.0,0.0,0.0,0.0,0.0,0.0,0.0,0.0,0.0,0.0,0.0,0.0,0.0,0.0,0.0,0.0,0.0,0.0,0.0,0.0,0.0,0.0,0.0,0.0,0.0,0.0,0.0,0.0,0.0,0.0,0.0,0.0,0.0,-1.8491,-1.7826,-1.769,-1.8247,-1.7962,-1.7338,0.0,0.0,0.0,0.0,0.0,0.0,0.0,0.0,0.0,0.0,0.0,0.0,0.0,0.0,0.0,0.0,0.0,0.0,0.0,0.0,0.0,0.0,0.0,0.0,0.0,0.0,0.0,0.0,0.0,0.0,0.0,0.0,0.0,0.0,0.0,0.0,0.0,0.0,0.0,0.0,0.0,0.0,0.0,0.0,0.0,0.0,0.0,0.0,0.0,0.0,0.0,0.0,0.0,0.0,0.0,0.0,0.0,0.0,0.0,0.0,0.0,0.0,0.0,0.0,0.0,0.0,0.0,0.0,0.0,0.0,0.0,0.0,0.0,0.0,0.0,0.0,0.0,0.0,0.0,0.0,0.0,0.0,0.0,0.0,0.0,0.0,0.0,0.0,0.0,0.0,0.0,0.0,0.0,0.0,0.0,0.0,0.0,0.0,0.0,0.0,0.0,0.0,0.0,0.0,0.0,0.0,0.0,0.0,0.0,-1.7012,-1.7283,-1.803,-1.9196,-1.7826,-1.7053,0.0,0.0,0.0,0.0,0.0,0.0,0.0,0.0,0.0,0.0,0.0,0.0,0.0,0.0,0.0,0.0,0.0,0.0,0.0,0.0,0.0,0.0,0.0,0.0,0.0,0.0,0.0,0.0,0.0,0.0,0.0,0.0,0.0,0.0,0.0,0.0,0.0,0.0,0.0,0.0,0.0,0.0,0.0,0.0,0.0,0.0,0.0,0.0,0.0,0.0,0.0,0.0,0.0,0.0,0.0,0.0,0.0,0.0,0.0,0.0,0.0,0.0,0.0,0.0,0.0,0.0,0.0,0.0,0.0,0.0,0.0,0.0,0.0,0.0,0.0,0.0,0.0,0.0,0.0,0.0,0.0,0.0,0.0,0.0,0.0,0.0,0.0,0.0,0.0,0.0,0.0,0.0,0.0,0.0,0.0,0.0,0.0,0.0,0.0,0.0,0.0,0.0,0.0,0.0,0.0,0.0,0.0,0.0,0.0,-1.6863,0.0,-1.8572,0.0,-1.7826,-1.6904,0.0,0.0,0.0,0.0,0.0,0.0,0.0,0.0,0.0,0.0,0.0,0.0,0.0,0.0,0.0,0.0,0.0,0.0,0.0,0.0,0.0,0.0,0.0,0.0,0.0,0.0,0.0,0.0,0.0,0.0,0.0,0.0,0.0,0.0,0.0,0.0,0.0,0.0,0.0,0.0,0.0,0.0,0.0,0.0,0.0,0.0,0.0,0.0,0.0,0.0,0.0,0.0,0.0,0.0,0.0,0.0,0.0,0.0,0.0,0.0,0.0,0.0,0.0,0.0,0.0,0.0,0.0,0.0,0.0,0.0,0.0,0.0,0.0,0.0,0.0,0.0,0.0,0.0,0.0,0.0,0.0,0.0,0.0,0.0,0.0,0.0,0.0,0.0,0.0,0.0,0.0,0.0,0.0,0.0,0.0,0.0,0.0,0.0,0.0,0.0,0.0,0.0,0.0,0.0,0.0,0.0,0.0,0.0,-1.6754,-1.8423,-1.9196,-1.9264,-1.8586,-1.8084,-1.6958,0.0,0.0,0.0,0.0,0.0,0.0,0.0,0.0,0.0,0.0,0.0,0.0,0.0,0.0,0.0,0.0,0.0,0.0,0.0,0.0,0.0,0.0,0.0,0.0,0.0,0.0,0.0,0.0,0.0,0.0,0.0,0.0,0.0,0.0,0.0,0.0,0.0,0.0,0.0,0.0,0.0,0.0,0.0,0.0,0.0,0.0,0.0,0.0,0.0,0.0,0.0,0.0,0.0,0.0,0.0,0.0,0.0,0.0,0.0,0.0,0.0,0.0,0.0,0.0,0.0,0.0,0.0,0.0,0.0,0.0,0.0,0.0,0.0,0.0,0.0,0.0,0.0,0.0,0.0,0.0,0.0,0.0,0.0,0.0,0.0,0.0,0.0,0.0,0.0,0.0,0.0,0.0,0.0,0.0,0.0,0.0,0.0,0.0,0.0,0.0,0.0,0.0,0.0,0.0,0.0,0.0,0.0,0.0,0.0,-1.7785,-1.8708,-1.9386,-1.9698,-1.8138,-1.727,0.0,0.0,0.0,0.0,0.0,0.0,0.0,0.0,0.0,0.0,0.0,0.0,0.0,0.0,0.0,0.0,0.0,0.0,0.0,0.0,0.0,0.0,0.0,0.0,0.0,0.0,0.0,0.0,0.0,0.0,0.0,0.0,0.0,0.0,0.0,0.0,0.0,0.0,0.0,0.0,0.0,0.0,0.0,0.0,0.0,0.0,0.0,0.0,0.0,0.0,0.0,0.0,0.0,0.0,0.0,0.0,0.0,0.0,0.0,0.0,0.0,0.0,0.0,0.0,0.0,0.0,0.0,0.0,0.0,0.0,0.0,0.0,0.0,0.0,0.0,0.0,0.0,0.0,0.0,0.0,0.0,0.0,0.0,0.0,0.0,0.0,0.0,0.0,0.0,0.0,0.0,0.0,0.0,0.0,0.0,0.0,0.0,0.0,0.0,0.0,0.0,0.0,0.0,0.0,0.0,0.0,0.0,0.0,0.0,-1.9616,-1.9981,-2.0146,-2.0322,-1.864,-1.7704,-1.7609,0.0,0.0,0.0,0.0,0.0,0.0,0.0,0.0,0.0,0.0,0.0,0.0,0.0,0.0,0.0,0.0,0.0,0.0,0.0,0.0,0.0,0.0,0.0,0.0,0.0,0.0,0.0,0.0,0.0,0.0,0.0,0.0,0.0,0.0,0.0,0.0,0.0,0.0,0.0,0.0,0.0,0.0,0.0,0.0,0.0,0.0,0.0,0.0,0.0,0.0,0.0,0.0,0.0,0.0,0.0,0.0,0.0,0.0,0.0,0.0,0.0,0.0,0.0,0.0,0.0,0.0,0.0,0.0,0.0,0.0,0.0,0.0,0.0,0.0,0.0,0.0,0.0,0.0,0.0,0.0,0.0,0.0,0.0,0.0,0.0,0.0,0.0,0.0,0.0,0.0,0.0,0.0,0.0,0.0,0.0,0.0,0.0,0.0,0.0,0.0,0.0,0.0,0.0,0.0,0.0,0.0,0.0,0.0,-2.3464,-2.2842,-2.1888,-2.0766,-1.9777,-1.84,0.0,0.0,0.0,0.0,0.0,0.0,0.0,0.0,0.0,0.0,0.0,0.0,0.0,0.0,0.0,0.0,0.0,0.0,0.0,0.0,0.0,0.0,0.0,0.0,0.0,0.0,0.0,0.0,0.0,0.0,0.0,0.0,0.0,0.0,0.0,0.0,0.0,0.0,0.0,0.0,0.0,0.0,0.0,0.0,0.0,0.0,0.0,0.0,0.0,0.0,0.0,0.0,0.0,0.0,0.0,0.0,0.0,0.0,0.0,0.0,0.0,0.0,0.0,0.0,0.0,0.0,0.0,0.0,0.0,0.0,0.0,0.0,0.0,0.0,0.0,0.0,0.0,0.0,0.0,0.0,0.0,0.0,0.0,0.0,0.0,0.0,0.0,0.0,0.0,0.0,0.0,0.0,0.0,0.0,0.0,0.0,0.0,0.0,0.0,0.0,0.0,0.0,0.0,0.0,0.0,0.0,0.0,0.0,0.0,-2.4732,-2.724,-2.7353,-2.4859,-2.2539,-2.0707,0.0,0.0,0.0,0.0,0.0,0.0,0.0,0.0,0.0,0.0,0.0,0.0,0.0,0.0,0.0,0.0,0.0,0.0,0.0,0.0,0.0,0.0,0.0,0.0,0.0,0.0,0.0,0.0,0.0,0.0,0.0,0.0,0.0,0.0,0.0,0.0,0.0,0.0,0.0,0.0,0.0,0.0,0.0,0.0,0.0,0.0,0.0,0.0,0.0,0.0,0.0,0.0,0.0,0.0,0.0,0.0,0.0,0.0,0.0,0.0,0.0,0.0,0.0,0.0,0.0,0.0,0.0,0.0,0.0,0.0,0.0,0.0,0.0,0.0,0.0,0.0,0.0,0.0,0.0,0.0,0.0,0.0,0.0,0.0,0.0,0.0,0.0,0.0,0.0,0.0,0.0,0.0,0.0,0.0,0.0,0.0,0.0,0.0,0.0,0.0,0.0,0.0,0.0,0.0,0.0,0.0,0.0,0.0,-2.869,-3.0262,-3.3122,-3.3624,-3.1772,-2.8234,-2.4641,0.0,0.0,0.0,0.0,0.0,0.0,0.0,0.0,0.0,0.0,0.0,0.0,0.0,0.0,0.0,0.0,0.0,0.0,0.0,0.0,0.0,0.0,0.0,0.0,0.0,0.0,0.0,0.0,0.0,0.0,0.0,0.0,0.0,0.0,0.0,0.0,0.0,0.0,0.0,0.0,0.0,0.0,0.0,0.0,0.0,0.0,0.0,0.0,0.0,0.0,0.0,0.0,0.0,0.0,0.0,0.0,0.0,0.0,0.0,0.0,0.0,0.0,0.0,0.0,0.0,0.0,0.0,0.0,0.0,0.0,0.0,0.0,0.0,0.0,0.0,0.0,0.0,0.0,0.0,0.0,0.0,0.0,0.0,0.0,0.0,0.0,0.0,0.0,0.0,0.0,0.0,0.0,0.0,0.0,0.0,0.0,0.0,0.0,0.0,0.0,0.0,0.0,0.0,0.0,0.0,0.0,0.0,0.0,-3.4885,-3.7602,-3.9196,-3.9942,-3.9627,-3.4861,-2.9282,0.0,0.0,0.0,0.0,0.0,0.0,0.0,0.0,0.0,0.0,0.0,0.0,0.0,0.0,0.0,0.0,0.0,0.0,0.0,0.0,0.0,0.0,0.0,0.0,0.0,0.0,0.0,0.0,0.0,0.0,0.0,0.0,0.0,0.0,0.0,0.0,0.0,0.0,0.0,0.0,0.0,0.0,0.0,0.0,0.0,0.0,0.0,0.0,0.0,0.0,0.0,0.0,0.0,0.0,0.0,0.0,0.0,0.0,0.0,0.0,0.0,0.0,0.0,0.0,0.0,0.0,0.0,0.0,0.0,0.0,0.0,0.0,0.0,0.0,0.0,0.0,0.0,0.0,0.0,0.0,0.0,0.0,0.0,0.0,0.0,0.0,0.0,0.0,0.0,0.0,0.0,0.0,0.0,0.0,0.0,0.0,0.0,0.0,0.0,0.0,0.0,0.0,0.0,0.0,0.0,0.0,0.0,0.0,-3.7262,-3.8524,-4.1504,-4.2868,-4.2369,-3.782,-3.2399,0.0,0.0,0.0,0.0,0.0,0.0,0.0,0.0,0.0,0.0,0.0,0.0,0.0,0.0,0.0,0.0,0.0,0.0,0.0,0.0,0.0,0.0,0.0,0.0,0.0,0.0,0.0,0.0,0.0,0.0,0.0,0.0,0.0,0.0,0.0,0.0,0.0,0.0,0.0,0.0,0.0,0.0,0.0,0.0,0.0,0.0,0.0,0.0,-1.3688,0.0,0.0,0.0,0.0,0.0,0.0,0.0,0.0,0.0,0.0,0.0,0.0,0.0,0.0,0.0,0.0,0.0,0.0,0.0,0.0,0.0,0.0,0.0,0.0,0.0,0.0,0.0,0.0,0.0,0.0,0.0,0.0,0.0,0.0,0.0,0.0,0.0,0.0,0.0,0.0,0.0,0.0,0.0,0.0,0.0,0.0,0.0,0.0,0.0,0.0,0.0,0.0,0.0,0.0,0.0,0.0,0.0,0.0,0.0,-4.2504,-4.4153,-4.5902,-4.668,-4.6192,-4.2861,-3.7647,0.0,0.0,0.0,0.0,0.0,0.0,0.0,0.0,0.0,0.0,0.0,0.0,0.0,0.0,0.0,0.0,0.0,0.0,0.0,0.0,0.0,0.0,0.0,0.0,0.0,0.0,0.0,0.0,0.0,0.0,0.0,0.0,0.0,0.0,0.0,0.0,0.0,0.0,0.0,0.0,0.0,0.0,0.0,0.0,0.0,0.0,0.0,0.0,0.0,0.0,0.0,0.0,0.0,0.0,0.0,0.0,0.0,0.0,0.0,0.0,0.0,0.0,0.0,0.0,0.0,0.0,0.0,0.0,0.0,0.0,0.0,0.0,0.0,0.0,0.0,0.0,0.0,0.0,0.0,0.0,0.0,0.0,0.0,0.0,0.0,0.0,0.0,0.0,0.0,0.0,0.0,0.0,0.0,0.0,0.0,0.0,0.0,0.0,0.0,0.0,0.0,0.0,0.0,0.0,0.0,0.0,0.0,-4.5643,-4.8188,-5.0911,-5.0838,-5.0542,-5.0037,-4.8003,-4.3149,-3.5573,0.0,0.0,0.0,0.0,0.0,0.0,0.0,0.0,0.0,0.0,0.0,0.0,0.0,0.0,0.0,0.0,0.0,0.0,0.0,0.0,0.0,0.0,0.0,0.0,0.0,0.0,0.0,0.0,0.0,0.0,0.0,0.0,0.0,0.0,0.0,0.0,0.0,0.0,-1.4163,-1.4814,0.0,0.0,0.0,0.0,0.0,0.0,0.0,0.0,-1.4991,0.0,0.0,0.0,0.0,0.0,0.0,0.0,0.0,0.0,0.0,0.0,0.0,0.0,0.0,0.0,0.0,0.0,0.0,0.0,0.0,0.0,0.0,0.0,0.0,0.0,0.0,0.0,0.0,0.0,0.0,0.0,0.0,0.0,0.0,0.0,0.0,0.0,0.0,0.0,0.0,0.0,0.0,0.0,0.0,0.0,0.0,0.0,0.0,0.0,0.0,0.0,0.0,0.0,0.0,0.0,0.0,-4.7513,-4.8504,-5.0633,-5.4164,-5.3879,-5.3237,-5.1937,-4.9324,-4.5806,-4.1283,0.0,0.0,0.0,0.0,0.0,0.0,0.0,0.0,0.0,0.0,0.0,0.0,0.0,0.0,0.0,0.0,0.0,0.0,0.0,0.0,0.0,0.0,0.0,0.0,0.0,0.0,0.0,0.0,0.0,0.0,0.0,0.0,0.0,0.0,0.0,0.0,0.0,0.0,0.0,-1.6252,-1.6537,0.0,0.0,0.0,0.0,0.0,0.0,0.0,0.0,-1.5289,0.0,0.0,0.0,0.0,0.0,0.0,0.0,0.0,0.0,0.0,0.0,0.0,0.0,0.0,0.0,0.0,0.0,0.0,0.0,0.0,0.0,0.0,0.0,0.0,0.0,0.0,0.0,0.0,0.0,0.0,0.0,0.0,0.0,0.0,0.0,0.0,0.0,0.0,0.0,0.0,0.0,0.0,0.0,0.0,0.0,0.0,0.0,0.0,0.0,0.0,0.0,0.0,0.0,0.0,0.0,-4.8912,-5.2321,-5.5451,-5.8548,-5.7518,-5.6236,-5.4676,-5.0068,-4.6159,0.0,0.0,0.0,0.0,0.0,0.0,0.0,0.0,0.0,0.0,0.0,0.0,0.0,0.0,0.0,0.0,0.0,0.0,0.0,0.0,0.0,0.0,0.0,0.0,0.0,0.0,0.0,0.0,0.0,0.0,0.0,0.0,0.0,0.0,0.0,0.0,0.0,0.0,0.0,0.0,-1.6886,-1.744,-1.7622,0.0,0.0,0.0,0.0,0.0,0.0,-1.575,-1.5669,0.0,0.0,0.0,0.0,0.0,0.0,0.0,0.0,0.0,0.0,0.0,0.0,0.0,0.0,0.0,0.0,0.0,0.0,0.0,0.0,0.0,0.0,0.0,0.0,0.0,0.0,0.0,0.0,0.0,0.0,0.0,0.0,0.0,0.0,0.0,0.0,0.0,0.0,0.0,0.0,0.0,0.0,0.0,0.0,0.0,0.0,0.0,0.0,0.0,0.0,0.0,0.0,0.0,0.0,0.0,-5.1059,-5.6023,-6.0186,-6.3006,-6.1522,-5.9713,-5.8197,-5.2413,-4.7549,0.0,0.0,0.0,0.0,0.0,0.0,0.0,0.0,0.0,0.0,0.0,0.0,0.0,0.0,0.0,0.0,0.0,0.0,0.0,0.0,0.0,0.0,0.0,0.0,0.0,0.0,0.0,0.0,0.0,0.0,0.0,0.0,0.0,0.0,0.0,0.0,0.0,0.0,0.0,0.0,0.0,-1.8473,-1.9023,-1.8444,0.0,0.0,0.0,0.0,-1.6551,-1.6524,0.0,0.0,0.0,0.0,0.0,0.0,0.0,0.0,0.0,0.0,0.0,0.0,0.0,0.0,0.0,0.0,0.0,0.0,0.0,0.0,0.0,0.0,0.0,0.0,0.0,0.0,0.0,0.0,0.0,0.0,0.0,0.0,0.0,0.0,0.0,0.0,0.0,0.0,0.0,0.0,0.0,0.0,0.0,0.0,0.0,0.0,0.0,0.0,0.0,0.0,0.0,0.0,0.0,0.0,0.0,0.0,-5.6066,-5.9094,-6.2954,-6.725,-6.6032,-6.4364,-6.2417,-5.8935,-5.3515,0.0,0.0,0.0,0.0,0.0,0.0,0.0,0.0,0.0,0.0,0.0,0.0,0.0,0.0,0.0,0.0,0.0,0.0,0.0,0.0,0.0,0.0,0.0,0.0,0.0,0.0,0.0,0.0,0.0,0.0,0.0,0.0,0.0,0.0,0.0,0.0,0.0,0.0,0.0,0.0,0.0,-2.0177,-2.0079,-1.9838,-1.9762,0.0,0.0,-1.765,-1.8165,-1.803,0.0,0.0,0.0,0.0,0.0,0.0,0.0,0.0,0.0,0.0,0.0,0.0,0.0,0.0,0.0,0.0,0.0,0.0,0.0,0.0,0.0,0.0,0.0,0.0,0.0,0.0,0.0,0.0,0.0,0.0,0.0,0.0,0.0,0.0,0.0,0.0,0.0,0.0,0.0,0.0,0.0,0.0,0.0,0.0,0.0,0.0,0.0,0.0,0.0,0.0,0.0,0.0,0.0,0.0,0.0,-5.1988,-5.8374,-6.3222,-6.7284,-7.0701,-6.9357,-6.7639,-6.5715,-6.0759,-5.4471,0.0,0.0,0.0,0.0,0.0,0.0,0.0,0.0,0.0,0.0,0.0,0.0,0.0,0.0,0.0,0.0,0.0,0.0,0.0,0.0,0.0,0.0,0.0,0.0,0.0,0.0,0.0,0.0,0.0,0.0,0.0,0.0,0.0,0.0,0.0,0.0,0.0,0.0,0.0,0.0,0.0,0.0,-2.523,-2.362,0.0,0.0,0.0,-1.8654,-1.8993,0.0,0.0,0.0,0.0,0.0,0.0,0.0,0.0,0.0,0.0,0.0,0.0,0.0,0.0,0.0,0.0,0.0,0.0,0.0,0.0,0.0,0.0,0.0,0.0,0.0,0.0,0.0,0.0,0.0,0.0,0.0,0.0,0.0,0.0,0.0,0.0,0.0,0.0,0.0,0.0,0.0,0.0,0.0,0.0,0.0,0.0,0.0,0.0,0.0,0.0,0.0,0.0,0.0,0.0,0.0,0.0,0.0,-6.0754,-6.6623,-7.0835,-7.3183,-7.1991,-7.0467,-6.8491,-6.3045,0.0,0.0,0.0,0.0,0.0,0.0,0.0,0.0,0.0,0.0,0.0,0.0,0.0,0.0,0.0,0.0,0.0,0.0,0.0,0.0,0.0,0.0,0.0,0.0,0.0,0.0,0.0,-2.2246,0.0,0.0,0.0,0.0,0.0,0.0,0.0,0.0,0.0,0.0,0.0,0.0,0.0,0.0,-2.874,-2.9723,-2.8096,-2.6524,0.0,0.0,-2.0694,-2.0202,-1.9656,-1.8816,0.0,0.0,0.0,0.0,0.0,0.0,0.0,0.0,0.0,0.0,0.0,0.0,0.0,0.0,0.0,0.0,0.0,0.0,0.0,0.0,0.0,0.0,0.0,0.0,0.0,0.0,0.0,0.0,-5.3924,-5.0976,0.0,0.0,0.0,0.0,0.0,0.0,0.0,0.0,0.0,0.0,0.0,0.0,0.0,0.0,0.0,0.0,0.0,0.0,0.0,0.0,0.0,0.0,0.0,0.0,-5.7639,-6.4346,-6.8789,-7.1985,-7.4312,-7.3685,-7.2454,-7.0803,-6.8083,-6.2227,0.0,0.0,0.0,0.0,0.0,0.0,0.0,0.0,0.0,0.0,0.0,0.0,0.0,0.0,0.0,0.0,0.0,0.0,0.0,0.0,0.0,0.0,0.0,0.0,0.0,0.0,0.0,0.0,0.0,0.0,0.0,0.0,0.0,0.0,0.0,0.0,0.0,0.0,0.0,0.0,0.0,-3.1093,-3.2055,-3.2624,-3.2131,0.0,-2.7187,-2.4751,-2.2443,-2.0992,-1.9576,-1.8233,0.0,0.0,0.0,0.0,0.0,0.0,0.0,0.0,0.0,0.0,0.0,0.0,0.0,0.0,0.0,0.0,0.0,0.0,0.0,0.0,0.0,0.0,0.0,0.0,0.0,-6.0503,-5.7703,-5.5199,-5.1783,0.0,0.0,0.0,0.0,0.0,0.0,0.0,0.0,0.0,0.0,0.0,0.0,0.0,0.0,0.0,0.0,0.0,0.0,0.0,0.0,0.0,0.0,0.0,0.0,-5.9778,-6.4928,-6.9308,-7.2576,-7.4492,-7.4327,-7.3487,-7.205,-6.9841,-6.4376,0.0,0.0,0.0,0.0,0.0,0.0,0.0,0.0,0.0,0.0,0.0,0.0,0.0,0.0,0.0,0.0,0.0,0.0,0.0,0.0,0.0,0.0,0.0,0.0,0.0,0.0,0.0,0.0,-2.609,-2.5371,-2.3247,0.0,0.0,0.0,0.0,0.0,0.0,0.0,0.0,0.0,0.0,-3.6358,-3.748,-3.587,0.0,0.0,-2.8603,-2.5372,-2.3702,-2.1925,-2.0255,-1.8919,-1.7975,0.0,0.0,0.0,0.0,0.0,0.0,0.0,0.0,0.0,0.0,0.0,0.0,0.0,0.0,0.0,0.0,0.0,0.0,0.0,0.0,0.0,0.0,0.0,0.0,0.0,0.0,-5.8228,-5.3785,0.0,0.0,0.0,0.0,0.0,0.0,0.0,0.0,0.0,0.0,0.0,0.0,0.0,0.0,0.0,0.0,0.0,0.0,0.0,0.0,0.0,0.0,0.0,0.0,-6.1279,-6.5309,-6.9859,-7.2969,-7.457,-7.457,-7.3984,-7.2695,-7.0725,-6.6066,0.0,0.0,0.0,0.0,0.0,0.0,0.0,0.0,0.0,0.0,0.0,0.0,0.0,0.0,0.0,0.0,0.0,0.0,0.0,0.0,0.0,0.0,0.0,0.0,0.0,0.0,0.0,0.0,-2.8519,-2.7622,-2.5423,0.0,0.0,0.0,0.0,0.0,0.0,0.0,0.0,0.0,0.0,-4.0318,-4.1416,-3.9397,-3.7209,-3.5418,-3.1699,-2.8518,-2.6888,-2.4388,-2.225,-2.1673,0.0,0.0,0.0,0.0,0.0,0.0,0.0,0.0,0.0,0.0,0.0,0.0,0.0,0.0,0.0,0.0,0.0,0.0,0.0,0.0,0.0,0.0,0.0,0.0,0.0,0.0,-6.6677,-6.431,0.0,-5.3323,-4.9168,0.0,0.0,0.0,0.0,0.0,0.0,0.0,0.0,0.0,0.0,0.0,0.0,0.0,0.0,0.0,0.0,0.0,0.0,0.0,0.0,0.0,0.0,-6.1914,-6.6185,-7.0452,-7.3281,-7.4531,-7.457,-7.3984,-7.2734,-7.0866,-6.7635,-6.2808,0.0,0.0,0.0,0.0,0.0,0.0,0.0,0.0,0.0,0.0,0.0,0.0,0.0,0.0,0.0,0.0,0.0,0.0,0.0,0.0,0.0,0.0,0.0,0.0,0.0,0.0,-3.0636,-3.0083,-2.9054,0.0,0.0,0.0,0.0,0.0,0.0,0.0,0.0,0.0,-3.9065,-4.1042,-4.2363,-4.2717,-4.3322,-4.2264,-3.8913,-3.7281,-3.5342,-3.2774,-2.847,-2.5858,0.0,0.0,0.0,0.0,0.0,0.0,0.0,0.0,0.0,0.0,0.0,0.0,0.0,0.0,0.0,0.0,0.0,0.0,0.0,0.0,0.0,0.0,0.0,0.0,0.0,0.0,0.0,-7.6973,-7.2761,0.0,0.0,0.0,0.0,0.0,0.0,0.0,0.0,0.0,-7.0067,0.0,-7.252,-7.234,0.0,0.0,0.0,0.0,0.0,0.0,0.0,0.0,0.0,0.0,0.0,0.0,-6.2931,-6.7363,-7.1355,-7.4209,-7.5955,-7.5655,-7.48,-7.3815,-7.2109,-6.8646,-6.3203,0.0,0.0,0.0,0.0,0.0,0.0,0.0,0.0,0.0,0.0,0.0,0.0,0.0,0.0,0.0,0.0,0.0,0.0,0.0,0.0,0.0,0.0,0.0,0.0,0.0,-3.0889,0.0,0.0,0.0,0.0,0.0,0.0,0.0,0.0,0.0,0.0,-3.6286,-3.8504,-4.0748,-4.2405,-4.3477,-4.3798,-4.3685,-4.2764,0.0,0.0,0.0,0.0,0.0,0.0,0.0,0.0,0.0,0.0,0.0,0.0,0.0,0.0,-3.9527,-3.5245,-3.1535,-2.912,-2.925,0.0,0.0,0.0,0.0,0.0,0.0,0.0,0.0,0.0,0.0,0.0,0.0,0.0,0.0,-8.7239,-8.2055,-7.753,-7.0983,0.0,0.0,0.0,0.0,0.0,0.0,0.0,-7.9167,-8.1004,-8.1716,-8.1078,-7.9392,-7.6805,-7.455,-6.9235,0.0,0.0,0.0,0.0,0.0,0.0,0.0,0.0,-6.403,-6.858,-7.2512,-7.5331,-7.7069,-7.6773,-7.6173,-7.5451,-7.318,-6.9506,-6.4359,-5.9703,-5.6771,0.0,0.0,0.0,0.0,0.0,0.0,0.0,0.0,0.0,0.0,0.0,0.0,0.0,0.0,0.0,0.0,0.0,0.0,0.0,0.0,0.0,0.0,0.0,-3.2068,0.0,0.0,0.0,0.0,0.0,0.0,0.0,0.0,0.0,-3.7195,-3.9038,-4.1096,-4.3073,-4.4142,-4.4783,-4.489,0.0,0.0,0.0,0.0,0.0,0.0,0.0,-3.4509,-3.5737,-3.4778,-3.5154,-3.8577,-4.2322,-4.4837,-4.4623,0.0,0.0,-4.139,-3.7643,-3.5272,-3.5412,-3.2674,-3.0292,-3.0535,-3.0697,-3.088,0.0,0.0,0.0,0.0,-9.4002,0.0,0.0,0.0,-10.0542,-9.7414,0.0,-8.8562,0.0,0.0,0.0,0.0,-7.1452,-7.7193,0.0,0.0,-8.8896,-9.1628,-9.3315,-8.9626,-8.713,-8.5804,-8.3894,-8.0841,-7.6476,-6.8131,-6.2026,0.0,0.0,0.0,0.0,0.0,-6.553,-7.0084,-7.3782,-7.6478,-7.8162,-7.8064,-7.7819,-7.7191,-7.3902,-7.0331,-6.6926,-6.5136,-6.265,-5.9282,-5.5863,0.0,0.0,0.0,0.0,0.0,0.0,0.0,0.0,0.0,0.0,0.0,0.0,0.0,0.0,0.0,0.0,0.0,0.0,0.0,0.0,-3.419,0.0,0.0,0.0,0.0,0.0,0.0,0.0,0.0,0.0,-4.1862,-4.0454,-4.1737,-4.3634,-4.5852,0.0,0.0,0.0,0.0,-4.5264,-4.4997,-4.4195,-4.3717,-4.4276,-4.1419,-3.9821,-4.1702,0.0,0.0,-4.3117,-4.5757,-4.6948,-4.5344,-4.6467,-4.7535,-4.7428,-4.357,-4.0733,-4.0816,-3.7646,-3.5083,-3.5024,-3.5637,-3.5848,-12.1219,0.0,0.0,0.0,0.0,-10.8218,-11.1004,-11.4298,-11.4911,-11.3808,-11.129,-10.3255,0.0,0.0,0.0,0.0,0.0,0.0,-9.0139,-9.337,-9.4644,-9.5926,-9.6976,-9.5139,-9.3338,-9.1802,-9.0533,-8.8775,-8.6395,-8.2731,-7.4513,-6.2038,0.0,0.0,0.0,0.0,-7.0001,-7.4918,-7.7775,-8.014,-8.2501,-8.1594,-7.9986,-7.7601,-7.4979,-7.2526,-7.0371,-6.8175,-6.5852,-6.3314,-6.0237,0.0,0.0,0.0,0.0,0.0,0.0,0.0,0.0,0.0,0.0,0.0,0.0,0.0,0.0,0.0,0.0,0.0,0.0,0.0,-3.612,-3.6406,-3.6265,0.0,0.0,0.0,0.0,0.0,0.0,0.0,0.0,0.0,-4.5585,-4.5428,-4.5745,0.0,0.0,-4.6386,-4.6092,-4.5986,-4.5986,-4.6119,-4.5718,0.0,-4.5665,-4.4725,-4.4483,-4.615,-4.6605,-4.7097,-4.7989,-4.817,-4.8043,-4.7696,-4.8096,-4.8497,-4.8658,-4.6668,-4.4819,-4.4678,-4.3374,-4.2265,-4.2196,-4.2414,-4.2466,-13.4542,-12.5256,-11.8318,-11.6012,-11.7061,-11.8895,-12.1484,-12.4528,-12.4756,-12.4409,-12.3349,-11.4785,-10.8557,-10.418,-9.6905,0.0,0.0,0.0,-9.6996,-9.8883,-9.9182,-9.9785,-10.0321,-9.9069,-9.7786,-9.6705,-9.5225,-9.4072,-9.319,-9.1737,-8.4658,-7.248,0.0,-7.0618,-6.795,-7.0662,-7.4553,-7.9169,-8.09,-8.3098,-8.5587,-8.4519,-8.2337,-7.9152,-7.7087,-7.4748,-7.238,-7.0357,-6.8264,-6.6015,-6.3242,-5.9883,0.0,0.0,0.0,0.0,0.0,0.0,0.0,0.0,0.0,0.0,0.0,-4.6533,-4.1368,0.0,0.0,0.0,-4.3489,-4.2772,-4.0743,-4.1164,0.0,0.0,0.0,0.0,0.0,0.0,0.0,-4.8319,-5.0825,-5.2182,-5.1929,-5.1224,-5.0003,-4.822,-4.7828,-4.7693,-4.7081,0.0,-4.676,-4.6948,-4.6734,-4.6767,-4.7262,-4.7524,-4.8272,-4.9977,-5.0479,-5.0693,-5.0534,-4.9868,-4.923,-4.9098,-4.9005,-4.9058,-4.9245,-4.8392,-4.748,-4.748,-4.7191,-4.6901,-4.6901,-4.6901,-4.6953,-14.3417,-14.1388,-13.1876,-12.7225,-12.6362,-12.688,-12.9161,-13.2298,-13.1094,-13.0438,-12.9729,-12.3213,-11.6734,-11.043,-10.4524,-10.1338,-10.0387,-10.1837,-10.2482,-10.2778,-10.2645,-10.2896,-10.3163,-10.1577,-10.0762,-10.0663,-9.8465,-9.7427,-9.735,-9.6306,-9.2753,-8.6771,-8.2894,-7.9616,-7.7128,-7.7319,-7.9281,-8.2824,-8.3805,-8.5489,-8.7833,-8.713,-8.5048,-8.1339,-7.9696,-7.7115,-7.3307,-7.186,-7.0081,-6.7872,-6.5357,-6.2657,-5.9644,0.0,0.0,0.0,0.0,0.0,0.0,0.0,0.0,0.0,0.0,0.0,0.0,0.0,0.0,-5.0982,-5.1354,0.0,-4.7139,-4.7703,0.0,0.0,0.0,-4.7272,-5.1668,-5.361,-5.5441,-5.6981,0.0,0.0,-5.8669,-5.7767,-5.5661,-5.1319,-5.0231,-4.9576,-4.8852,-4.8313,-4.7989,-4.8186,-4.7801,-4.8084,-4.9375,-5.0342,-5.1711,-5.3699,-5.3268,-5.2484,-5.2011,-5.0838,-5.013,-4.9393,-4.9272,-4.9272,-4.9272,-4.9219,-4.9272,-4.9219,-4.9245,-4.9245,-4.9045,-4.9045,-4.9018,-14.6969,-14.4684,-14.2246,-13.8741,-13.4904,-13.455,-13.489,-13.5664,-13.4942,-13.3799,-13.1992,-12.7879,-12.2205,-11.5285,-11.1953,-10.9145,-10.6982,-10.6753,-10.5869,-10.4557,-10.4019,-10.3599,-10.3298,-10.2511,-10.1827,-10.1376,-10.0493,-9.9543,-9.8721,-9.807,-9.5813,-9.2311,-9.1226,-8.7247,-8.0561,-8.199,-8.4402,-8.7539,-8.8194,-8.9191,-9.0696,-8.9719,-8.7597,-8.4345,-8.1083,-7.8033,-7.5237,-7.2759,-7.0952,-7.0023,-6.7645,-6.5103,-6.2533,-5.7756,0.0,0.0,0.0,0.0,0.0,0.0,0.0,0.0,0.0,-5.5547,-5.0273,0.0,-5.6481,0.0,-5.7107,-5.6384,-5.3898,-5.3788,0.0,0.0,-5.3344,-5.4476,-5.8251,-6.0286,-6.1387,-6.129,-6.3419,-6.4114,-6.1847,-6.1378,-6.0342,-5.7776,-5.4546,-5.2487,-5.2313,-5.1998,-5.1825,-5.2026,-5.1682,-5.1682,-5.2283,-5.424,-5.6333,-5.7943,-5.6801,-5.5339,-5.3966,-5.1886,-5.013,-4.942,-4.9272,-4.9272,-4.9272,-4.9272,-4.9272,-4.9272,-4.9272,-4.9272,-4.9272,-4.9272,-4.9272,-14.86,-14.6685,-14.6087,-14.3728,-14.0482,-13.923,-13.8284,-13.7768,-13.681,-13.5419,-13.36,-12.9838,-12.5212,-12.012,-11.7757,-11.4802,-11.1419,-11.013,-10.8213,-10.5637,-10.4658,-10.385,-10.3298,-10.2796,-10.2243,-10.1691,-10.1138,-10.0435,-9.9582,-9.8979,-9.7747,-9.5716,-9.5666,-9.2903,-8.7661,-8.7367,-8.8318,-9.0436,-9.1346,-9.1908,-9.2326,-9.1655,-8.9,-8.4229,-8.1319,-7.8346,-7.5187,-7.1849,-6.9979,-6.9886,-6.7147,-6.4864,-6.301,-5.9599,-5.7305,0.0,0.0,0.0,0.0,0.0,0.0,0.0,0.0,0.0,0.0,0.0,-6.0666,-6.0941,-6.3159,-6.3343,-6.026,-6.078,-6.1301,-6.1146,-6.0742,-6.1806,-6.5491,-6.6678,-6.7536,-6.7886,-6.8792,-6.8865,-6.7198,-6.6163,-6.5203,-6.3699,-6.1157,-5.8227,-5.5771,-5.4951,-5.4801,-5.4981,-5.4742,-5.5023,-5.6006,-5.8595,-6.0804,-6.1341,-6.0133,-5.8285,-5.6279,-5.3557,-5.1159,-5.001,-4.9567,-4.9299,-4.9272,-4.9272,-4.9272,-4.9272,-4.9272,-4.9272,-4.9272,-4.9272,-4.9272,-14.9335,-14.7822,-14.6566,-14.5189,-14.3693,-14.1897,-14.0341,-13.8965,-13.7708,-13.6315,-13.4794,-13.0382,-12.6983,-12.4506,-12.236,-11.9083,-11.4766,-11.3113,-11.0338,-10.6685,-10.5265,-10.412,-10.3432,-10.2879,-10.2426,-10.1791,-10.1189,-10.0636,-10.0134,-9.9481,-9.8577,-9.7523,-9.7472,-9.6619,-9.5012,-9.2236,-9.1421,-9.2359,-9.3647,-9.3896,-9.3173,-9.29,-8.9664,-8.3306,-8.1366,-7.8705,-7.4985,-7.1331,-6.9559,-6.998,-6.735,-6.5349,-6.4392,-6.2487,-6.1539,0.0,-6.0007,0.0,0.0,0.0,0.0,0.0,0.0,0.0,0.0,-6.4023,-6.457,-6.5156,-6.8737,-6.9687,-6.6442,-6.7769,-6.8576,-6.7673,-6.7599,-6.8973,-7.1872,-7.2417,-7.3007,-7.4452,-7.3882,-7.3252,-7.2535,-7.1063,-6.9789,-6.8574,-6.7429,-6.4857,-6.0342,-5.8713,-5.8461,-5.8202,-5.7952,-5.9042,-6.1091,-6.3436,-6.4823,-6.4748,-6.3216,-6.1157,-5.8701,-5.5515,-5.2681,-5.104,-5.001,-4.942,-4.942,-4.942,-4.9299,-4.9272,-4.9272,-4.9272,-4.9272,-4.9272,-4.9272,-15.0825,-14.854,-14.7762,-14.6027,-14.3753,-14.2915,-14.1479,-13.9683,-13.8905,-13.721,-13.4794,-13.1809,-12.9522,-12.792,-12.5442,-12.2577,-11.9675,-11.6585,-11.3487,-11.015,-10.7779,-10.581,-10.4235,-10.3595,-10.3026,-10.2293,-10.1339,-10.0837,-10.0686,-9.9682,-9.8427,-9.692,-9.687,-9.6066,-9.4459,0.0,0.0,0.0,-9.4564,-9.4614,-9.399,-9.2602,-9.0094,-8.6525,-8.3656,0.0,-7.8462,-7.7069,-7.6357,-7.6517,-7.6744,0.0,0.0,0.0,0.0,0.0,0.0,0.0,0.0,0.0,0.0,0.0,-6.8549,-6.7584,-6.6453,-6.9336,-7.1015,-7.0195,-7.1796,-7.2709,-7.2007,-7.1944,-7.2117,-7.224,-7.2577,-7.3238,-7.4553,-7.4966,-7.5564,-7.6448,-7.6128,-7.5412,-7.4421,-7.3598,-7.2532,-7.0909,-7.0406,-6.9617,-6.7822,-6.5783,-6.4793,-6.4758,-6.4438,-6.5113,-6.6643,-6.775,-6.8359,-6.7894,-6.6386,-6.3987,-6.0939,-5.7423,-5.4493,-5.271,-5.1187,-5.0304,-5.0157,-4.9715,-4.9272,-4.9299,-4.9299,-4.9272,-4.9272,-4.9299,-4.9272,-15.3149,-15.13,-15.0268,-14.8426,0.0,-14.5319,-14.3361,-14.0794,-13.9451,-13.7702,-13.5354,-13.3327,-13.1645,-12.9828,-12.7595,-12.4866,-12.1884,-11.8587,-11.5454,-11.2627,-10.9943,-10.7789,-10.5907,-10.5255,-10.4186,-10.2622,-10.1764,-10.1129,-10.0435,-9.9582,-9.8477,-9.7121,-9.7171,-9.6468,-9.5112,-9.5062,-9.4911,-9.466,-9.4962,-9.4962,-9.461,-9.344,-9.0974,-8.6961,-8.5088,0.0,0.0,0.0,0.0,0.0,0.0,0.0,0.0,-7.5934,0.0,-7.4958,-7.4029,-7.3449,-7.3417,-7.4167,-7.4844,-7.5411,-7.4994,-7.332,-7.0093,-7.2539,-7.3984,-7.3398,-7.4366,-7.4975,-7.4975,-7.5075,-7.5133,-7.5325,-7.5556,-7.5817,-7.6293,-7.6448,-7.6633,-7.6691,-7.6445,-7.5872,-7.5014,-7.4587,-7.3994,-7.3092,-7.2873,-7.2731,-7.2125,-6.9899,-6.8359,-6.8359,-6.8644,-6.9003,-6.965,-7.0686,-7.115,-7.048,-6.8935,-6.6855,-6.4344,-6.0826,-5.7569,-5.5691,-5.3732,-5.2237,-5.1187,-5.0424,-4.9715,-4.9447,-4.9406,-4.9486,-4.9486,-4.9486,-4.9539,-15.586,-15.4362,-15.2881,-15.1138,-14.9461,-14.7855,-14.5131,-14.1732,-13.9586,0.0,-13.5913,-13.4596,-13.2975,-13.1113,-12.9239,-12.6764,-12.3869,-12.0799,-11.7996,-11.5485,-11.2901,-11.0565,-10.8416,-10.7531,-10.5915,-10.337,-10.2549,-10.16,-10.0264,-9.9632,-9.8728,-9.7673,-9.7573,-9.7021,-9.5966,-9.5916,-9.5665,-9.5263,-9.5112,-9.5012,-9.4911,-9.4359,-9.1911,-8.7156,-8.6626,-8.5613,-8.4001,-8.1431,-8.0798,-8.2526,-8.0634,-7.9589,-7.9665,-7.9969,-8.0855,-8.2087,-8.2222,-8.2089,-8.2116,-8.1909,-8.1368,-8.0528,-7.9923,-7.7836,-7.385,-7.4844,-7.5664,-7.5586,-7.6211,-7.6601,-7.664,-7.6953,-7.7187,-7.7187,-7.7187,-7.7187,-7.7187,-7.7109,-7.6914,-7.6523,-7.6094,-7.5625,-7.5273,-7.4883,-7.457,-7.4609,-7.4429,-7.457,-7.4288,-7.2409,-7.0909,-7.0909,-7.13,-7.1697,-7.202,-7.2731,-7.3337,-7.2447,-7.1008,-6.9467,-6.7465,-6.4344,-6.1262,-5.9199,-5.6924,-5.4582,-5.2738,-5.1481,-5.0452,-4.9715,-4.9607,-4.9673,-4.978,-4.9807,-4.986,-15.8382,-15.6412,-15.4418,-15.2861,-15.1365,-14.9373,-14.5961,-14.1764,-13.8511,-13.6751,-13.5913,-13.4596,-13.3279,-13.1721,-13.0459,-12.8898,-12.7279,-12.5108,-12.2808,-12.0193,-11.819,-11.5331,-11.1776,-11.0527,-10.8661,-10.6098,-10.4413,-10.2809,-10.165,-10.0444,-9.913,-9.7774,-9.7573,-9.7021,-9.5966,-9.5916,-9.5866,-9.5765,-9.5313,-9.4861,-9.4359,-9.3807,-9.2531,-9.0402,-8.9685,-8.8905,-8.7807,-8.8089,-8.8554,-8.8855,-9.0194,-9.0757,-9.0119,-8.9934,-8.9871,-8.9496,-8.9234,-8.8597,-8.7413,-8.7473,-8.6229,-8.3214,-8.2056,-8.0153,-7.7008,-7.7109,-7.7305,-7.6953,-7.6992,-7.7109,-7.7109,-7.7148,-7.7148,-7.7187,-7.7187,-7.7187,-7.7148,-7.6797,-7.6562,-7.6445,-7.5781,-7.5312,-7.5195,-7.4844,-7.457,-7.457,-7.457,-7.457,-7.457,-7.4327,-7.4006,-7.4006,-7.4006,-7.4186,-7.3865,-7.4147,-7.4006,-7.344,-7.2513,-7.115,-6.9573,-6.7178,-6.4667,-6.2707,-5.9875,-5.7185,-5.5313,-5.3089,-5.1508,-5.0599,-4.9943,-4.9661,-4.9913,-5.0047,-5.01,-16.2642,-16.1511,-15.9137,-15.7366,-15.5757,-15.1225,-14.714,-14.3259,-14.0369,-13.8036,-13.6451,-13.5494,-13.4357,-13.304,-13.1295,-13.0098,-12.9082,-12.6864,-12.4889,-12.3213,-12.1311,-11.8693,-11.5654,-11.4047,-11.1688,-10.8811,-10.6557,-10.4466,-10.248,-10.1194,-9.9846,-9.8711,-9.8306,-9.7795,-9.7084,-9.6662,-9.6414,-9.6363,-9.5913,-9.5414,-9.5112,-9.461,-9.3957,-9.3204,-9.2652,-9.2099,-9.1597,-9.2049,-9.235,-9.235,-9.3304,-9.3718,-9.3696,-9.3617,-9.3448,-9.3234,-9.3133,-9.2718,-9.208,-9.118,-8.9324,-8.6189,-8.4957,-8.3377,-8.0843,-7.9304,-7.8096,-7.7226,-7.7187,-7.7187,-7.7187,-7.6953,-7.6797,-7.6836,-7.6601,-7.6484,-7.6445,-7.6328,-7.6055,-7.582,-7.5469,-7.5156,-7.4883,-7.4726,-7.4609,-7.457,-7.457,-7.457,-7.457,-7.457,-7.457,-7.457,-7.457,-7.457,-7.457,-7.457,-7.4351,-7.3875,-7.3286,-7.2541,-7.135,-6.9789,-6.8217,-6.6175,-6.3597,-6.0761,-5.8151,-5.5429,-5.3528,-5.1921,-5.0884,-5.0389,-5.0457,-5.032,-5.0261,-16.6484,-16.6105,-16.3279,-16.0953,-15.8721,-15.3193,-14.8764,-14.5328,-14.2706,-14.019,-13.786,-13.6581,-13.5254,-13.3938,-13.2134,-13.0938,-13.0103,-12.8009,-12.6641,-12.5695,-12.4027,-12.1951,-11.9409,-11.7393,-11.4752,-11.1722,-10.8933,-10.6362,-10.3897,-10.2586,-10.128,-10.0077,-9.955,-9.9025,-9.8509,-9.7845,-9.7353,-9.7106,-9.6487,-9.604,-9.5866,-9.5464,-9.5263,-9.5213,-9.4811,-9.461,-9.461,-9.461,-9.461,-9.461,-9.4711,-9.4965,-9.5415,-9.5614,-9.5803,-9.6007,-9.617,-9.6153,-9.5621,-9.4137,-9.1884,-8.9128,-8.8176,-8.6709,-8.4432,-8.2015,-7.9976,-7.8536,-7.8311,-7.8272,-7.8153,-7.7731,-7.7166,-7.7087,-7.6524,-7.6224,-7.6185,-7.5924,-7.5625,-7.5273,-7.5156,-7.4961,-7.4687,-7.457,-7.457,-7.457,-7.457,-7.457,-7.457,-7.457,-7.457,-7.4492,-7.4531,-7.4531,-7.4492,-7.4453,-7.4258,-7.3906,-7.3759,-7.3376,-7.2799,-7.2181,-7.1194,-6.9291,-6.7105,-6.4523,-6.1275,-5.8618,-5.6425,-5.461,-5.291,-5.1603,-5.0917,-5.0688,-5.0438,-16.8229,-16.7309,-16.4594,-16.1035,-15.7616,-15.5089,-15.1466,-14.7348,-14.4644,-14.2396,-14.0441,-13.7382,-13.5378,-13.3938,-13.25,-13.1603,-13.0885,-13.0048,-12.8974,-12.7842,-12.6952,-12.5233,-12.2752,-12.022,-11.7741,-11.5,-11.1871,-10.9132,-10.6612,-10.5193,-10.3663,-10.2168,-10.1623,-10.1044,-10.045,-9.9742,-9.8893,-9.7671,-9.7106,-9.6538,-9.5916,-9.5866,-9.5815,-9.5815,-9.5765,-9.5765,-9.5665,-9.5765,-9.5715,-9.5765,-9.6167,-9.6644,-9.7195,-9.7697,-9.8299,-9.8822,-9.9193,-9.8971,-9.7708,-9.625,-9.4374,-9.2203,-9.1612,-8.9994,-8.699,-8.5896,-8.4275,-8.2068,-8.1397,-8.0905,-8.0617,-7.9885,-7.9397,-7.8789,-7.7817,-7.69,-7.6781,-7.5935,-7.5273,-7.5234,-7.5024,-7.4648,-7.4609,-7.457,-7.457,-7.457,-7.457,-7.457,-7.457,-7.4531,-7.4414,-7.4219,-7.4336,-7.4375,-7.414,-7.4023,-7.3828,-7.3515,-7.375,-7.3766,-7.3564,-7.3376,-7.2835,-7.1547,-6.9793,-6.7357,-6.5278,-6.2797,-5.9826,-5.7912,-5.5841,-5.3523,-5.1659,-5.1081,-5.1259,-16.9977,-16.9152,-16.667,-16.3275,-15.949,-15.7542,-15.4501,-15.074,-14.7742,-14.547,-14.3414,-14.0195,-13.7699,-13.5631,-13.3461,-13.2262,-13.1544,-13.0526,-12.957,-12.8675,-12.8019,-12.6773,-12.494,-12.276,-12.0349,-11.7747,-11.531,-11.2406,-10.9463,-10.7539,-10.5989,-10.4853,-10.4753,-10.4396,-10.3501,-10.2058,-10.0825,-9.95,-9.8579,-9.7476,-9.6611,-9.6165,-9.5916,-9.5916,-9.5916,-9.5916,-9.5916,-9.5916,-9.5916,-9.5916,-9.6418,-9.697,-9.7523,-9.8075,-9.8778,-9.9582,-9.9883,-9.9643,-9.8596,-9.7643,-9.6344,-9.4569,-9.4089,-9.2735,-9.0735,-8.9963,-8.892,-8.7242,-8.4213,-8.2078,-8.1868,-8.1337,-8.0848,-8.0083,-7.9318,-7.8456,-7.7657,-7.7075,-7.6534,-7.569,-7.5392,-7.4992,-7.475,-7.457,-7.457,-7.457,-7.457,-7.457,-7.457,-7.4375,-7.418,-7.3984,-7.3945,-7.3789,-7.3594,-7.3594,-7.3398,-7.3164,-7.332,-7.3594,-7.3633,-7.3805,-7.3555,-7.308,-7.1547,-6.9899,-6.8359,-6.5923,-6.3376,-6.1453,-5.8701,-5.6048,-5.4345,-5.3019,-5.2307,-17.1107,-17.0092,-16.8063,-16.4833,-16.1025,-15.9574,-15.7058,-15.3777,-15.0821,-14.8412,-14.6381,-14.3262,-14.0672,-13.8247,-13.5094,-13.3043,-13.1963,-13.0826,-12.9928,-12.927,-12.8492,-12.7599,-12.6533,-12.4523,-12.2526,-12.041,-11.8294,-11.536,-11.2086,-11.0375,-10.8976,-10.8283,-10.8431,-10.8046,-10.6911,-10.5369,-10.3864,-10.2259,-10.0939,-9.9604,-9.8306,-9.7163,-9.6441,-9.5916,-9.5916,-9.5916,-9.5916,-9.6066,-9.6117,-9.6167,-9.6769,-9.7372,-9.7774,-9.8276,-9.9079,-10.0084,-9.9933,-9.9673,-9.945,-9.8853,-9.7885,-9.666,-9.5906,-9.4957,-9.3782,-9.2788,-9.2061,-9.1203,-8.747,-8.5132,-8.4583,-8.3956,-8.3286,-8.2611,-8.1722,-8.0502,-7.9583,-7.9032,-7.8064,-7.6813,-7.6394,-7.5694,-7.4852,-7.457,-7.457,-7.457,-7.457,-7.4531,-7.4453,-7.414,-7.3906,-7.3672,-7.332,-7.3203,-7.3164,-7.3125,-7.2969,-7.2734,-7.2851,-7.3125,-7.3203,-7.3594,-7.3984,-7.3414,-7.2862,-7.2371,-7.0865,-6.8826,-6.6495,-6.4673,-6.203,-5.9086,-5.7107,-5.5635,-5.4464,-17.104,-17.0092,-16.8063,-16.5043,-16.172,-16.0958,-15.8843,-15.5616,-15.3036,-15.0892,-14.8907,-14.5801,-14.3662,-14.1974,-13.7451,-13.3948,-13.2203,-13.1305,-13.0586,-12.9808,-12.8671,-12.8073,-12.7836,-12.5343,-12.3812,-12.2819,-12.0476,-11.7621,-11.4554,-11.3756,-11.3132,-11.2441,-11.2326,-11.1814,-11.0734,-10.9769,-10.8396,-10.6012,-10.471,-10.3138,-10.1258,-9.9489,-9.779,-9.6441,-9.5916,-9.5966,-9.6016,-9.6418,-9.6669,-9.6669,-9.7673,-9.8276,-9.8376,-9.8828,-9.9632,-10.0536,-9.9833,-9.9732,-10.0486,-9.9653,-9.8793,-9.8095,-9.7439,-9.6525,-9.5161,-9.4172,-9.338,-9.259,-9.1689,-9.0687,-8.9842,-8.8392,-8.7546,-8.6916,-8.4787,-8.3445,-8.3041,-8.1415,-7.9817,-7.8853,-7.7468,-7.6254,-7.4852,-7.457,-7.457,-7.457,-7.457,-7.4414,-7.4062,-7.3945,-7.3594,-7.3047,-7.2773,-7.2734,-7.2734,-7.2695,-7.25,-7.2344,-7.2461,-7.2734,-7.3008,-7.332,-7.3672,-7.3922,-7.3594,-7.3183,-7.2977,-7.1584,-6.9401,-6.7357,-6.557,-6.3029,-6.0921,-5.9538,-5.8191,-17.0228,-16.8266,-16.7454,-16.5252,-16.2409,-16.1653,-16.0228,-15.8033,-15.551,-15.3614,-15.1969,-14.9219,-14.6646,-14.4307,-14.1553,-13.8198,-13.4543,-13.2502,-13.1302,-13.0521,-12.8966,-12.8073,-12.7953,-12.6225,-12.4923,-12.3694,-12.2402,-12.0181,-11.7334,-11.6464,-11.5823,-11.5177,-11.4696,-11.4118,-11.3271,-11.2309,-11.0733,-10.8739,-10.7465,-10.5759,-10.3486,-10.187,-10.0487,-9.8972,-9.7245,-9.6619,-9.697,-9.7171,-9.7272,-9.7272,-9.7975,-9.8376,-9.8427,-9.923,-9.9883,-10.0234,-9.9933,-9.9883,-10.0184,-9.9632,-9.89,-9.8421,-9.8092,-9.7514,-9.6356,-9.5781,-9.5307,-9.4708,-9.451,-9.4208,-9.3673,-9.1932,-9.0286,-8.9578,-8.8703,-8.7393,-8.6251,-8.492,-8.3445,-8.1279,-7.8674,-7.6394,-7.5554,-7.4852,-7.4492,-7.4258,-7.418,-7.3984,-7.3633,-7.3359,-7.3047,-7.2734,-7.2422,-7.2226,-7.2226,-7.2265,-7.2187,-7.2148,-7.2187,-7.2461,-7.2695,-7.289,-7.3203,-7.375,-7.3642,-7.3953,-7.3569,-7.326,-7.1262,-6.9867,-6.8037,-6.6609,-6.5044,-6.3164,-6.1719,-16.9145,-16.7251,-16.6845,-16.5153,-16.2615,-16.2171,-16.1259,-15.974,-15.754,-15.5873,-15.4464,-15.2216,-14.9665,-14.7055,-14.5352,-14.2435,-13.8285,-13.5037,-13.2839,-13.1521,-12.9906,-12.8954,-12.8304,-12.7284,-12.6038,-12.486,-12.391,-12.2085,-11.9569,-11.869,-11.8041,-11.7333,-11.6771,-11.6129,-11.5463,-11.4612,-11.3382,-11.1869,-11.062,-10.8892,-10.6897,-10.4945,-10.3548,-10.2132,-9.9859,-9.833,-9.7953,-9.7851,-9.7824,-9.7924,-9.8326,-9.8627,-9.8728,-9.9331,-9.9833,-9.9983,-9.9833,-9.9833,-9.9883,-9.9331,-9.8728,-9.8376,-9.8025,-9.7472,-9.6769,-9.6569,-9.6267,-9.6016,-9.5916,-9.5916,-9.5491,-9.4236,-9.2793,-9.2156,-9.1596,-9.0825,-8.9401,-8.8227,-8.5985,-8.2863,-7.9912,-7.7607,-7.6214,-7.5295,-7.4678,-7.4124,-7.3867,-7.3594,-7.3164,-7.289,-7.2617,-7.2461,-7.2226,-7.207,-7.207,-7.2109,-7.2109,-7.2031,-7.2031,-7.2226,-7.2383,-7.2539,-7.2851,-7.3398,-7.3828,-7.414,-7.4234,-7.4108,-7.3222,-7.1973,-7.0963,-6.9488,-6.8027,-6.6642,-6.5159,-16.786,-16.7048,-16.6304,-16.4747,-16.2785,-16.248,-16.177,-16.0215,-15.8931,-15.758,-15.6124,-15.4496,-15.2363,-15.027,-14.7973,-14.5729,-14.2955,-13.8985,-13.551,-13.3082,-13.2004,-13.059,-12.9182,-12.8167,-12.6979,-12.5683,-12.4721,-12.3052,-12.1147,-12.032,-11.9714,-11.9106,-11.8459,-11.7824,-11.7328,-11.6991,-11.6611,-11.5274,-11.3982,-11.2846,-11.158,-10.8685,-10.6849,-10.5834,-10.3573,-10.1298,-9.9063,-9.8635,-9.8504,-9.8555,-9.8828,-9.918,-9.913,-9.923,-9.9431,-9.9783,-9.9481,-9.9481,-9.9783,-9.9029,-9.8527,-9.8176,-9.7422,-9.692,-9.6619,-9.6217,-9.5966,-9.5916,-9.5916,-9.5916,-9.5916,-9.5666,-9.5291,-9.4865,-9.3604,-9.2793,-9.2283,-9.0872,-8.8142,-8.4252,-8.1551,-7.9267,-7.7387,-7.6074,-7.51,-7.4524,-7.3832,-7.3302,-7.2911,-7.2754,-7.2461,-7.2187,-7.2031,-7.1992,-7.1992,-7.1992,-7.1992,-7.1992,-7.1992,-7.207,-7.2187,-7.2305,-7.2539,-7.3047,-7.3555,-7.3867,-7.4062,-7.3899,-7.3681,-7.2723,-7.225,-7.1779,-7.0307,-6.8919,-6.8139,-16.8198,-16.7115,-16.6845,-16.5153,-16.2785,-16.2582,-16.177,-16.035,-15.9404,-15.8257,-15.7112,-15.59,-15.4084,-15.2,-15.0418,-14.8582,-14.6112,-14.3518,-13.9937,-13.5567,-13.3429,-13.1812,-13.0299,-12.8754,-12.6853,-12.5015,-12.4362,-12.3345,-12.2028,-12.119,-12.0532,-11.9993,-11.9694,-11.9226,-11.8589,-11.8529,-11.8201,-11.7371,-11.6182,-11.4944,-11.3644,-11.1467,-11.007,-10.912,-10.6924,-10.4942,-10.3731,-10.107,-9.9698,-9.9698,-9.9337,-9.918,-9.918,-9.918,-9.928,-9.9381,-9.928,-9.923,-9.9381,-9.913,-9.8577,-9.7924,-9.7472,-9.692,-9.6267,-9.6016,-9.5916,-9.5916,-9.5916,-9.5916,-9.5916,-9.5916,-9.5791,-9.5666,-9.5116,-9.4614,-9.3983,-9.2076,-8.9448,-8.6648,-8.3939,-8.1687,-7.987,-7.8206,-7.66,-7.5727,-7.4679,-7.3557,-7.3026,-7.2675,-7.2187,-7.2031,-7.1992,-7.1992,-7.1992,-7.1992,-7.1992,-7.1992,-7.1992,-7.1992,-7.207,-7.2109,-7.2344,-7.2695,-7.3203,-7.3555,-7.3711,-7.3649,-7.3471,-7.3354,-7.292,-7.2333,-7.1709,-7.0812,-6.9719,-16.9075,-16.8055,-16.7921,-16.6217,-16.3564,-16.3496,-16.2479,-16.072,-16.0245,-15.9132,-15.7785,-15.7145,-15.5531,-15.3386,-15.2315,-15.0712,-14.8546,-14.6685,-14.3484,-13.9256,-13.6293,-13.4089,-13.1917,-12.916,-12.6793,-12.4835,-12.4243,-12.3584,-12.2567,-12.1669,-12.1011,-12.0652,-12.0352,-11.9993,-11.9634,-11.9574,-11.9355,-11.8906,-11.8058,-11.7157,-11.6205,-11.4735,-11.3647,-11.2665,-11.0672,-10.9242,-10.8399,-10.5055,-10.2344,-10.1101,-10.008,-9.9566,-9.9566,-9.9309,-9.918,-9.918,-9.918,-9.918,-9.918,-9.8979,-9.8627,-9.7924,-9.7472,-9.697,-9.6317,-9.6066,-9.5916,-9.5916,-9.5916,-9.5916,-9.5916,-9.5916,-9.5916,-9.5916,-9.5791,-9.5666,-9.4789,-9.3223,-9.113,-8.888,-8.678,-8.4653,-8.2414,-8.076,-7.8666,-7.753,-7.6035,-7.4369,-7.3778,-7.2846,-7.2535,-7.2128,-7.1992,-7.1992,-7.1992,-7.1992,-7.1992,-7.1992,-7.1992,-7.1992,-7.2031,-7.2031,-7.2187,-7.2539,-7.3008,-7.3242,-7.3398,-7.3437,-7.3299,-7.3281,-7.3047,-7.242,-7.1757,-7.1564,-7.0709,-17.0302,-16.9647,-16.9386,-16.7771,-16.5385,-16.5081,-16.3769,-16.1721,-16.1183,-16.0101,-15.8686,-15.8081,-15.6831,-15.4907,-15.3405,-15.2033,-15.0553,-14.8269,-14.622,-14.3765,-14.0664,-13.7529,-13.3641,-12.996,-12.7263,-12.5369,-12.4482,-12.3824,-12.3046,-12.2028,-12.125,-12.1071,-12.0712,-12.0293,-12.0293,-12.0293,-12.0293,-12.0012,-11.9621,-11.917,-11.9059,-11.8052,-11.709,-11.6521,-11.4678,-11.3335,-11.2397,-10.9617,-10.6203,-10.2795,-10.133,-10.0821,-10.0386,-9.9745,-9.9667,-9.9488,-9.9309,-9.918,-9.9079,-9.8828,-9.8477,-9.8276,-9.7523,-9.6769,-9.6769,-9.6368,-9.6066,-9.6016,-9.5966,-9.5916,-9.5916,-9.5916,-9.5916,-9.5916,-9.5916,-9.5666,-9.499,-9.4236,-9.2793,-9.113,-8.9578,-8.7833,-8.5276,-8.381,-8.1903,-8.0,-7.837,-7.6528,-7.5073,-7.4143,-7.2982,-7.2535,-7.2264,-7.2128,-7.2128,-7.1992,-7.1992,-7.1992,-7.1992,-7.1992,-7.1992,-7.1992,-7.2031,-7.2383,-7.2656,-7.289,-7.2969,-7.2969,-7.289,-7.2734,-7.2461,-7.2148,-7.1914,-7.1583,-7.1214,-17.1939,-17.1151,-17.1039,-16.9651,-16.7379,-16.6471,-16.5425,-16.4008,-16.221,-16.1098,-15.9988,-15.8529,-15.7178,-15.5519,-15.4154,-15.2985,-15.1807,-15.0265,-14.8804,-14.7132,-14.4666,-13.9288,-13.3896,-13.0659,-12.8084,-12.6005,-12.5129,-12.4302,-12.3225,-12.2746,-12.2088,-12.125,-12.149,-12.137,-12.1011,-12.0951,-12.0951,-12.0831,-12.0302,-12.0012,-11.9962,-11.9237,-11.8731,-11.8507,-11.7265,-11.6179,-11.5429,-11.3038,-10.9243,-10.4875,-10.4071,-10.3315,-10.2556,-10.2174,-10.1382,-10.0258,-9.9951,-9.9695,-9.9309,-9.9029,-9.8778,-9.8427,-9.8075,-9.7774,-9.7372,-9.682,-9.6569,-9.6418,-9.6167,-9.5916,-9.5916,-9.5916,-9.5916,-9.5916,-9.5916,-9.5791,-9.5491,-9.499,-9.411,-9.3096,-9.1772,-9.0356,-8.8917,-8.7157,-8.5305,-8.372,-8.1474,-7.8882,-7.7474,-7.5756,-7.4695,-7.3348,-7.2807,-7.24,-7.2264,-7.2128,-7.1992,-7.1992,-7.1992,-7.1992,-7.1992,-7.1992,-7.2031,-7.2148,-7.2265,-7.2461,-7.2344,-7.2265,-7.2187,-7.2305,-7.2109,-7.1914,-7.164,-7.1406,-7.1037,-17.4796,-17.4038,-17.4049,-17.269,-17.0518,-16.9035,-16.7582,-16.5925,-16.3982,-16.2294,-16.1113,-15.9439,-15.7773,-15.6258,-15.5072,-15.4173,-15.3195,-15.1649,-14.9984,-14.817,-14.5357,-14.0197,-13.4691,-13.1846,-12.9525,-12.6935,-12.5945,-12.4769,-12.3704,-12.3285,-12.2567,-12.1849,-12.1968,-12.1968,-12.1669,-12.1609,-12.1609,-12.1549,-12.119,-12.1011,-12.1011,-12.0678,-12.0567,-12.0344,-11.9559,-11.8649,-11.7331,-11.5948,-11.3027,-10.9164,-10.734,-10.6242,-10.5158,-10.428,-10.3137,-10.1608,-10.1176,-10.0719,-9.9823,-9.9566,-9.9286,-9.8856,-9.8527,-9.8226,-9.7874,-9.7422,-9.7071,-9.6719,-9.6418,-9.6167,-9.5916,-9.5916,-9.6016,-9.6217,-9.6066,-9.5916,-9.5916,-9.5541,-9.499,-9.4362,-9.3604,-9.2715,-9.1772,-9.0153,-8.8756,-8.7134,-8.4979,-8.2527,-8.0206,-7.8278,-7.6433,-7.5097,-7.3753,-7.3348,-7.2671,-7.24,-7.1992,-7.1992,-7.1992,-7.1992,-7.1992,-7.1992,-7.1992,-7.2031,-7.1992,-7.1992,-7.1992,-7.1992,-7.2031,-7.2031,-7.1875,-7.1601,-7.1289,-7.1015,-7.0781,-17.8042,-17.7341,-17.7463,-17.6077,-17.3766,-17.2181,-17.0191,-16.8052,-16.5925,-16.4029,-16.226,-16.0748,-15.9068,-15.7226,-15.6159,-15.5318,-15.4542,-15.2409,-15.0417,-14.8142,-14.5122,-14.0856,-13.6468,-13.3834,-13.1217,-12.8427,-12.6807,-12.5584,-12.453,-12.3817,-12.3046,-12.2507,-12.2327,-12.2208,-12.2088,-12.2088,-12.2148,-12.2088,-12.2028,-12.1909,-12.1909,-12.1797,-12.1797,-12.1685,-12.1349,-12.0495,-11.9347,-11.8487,-11.7047,-11.385,-11.1114,-10.9626,-10.8581,-10.6809,-10.532,-10.4026,-10.3119,-10.2188,-10.0922,-10.0795,-10.0463,-9.9928,-9.9445,-9.881,-9.8964,-9.861,-9.7978,-9.7222,-9.6895,-9.6593,-9.6217,-9.6066,-9.6317,-9.6518,-9.6267,-9.6016,-9.5916,-9.5916,-9.5666,-9.5116,-9.499,-9.4362,-9.3604,-9.2921,-9.209,-9.0044,-8.8019,-8.5613,-8.3348,-8.1212,-7.8988,-7.6923,-7.5592,-7.4292,-7.3483,-7.2671,-7.2264,-7.1992,-7.1992,-7.1992,-7.1992,-7.1992,-7.1992,-7.1992,-7.1992,-7.1992,-7.1992,-7.1992,-7.1914,-7.1758,-7.1562,-7.1172,-7.0781,-7.0547,-7.0312,-17.9334,-17.8512,-17.8528,-17.7436,-17.5688,-17.3712,-17.2522,-17.169,-16.7925,-16.5772,-16.4326,-16.229,-16.0703,-15.9526,-15.7526,-15.6082,-15.5276,-15.3095,-15.0864,-14.8429,-14.612,-14.3205,-13.948,-13.6341,-13.302,-13.0278,-12.8305,-12.6867,-12.5758,-12.4883,-12.4063,-12.3105,-12.2926,-12.2687,-12.2268,-12.2268,-12.2208,-12.2208,-12.2208,-12.2208,-12.2208,-12.2208,-12.2208,-12.2208,-12.2096,-12.1812,-12.1468,-12.0958,-12.0273,-11.8953,-11.6524,-11.4128,-11.2593,-11.1484,-10.9661,-10.7469,-10.6005,-10.4807,-10.3567,-10.3046,-10.2566,-10.2366,-10.2136,-10.1855,-10.1351,-10.0888,-9.9872,-9.8557,-9.7725,-9.7272,-9.6795,-9.697,-9.7021,-9.687,-9.6669,-9.6368,-9.6016,-9.5916,-9.5791,-9.5666,-9.5666,-9.5541,-9.5116,-9.4614,-9.371,-9.2628,-9.0779,-8.8713,-8.6365,-8.402,-8.1816,-7.9515,-7.7585,-7.6259,-7.4829,-7.3888,-7.3077,-7.2671,-7.2535,-7.2146,-7.2146,-7.205,-7.2011,-7.205,-7.1992,-7.1953,-7.1875,-7.164,-7.1484,-7.1328,-7.1172,-7.0781,-7.043,-7.0195,-6.9961,-18.1145,-18.0285,-18.0073,-17.9198,-17.7588,-17.5471,-17.4297,-17.3263,-16.983,-16.7554,-16.636,-16.4158,-16.2639,-16.1632,-15.948,-15.78,-15.6048,-15.3199,-15.0934,-14.9077,-14.7136,-14.4848,-14.2506,-13.922,-13.5888,-13.2108,-12.9921,-12.8285,-12.6738,-12.5818,-12.4883,-12.3704,-12.3644,-12.3285,-12.2746,-12.2627,-12.2447,-12.2208,-12.2208,-12.2208,-12.2208,-12.2208,-12.2208,-12.2208,-12.2208,-12.2208,-12.2036,-12.1812,-12.17,-12.1302,-12.0041,-11.8203,-11.6174,-11.501,-11.3202,-11.1039,-10.9803,-10.8254,-10.691,-10.6046,-10.5444,-10.4682,-10.4558,-10.4098,-10.3619,-10.3003,-10.2015,-10.0623,-9.9565,-9.8608,-9.7599,-9.7422,-9.7422,-9.7472,-9.7021,-9.6619,-9.6317,-9.6066,-9.5916,-9.5916,-9.5916,-9.5916,-9.5666,-9.5416,-9.499,-9.3786,-9.2825,-9.0764,-8.9267,-8.693,-8.4642,-8.2368,-8.0211,-7.8245,-7.6657,-7.5365,-7.4023,-7.3618,-7.3388,-7.2919,-7.2491,-7.226,-7.2164,-7.2029,-7.1758,-7.168,-7.1562,-7.1328,-7.1055,-7.0976,-7.0742,-7.043,-7.0156,-6.9922,-6.9726,-18.2652,-18.1847,-18.1407,-18.0527,-17.9137,-17.6942,-17.5557,-17.4534,-17.162,-16.958,-16.826,-16.6199,-16.4575,-16.3232,-16.1283,-15.9438,-15.6636,-15.391,-15.1479,-14.9915,-14.8025,-14.6177,-14.4178,-14.1752,-13.8768,-13.4179,-13.1876,-12.9832,-12.8091,-12.6902,-12.6323,-12.5043,-12.4696,-12.4501,-12.3847,-12.3331,-12.3031,-12.2499,-12.2208,-12.2208,-12.2208,-12.2208,-12.2208,-12.2208,-12.2208,-12.2208,-12.2208,-12.2208,-12.2208,-12.2208,-12.2208,-12.1064,-11.9406,-11.7797,-11.6468,-11.4497,-11.3623,-11.2216,-11.0661,-10.9815,-10.9042,-10.7209,-10.7278,-10.6832,-10.6211,-10.5507,-10.4505,-10.2708,-10.1278,-9.9699,-9.8709,-9.8176,-9.8075,-9.8075,-9.7472,-9.697,-9.6669,-9.6267,-9.6117,-9.5916,-9.5916,-9.5916,-9.5916,-9.5791,-9.5416,-9.5091,-9.4069,-9.2928,-9.1394,-8.9588,-8.7216,-8.5173,-8.301,-8.0427,-7.8597,-7.7104,-7.5818,-7.5027,-7.4667,-7.3889,-7.3113,-7.2671,-7.2403,-7.1754,-7.1484,-7.1367,-7.1172,-7.0898,-7.0703,-7.0586,-7.0351,-7.0,-6.9805,-6.9648,-6.957,-18.28,-18.1406,-18.1331,-18.0378,-17.8837,-17.7076,-17.6201,-17.562,-17.3067,-17.1319,-17.0084,-16.8057,-16.6167,-16.4417,-16.2281,-15.943,-15.6625,-15.4432,-15.2644,-15.0783,-14.9001,-14.728,-14.5754,-14.3669,-14.1283,-13.8345,-13.4968,-13.2115,-13.061,-12.9516,-12.8595,-12.7945,-12.738,-12.6609,-12.5425,-12.4447,-12.3891,-12.3074,-12.2611,-12.2379,-12.2208,-12.2208,-12.2208,-12.2208,-12.2208,-12.2208,-12.2208,-12.2208,-12.2208,-12.2208,-12.2208,-12.1864,-12.1177,-12.0198,-11.8884,-11.7737,-11.6584,-11.5428,-11.432,-11.3797,-11.3339,-11.2596,-11.2075,-11.1324,-11.017,-10.9057,-10.7351,-10.4728,-10.2232,-10.0155,-9.9269,-9.8961,-9.8627,-9.8477,-9.8125,-9.7673,-9.697,-9.6619,-9.6317,-9.5966,-9.5916,-9.5866,-9.5866,-9.5815,-9.559,-9.5041,-9.4291,-9.3545,-9.2557,-9.1029,-8.9236,-8.748,-8.5804,-8.3092,-8.0514,-7.9036,-7.777,-7.699,-7.6338,-7.5431,-7.4566,-7.3255,-7.2592,-7.1794,-7.1166,-7.0859,-7.0664,-7.043,-7.0273,-7.0156,-6.9883,-6.957,-6.957,-6.9531,-6.9531,-18.2359,-18.1257,-18.089,-18.0009,-17.8688,-17.7073,-17.6412,-17.6045,-17.3708,-17.2172,-17.1081,-16.9128,-16.7026,-16.5076,-16.3488,-16.0713,-15.7821,-15.5947,-15.4105,-15.2067,-15.0188,-14.8898,-14.7302,-14.5262,-14.3547,-14.1333,-13.8249,-13.4956,-13.2771,-13.1813,-13.098,-13.0206,-12.9755,-12.9043,-12.7867,-12.6917,-12.5486,-12.4447,-12.3529,-12.2843,-12.232,-12.2208,-12.2148,-12.2208,-12.2208,-12.2208,-12.2208,-12.2208,-12.2208,-12.2208,-12.2208,-12.2208,-12.1976,-12.1573,-12.0886,-12.0037,-11.9288,-11.8543,-11.7624,-11.6989,-11.6122,-11.5142,-11.4911,-11.4049,-11.2902,-11.1637,-10.9891,-10.6695,-10.4083,-10.1774,-10.0615,-9.9928,-9.9415,-9.8957,-9.8577,-9.8025,-9.7372,-9.697,-9.6468,-9.6016,-9.5916,-9.5866,-9.5815,-9.5715,-9.5514,-9.5062,-9.4409,-9.3863,-9.3418,-9.2159,-9.049,-8.9215,-8.7604,-8.5552,-8.3175,-8.1843,-8.0378,-7.947,-7.8478,-7.7446,-7.6069,-7.4993,-7.3182,-7.1621,-7.1174,-7.075,-7.0273,-7.0078,-6.9922,-6.9765,-6.9609,-6.9492,-6.9453,-6.9453,-6.9453,-18.1918,-18.0964,-18.0377,-17.9569,-17.8468,-17.7073,-17.6265,-17.5751,-17.399,-17.2742,-17.1934,-16.9754,-16.7498,-16.5684,-16.4113,-16.2112,-15.9286,-15.7748,-15.5732,-15.3541,-15.182,-15.053,-14.9081,-14.7093,-14.5129,-14.3742,-14.1594,-13.8377,-13.5567,-13.4442,-13.3548,-13.3066,-13.2602,-13.165,-13.0598,-12.9553,-12.7852,-12.6318,-12.4889,-12.3923,-12.2997,-12.2483,-12.2371,-12.226,-12.226,-12.2208,-12.2208,-12.2208,-12.2208,-12.2208,-12.2208,-12.2208,-12.2208,-12.2208,-12.1984,-12.1647,-12.1534,-12.0909,-12.0105,-11.9292,-11.836,-11.7488,-11.6677,-11.598,-11.4893,-11.3417,-11.1462,-10.8278,-10.5737,-10.3639,-10.1833,-10.0668,-9.9951,-9.9337,-9.8778,-9.8276,-9.7673,-9.7171,-9.6619,-9.6267,-9.5966,-9.5715,-9.5564,-9.5464,-9.5263,-9.4711,-9.4108,-9.3807,-9.3312,-9.269,-9.1343,-9.049,-8.9215,-8.7604,-8.6041,-8.5087,-8.3725,-8.2604,-8.1441,-8.0326,-7.8545,-7.676,-7.4758,-7.3,-7.1563,-7.1239,-7.0463,-6.9765,-6.9648,-6.957,-6.9492,-6.9453,-6.9453,-6.9453,-6.9453,-18.1625,-18.023,-18.0083,-17.9202,-17.7807,-17.6779,-17.5972,-17.5238,-17.421,-17.3035,-17.164,-16.9811,-16.8123,-16.6302,-16.457,-16.2433,-16.051,-15.9152,-15.7416,-15.5151,-15.3483,-15.2292,-15.1165,-14.9203,-14.7008,-14.5487,-14.3841,-14.1354,-13.8571,-13.7464,-13.7169,-13.6608,-13.5806,-13.5042,-13.3611,-13.2202,-13.0222,-12.879,-12.7098,-12.5787,-12.4585,-12.3589,-12.3148,-12.2816,-12.2483,-12.2208,-12.2208,-12.2208,-12.2208,-12.2208,-12.2208,-12.2208,-12.2208,-12.2208,-12.2208,-12.2096,-12.2096,-12.2096,-12.158,-12.076,-12.0225,-11.9288,-11.8745,-11.8091,-11.6626,-11.4831,-11.2903,-11.0762,-10.7798,-10.5123,-10.3067,-10.1303,-10.0208,-9.9438,-9.9029,-9.8427,-9.7824,-9.7472,-9.692,-9.6117,-9.5715,-9.5363,-9.5112,-9.5062,-9.4911,-9.4359,-9.3857,-9.3556,-9.3254,-9.2561,-9.219,-9.1343,-9.0856,-8.9338,-8.8357,-8.7528,-8.6482,-8.5412,-8.411,-8.2783,-8.0947,-7.8979,-7.688,-7.5017,-7.3434,-7.1793,-7.088,-7.0318,-6.9715,-6.9453,-6.9453,-6.9453,-6.9453,-6.9453,-6.9453,-18.1097,-18.0009,-17.9128,-17.8321,-17.7587,-17.6265,-17.5531,-17.5017,-17.3843,-17.2668,-17.1347,-16.9365,-16.7382,-16.5555,-16.4396,-16.2893,-16.1183,-16.0275,-15.878,-15.663,-15.5099,-15.3887,-15.2805,-15.0798,-14.8767,-14.7136,-14.5493,-14.3702,-14.16,-13.9937,-13.9178,-13.8794,-13.8311,-13.7497,-13.6515,-13.5217,-13.3406,-13.1298,-12.901,-12.7201,-12.625,-12.5189,-12.4185,-12.3528,-12.2927,-12.2483,-12.226,-12.2208,-12.2208,-12.2208,-12.2208,-12.2208,-12.2208,-12.2208,-12.2208,-12.2208,-12.2208,-12.2208,-12.2088,-12.125,-12.0652,-12.0113,-11.9335,-11.8171,-11.7219,-11.6058,-11.4268,-11.2097,-10.9823,-10.7075,-10.426,-10.2314,-10.0668,-9.9823,-9.918,-9.8477,-9.7924,-9.7673,-9.7171,-9.6267,-9.5414,-9.5062,-9.466,-9.4309,-9.4158,-9.3857,-9.3405,-9.3053,-9.2903,-9.2702,-9.2481,-9.219,-9.1827,-9.1221,-9.0389,-8.9511,-8.8538,-8.7447,-8.5999,-8.4725,-8.3204,-8.131,-7.9246,-7.7375,-7.5949,-7.4167,-7.2109,-7.0721,-7.0108,-6.9715,-6.9453,-6.9453,-6.9453,-6.9453,-6.9453,-18.0319,-17.9338,-17.8171,-17.7513,-17.7,-17.5751,-17.4944,-17.443,-17.3329,-17.2228,-17.0833,-16.8777,-16.6428,-16.4739,-16.4079,-16.3003,-16.1561,-16.0938,-15.9522,-15.7901,-15.6627,-15.569,-15.4438,-15.2563,-15.0598,-14.8756,-14.7228,-14.5365,-14.3669,-14.2218,-14.103,-14.0286,-14.0192,-13.9559,-13.8794,-13.7791,-13.6218,-13.3838,-13.1389,-12.9724,-12.8618,-12.69,-12.5543,-12.4403,-12.3528,-12.2816,-12.226,-12.2208,-12.2208,-12.2208,-12.2208,-12.2208,-12.2208,-12.2208,-12.2208,-12.2208,-12.2208,-12.2208,-12.1909,-12.131,-12.0592,-12.0053,-11.9275,-11.828,-11.7655,-11.6999,-11.5725,-11.336,-11.1229,-10.8223,-10.5246,-10.3067,-10.1176,-9.9951,-9.918,-9.8477,-9.7874,-9.7673,-9.7121,-9.6117,-9.5313,-9.4711,-9.4208,-9.3606,-9.3304,-9.3204,-9.2903,-9.2601,-9.2551,-9.2601,-9.2601,-9.2431,-9.231,-9.2069,-9.1699,-9.0889,-9.0223,-8.9221,-8.7839,-8.652,-8.5065,-8.3555,-8.1674,-8.0009,-7.8323,-7.6107,-7.3879,-7.2211,-7.05,-7.0108,-6.9715,-6.9453,-6.9453,-6.9453,-6.9453,-17.9171,-17.7594,-17.7647,-17.6779,-17.5458,-17.5311,-17.4357,-17.3182,-17.2815,-17.1714,-17.0025,-16.8043,-16.6061,-16.4519,-16.3565,-16.2831,-16.1739,-16.0755,-15.9754,-15.8841,-15.8083,-15.7189,-15.6054,-15.4608,-15.2707,-15.0611,-14.8884,-14.7061,-14.5326,-14.4076,-14.3112,-14.2466,-14.1673,-14.1215,-14.0499,-13.9464,-13.8207,-13.6321,-13.4265,-13.2826,-13.1146,-12.9048,-12.68,-12.5482,-12.3967,-12.2816,-12.226,-12.2208,-12.2208,-12.2208,-12.2208,-12.2208,-12.2208,-12.2208,-12.2208,-12.2208,-12.2208,-12.2208,-12.1968,-12.149,-12.113,-12.0712,-11.9934,-11.8737,-11.8041,-11.7546,-11.628,-11.4494,-11.2271,-10.9176,-10.6049,-10.339,-10.1557,-10.008,-9.9208,-9.8527,-9.7975,-9.7673,-9.7071,-9.6016,-9.5263,-9.4761,-9.4309,-9.3807,-9.3104,-9.2953,-9.2852,-9.2551,-9.2551,-9.2551,-9.2551,-9.2551,-9.2551,-9.2431,-9.233,-9.1659,-9.0551,-8.9884,-8.8883,-8.7917,-8.6916,-8.5372,-8.3895,-8.2103,-8.0197,-7.7974,-7.5746,-7.4173,-7.2514,-7.0902,-7.0108,-6.9715,-6.9453,-6.9453,-6.9453,-17.9201,-17.7602,-17.7063,-17.6166,-17.5164,-17.4136,-17.3402,-17.2668,-17.1714,-17.0099,-16.819,-16.7162,-16.562,-16.4005,-16.3345,-16.239,-16.1289,-16.0794,-15.9996,-15.9428,-15.8746,-15.8284,-15.7313,-15.6043,-15.4256,-15.2296,-15.0608,-14.859,-14.6447,-14.5622,-14.4678,-14.3815,-14.2846,-14.2037,-14.1307,-14.0593,-13.9444,-13.8309,-13.6824,-13.5366,-13.349,-13.1271,-12.8912,-12.7115,-12.5052,-12.3638,-12.2816,-12.2371,-12.232,-12.2208,-12.2208,-12.2208,-12.2208,-12.2208,-12.2208,-12.2208,-12.2208,-12.2208,-12.2088,-12.1549,-12.0891,-11.9993,-11.9395,-11.8916,-11.8318,-11.7981,-11.6999,-11.5168,-11.3189,-11.0355,-10.69,-10.426,-10.2188,-10.0463,-9.9314,-9.8605,-9.8025,-9.775,-9.7021,-9.6016,-9.5414,-9.4911,-9.451,-9.4158,-9.3405,-9.2752,-9.2652,-9.2551,-9.2551,-9.2551,-9.2551,-9.2551,-9.2551,-9.2501,-9.2401,-9.1748,-9.0994,-9.0375,-8.9756,-8.8838,-8.7923,-8.7343,-8.5713,-8.3963,-8.2329,-8.0473,-7.8424,-7.6408,-7.4466,-7.235,-7.0912,-6.9977,-6.9715,-6.9506,-6.9428,-17.9354,-17.7693,-17.6711,-17.5815,-17.4857,-17.3471,-17.2668,-17.2228,-17.1053,-16.9071,-16.6868,-16.6722,-16.5474,-16.3712,-16.2831,-16.2097,-16.0922,-16.0408,-16.0041,-15.9547,-15.9208,-15.8876,-15.8184,-15.6924,-15.5303,-15.3751,-15.1958,-14.9926,-14.8362,-14.7174,-14.6283,-14.5203,-14.4076,-14.32,-14.2195,-14.1399,-14.067,-14.0043,-13.8739,-13.7332,-13.5639,-13.3002,-13.0687,-12.8503,-12.6378,-12.462,-12.3528,-12.2816,-12.2371,-12.232,-12.2208,-12.2208,-12.2208,-12.2208,-12.2208,-12.2208,-12.2148,-12.2148,-12.2028,-12.149,-12.0712,-11.9934,-11.9335,-11.8856,-11.8437,-11.8198,-11.7328,-11.5614,-11.3758,-11.1521,-10.7864,-10.5246,-10.3067,-10.143,-9.9775,-9.8938,-9.8078,-9.7625,-9.6845,-9.6016,-9.5514,-9.5012,-9.4761,-9.4409,-9.3807,-9.3204,-9.3003,-9.2852,-9.2551,-9.2551,-9.2551,-9.2551,-9.2551,-9.2451,-9.23,-9.1547,-9.0844,-9.0342,-8.9723,-8.9155,-8.8406,-8.7891,-8.7262,-8.5526,-8.4021,-8.2798,-8.1054,-7.8833,-7.6146,-7.3417,-7.2058,-7.0801,-7.0204,-6.9955,-6.9387,-17.9607,-17.7721,-17.6872,-17.5842,-17.4596,-17.3387,-17.2369,-17.177,-17.0674,-16.9058,-16.7001,-16.678,-16.5392,-16.3409,-16.2308,-16.1362,-16.0628,-15.9894,-15.9601,-15.9464,-15.9464,-15.9199,-15.8567,-15.7438,-15.6309,-15.5124,-15.3368,-15.1739,-15.0525,-14.905,-14.7896,-14.6783,-14.5539,-14.4162,-14.3268,-14.2735,-14.2466,-14.2105,-14.0306,-13.8888,-13.7211,-13.4471,-13.203,-12.9924,-12.7741,-12.5848,-12.462,-12.3589,-12.3148,-12.2816,-12.2371,-12.2371,-12.226,-12.2088,-12.2028,-12.2088,-12.2028,-12.2028,-12.2028,-12.149,-12.0652,-11.9993,-11.9395,-11.8916,-11.8378,-11.809,-11.7655,-11.6058,-11.4494,-11.2041,-10.9057,-10.6347,-10.4507,-10.2608,-10.0916,-9.9497,-9.871,-9.7676,-9.6945,-9.6316,-9.5688,-9.5062,-9.4911,-9.466,-9.4158,-9.3706,-9.3455,-9.3154,-9.2802,-9.2702,-9.2752,-9.2501,-9.2451,-9.225,-9.1999,-9.1346,-9.0693,-9.0191,-8.9689,-8.9071,-8.8569,-8.8003,-8.7308,-8.6501,-8.5253,-8.373,-8.243,-8.0986,-7.8589,-7.6208,-7.3207,-7.1648,-7.1059,-7.059,-7.0368,-17.9973,-17.8776,-17.7232,-17.6094,-17.5115,-17.3434,-17.2361,-17.1606,-17.0415,-16.9011,-16.7555,-16.6352,-16.4476,-16.2857,-16.1637,-16.0702,-15.9968,-15.9821,-15.9527,-15.9527,-15.9527,-15.9464,-15.8896,-15.8173,-15.7103,-15.6059,-15.4516,-15.3047,-15.1866,-15.0598,-14.9575,-14.8516,-14.6459,-14.4593,-14.3533,-14.2824,-14.242,-14.1811,-14.053,-13.9431,-13.8174,-13.578,-13.3503,-13.1771,-12.9319,-12.7533,-12.6122,-12.5052,-12.4185,-12.3809,-12.3369,-12.2816,-12.2585,-12.2243,-12.1549,-12.143,-12.125,-12.0891,-12.0712,-12.0233,-11.9814,-11.9515,-11.9275,-11.8796,-11.8318,-11.8198,-11.7546,-11.6611,-11.5168,-11.3189,-11.1289,-10.8581,-10.6482,-10.4468,-10.2746,-10.0915,-9.9653,-9.8299,-9.7269,-9.674,-9.6111,-9.5688,-9.5464,-9.5263,-9.4811,-9.4409,-9.4158,-9.3606,-9.3204,-9.3104,-9.3053,-9.2551,-9.23,-9.2049,-9.1647,-9.0994,-9.0492,-9.004,-8.9488,-8.8935,-8.8433,-8.7981,-8.7265,-8.641,-8.5572,-8.4511,-8.3587,-8.2489,-8.1216,-7.9102,-7.6465,-7.3991,-7.2955,-7.2454,-7.2032,-18.0418,-17.9309,-17.7896,-17.6615,-17.5397,-17.3528,-17.2293,-17.1426,-17.0298,-16.9272,-16.7903,-16.6082,-16.4307,-16.2793,-16.1449,-16.0325,-15.9601,-15.9527,-15.9527,-15.9527,-15.9527,-15.9464,-15.9233,-15.872,-15.764,-15.6654,-15.553,-15.4275,-15.3082,-15.2071,-15.0884,-14.9201,-14.7104,-14.5371,-14.4076,-14.3112,-14.242,-14.1879,-14.1113,-14.0192,-13.8736,-13.7029,-13.5171,-13.3283,-13.1314,-12.9686,-12.8258,-12.701,-12.5848,-12.5375,-12.4511,-12.3638,-12.3127,-12.2275,-12.1472,-12.1121,-12.0652,-12.0233,-11.9814,-11.9634,-11.9275,-11.8856,-11.8856,-11.8677,-11.8318,-11.8198,-11.7873,-11.694,-11.5948,-11.4831,-11.3189,-11.0472,-10.8662,-10.674,-10.4638,-10.2827,-10.1258,-9.9916,-9.8306,-9.7701,-9.6735,-9.6363,-9.599,-9.5815,-9.5564,-9.5213,-9.4861,-9.4208,-9.3556,-9.3405,-9.3204,-9.2652,-9.2099,-9.1798,-9.1346,-9.0743,-9.0241,-8.989,-8.9387,-8.8785,-8.8383,-8.7931,-8.7178,-8.6475,-8.5775,-8.5238,-8.485,-8.3944,-8.2852,-8.1796,-8.0236,-7.7779,-7.5456,-7.4437,-7.3905,-18.0786,-17.947,-17.8828,-17.7326,-17.5352,-17.3673,-17.2152,-17.0903,-17.0754,-16.9687,-16.7984,-16.6727,-16.4861,-16.3002,-16.1749,-16.0566,-15.98,-15.959,-15.9527,-15.9527,-15.9527,-15.9527,-15.9307,-15.8793,-15.7923,-15.7053,-15.6058,-15.5146,-15.4132,-15.3082,-15.1658,-14.9797,-14.7896,-14.598,-14.4472,-14.3173,-14.2621,-14.2239,-14.1405,-14.0551,-13.9363,-13.8153,-13.6355,-13.4668,-13.3152,-13.1803,-13.0424,-12.9319,-12.8092,-12.7115,-12.5954,-12.4991,-12.3941,-12.2704,-12.1913,-12.1112,-12.0293,-11.9754,-11.9275,-11.9036,-11.8856,-11.8437,-11.8318,-11.8198,-11.8198,-11.8198,-11.7981,-11.7546,-11.667,-11.5837,-11.4607,-11.2845,-11.1241,-10.9171,-10.704,-10.5259,-10.3533,-10.1967,-10.0141,-9.9015,-9.7845,-9.7106,-9.6363,-9.6064,-9.5812,-9.5363,-9.4861,-9.4208,-9.3656,-9.3455,-9.3154,-9.2601,-9.2099,-9.1497,-9.0994,-9.0442,-8.999,-8.9588,-8.9287,-8.8785,-8.8383,-8.7831,-8.7077,-8.6475,-8.6224,-8.5849,-8.535,-8.5075,-8.4511,-8.3473,-8.2537,-8.075,-7.8225,-7.682,-7.5978,-18.0719,-17.9984,-17.831,-17.7129,-17.6287,-17.4614,-17.3353,-17.2382,-17.1325,-17.0194,-16.9514,-16.6595,-16.4946,-16.3743,-16.1881,-16.0677,-16.0163,-15.9841,-15.9716,-15.9653,-15.959,-15.9527,-15.938,-15.916,-15.8279,-15.7409,-15.6539,-15.5817,-15.453,-15.3603,-15.2276,-15.0453,-14.8528,-14.6515,-14.4582,-14.2977,-14.2636,-14.2104,-14.127,-14.0572,-13.9719,-13.8466,-13.7079,-13.5865,-13.4907,-13.3786,-13.2866,-13.1706,-13.0623,-12.9824,-12.7782,-12.6087,-12.4423,-12.2522,-12.0951,-11.9265,-11.8796,-11.8677,-11.8497,-11.8497,-11.8437,-11.8258,-11.8198,-11.8198,-11.8198,-11.8198,-11.809,-11.7764,-11.7437,-11.6611,-11.5882,-11.4589,-11.3118,-11.1301,-10.9315,-10.7666,-10.596,-10.4232,-10.2436,-10.0772,-9.9569,-9.8007,-9.72,-9.6156,-9.5852,-9.5359,-9.4811,-9.4158,-9.3756,-9.3505,-9.3154,-9.2601,-9.1898,-9.1296,-9.0743,-9.0191,-8.9739,-8.9287,-8.9036,-8.8634,-8.8032,-8.7429,-8.6877,-8.6475,-8.6174,-8.6023,-8.5911,-8.5525,-8.5188,-8.53,-8.4447,-8.287,-8.1327,-7.9652,-7.8596,-18.0365,-17.949,-17.815,-17.7149,-17.6147,-17.5004,-17.3922,-17.3013,-17.1841,-17.1,-17.0029,-16.7247,-16.5521,-16.4636,-16.269,-16.1308,-16.08,-16.0502,-16.0261,-16.0139,-15.9768,-15.9779,-15.9716,-15.9443,-15.8499,-15.7618,-15.6884,-15.6161,-15.4863,-15.3932,-15.2818,-15.1167,-14.9141,-14.688,-14.468,-14.3049,-14.2015,-14.1489,-14.0796,-14.0255,-13.9491,-13.8706,-13.786,-13.6946,-13.6161,-13.5641,-13.4999,-13.3815,-13.3152,-13.203,-12.9632,-12.7526,-12.5306,-12.268,-12.0108,-11.8606,-11.8318,-11.8318,-11.8258,-11.8258,-11.8198,-11.8198,-11.8198,-11.8198,-11.8198,-11.8198,-11.8198,-11.7981,-11.7813,-11.7427,-11.6803,-11.6061,-11.4807,-11.3389,-11.1716,-11.0037,-10.8354,-10.6546,-10.4887,-10.297,-10.1209,-9.9496,-9.8081,-9.6871,-9.5885,-9.5173,-9.4604,-9.3857,-9.3556,-9.3455,-9.3104,-9.2652,-9.1798,-9.0994,-9.0492,-9.004,-8.9588,-8.9187,-8.8835,-8.8383,-8.768,-8.7178,-8.6676,-8.6324,-8.6073,-8.6023,-8.5911,-8.6023,-8.5799,-8.5799,-8.5749,-8.4575,-8.3278,-8.2363,-8.1558,-17.9888,-17.8363,-17.8174,-17.6954,-17.5463,-17.4651,-17.3878,-17.311,-17.2405,-17.1473,-17.0109,-16.8288,-16.6784,-16.5521,-16.3639,-16.2466,-16.1721,-16.1273,-16.0929,-16.0829,-16.0147,-15.9978,-15.9892,-15.9496,-15.8478,-15.7545,-15.6737,-15.6077,-15.5061,-15.4122,-15.3279,-15.1931,-14.9882,-14.7544,-14.5067,-14.2884,-14.1493,-14.0336,-14.0005,-13.9646,-13.9376,-13.895,-13.8659,-13.77,-13.7234,-13.6833,-13.6208,-13.5665,-13.5142,-13.3393,-13.1447,-12.9074,-12.5576,-12.2388,-11.983,-11.8714,-11.8198,-11.8198,-11.8198,-11.8198,-11.8198,-11.8198,-11.8198,-11.8198,-11.8198,-11.8198,-11.8198,-11.8138,-11.7862,-11.7563,-11.694,-11.6237,-11.5034,-11.4178,-11.2844,-11.1675,-11.0621,-10.8792,-10.6889,-10.5127,-10.3237,-10.1385,-9.9174,-9.7973,-9.6343,-9.5345,-9.4364,-9.3597,-9.3204,-9.3154,-9.2852,-9.2451,-9.1647,-9.0844,-9.0442,-8.999,-8.9538,-8.9086,-8.8684,-8.8232,-8.768,-8.7128,-8.6575,-8.6274,-8.6023,-8.6023,-8.6023,-8.6023,-8.6023,-8.6023,-8.5861,-8.5973,-8.5138,-8.3975,-8.3846,-17.905,-17.8555,-17.7188,-17.5931,-17.4897,-17.4086,-17.3274,-17.2505,-17.2369,-17.1514,-17.0262,-16.8804,-16.7359,-16.598,-16.4707,-16.3534,-16.2636,-16.195,-16.1546,-16.1182,-16.0599,-16.0208,-16.0026,-15.9353,-15.8297,-15.724,-15.6444,-15.571,-15.484,-15.431,-15.3731,-15.2539,-15.0447,-14.7786,-14.5374,-14.3006,-14.0961,-13.9578,-13.9164,-13.9125,-13.897,-13.8564,-13.8138,-13.7713,-13.7491,-13.7066,-13.6359,-13.578,-13.4871,-13.3459,-13.1576,-12.8248,-12.3775,-12.1004,-11.9193,-11.8366,-11.8198,-11.8198,-11.8198,-11.8198,-11.8198,-11.8198,-11.8198,-11.8198,-11.8198,-11.8198,-11.8138,-11.8018,-11.7839,-11.748,-11.6894,-11.607,-11.5366,-11.457,-11.4001,-11.3386,-11.2664,-11.0818,-10.8952,-10.7225,-10.5314,-10.305,-10.0824,-9.8752,-9.7021,-9.564,-9.4326,-9.3354,-9.2722,-9.2501,-9.22,-9.1798,-9.1446,-9.0794,-9.0392,-8.989,-8.9387,-8.8885,-8.8433,-8.8032,-8.758,-8.6927,-8.6274,-8.6174,-8.6023,-8.5973,-8.5922,-8.5973,-8.5973,-8.5922,-8.5722,-8.5621,-8.547,-8.4541,-8.4951,-17.8601,-17.7722,-17.6266,-17.5024,-17.4187,-17.3726,-17.3033,-17.2341,-17.1879,-17.1087,-17.0114,-16.9181,-16.8082,-16.6652,-16.5566,-16.4543,-16.348,-16.2745,-16.2059,-16.151,-16.0949,-16.0344,-15.9833,-15.9246,-15.8027,-15.6973,-15.5845,-15.5049,-15.4694,-15.4497,-15.3922,-15.2864,-15.044,-14.8092,-14.5672,-14.3028,-14.0791,-13.919,-13.8627,-13.8418,-13.8516,-13.809,-13.8022,-13.7887,-13.7481,-13.7075,-13.6651,-13.6073,-13.5215,-13.3558,-13.1451,-12.7869,-12.4054,-12.1251,-11.9653,-11.8737,-11.8414,-11.8198,-11.8198,-11.8138,-11.8138,-11.8138,-11.8198,-11.8198,-11.8078,-11.8018,-11.7659,-11.754,-11.754,-11.724,-11.6403,-11.5519,-11.51,-11.4471,-11.4186,-11.3737,-11.3018,-11.1932,-11.0469,-10.9203,-10.7264,-10.5036,-10.258,-9.975,-9.7982,-9.5939,-9.4632,-9.3069,-9.2559,-9.1848,-9.1547,-9.1195,-9.0844,-9.0593,-9.0241,-8.9739,-8.9237,-8.8684,-8.8182,-8.7529,-8.6977,-8.6475,-8.6023,-8.6023,-8.5922,-8.5822,-8.5822,-8.5722,-8.5621,-8.5521,-8.532,-8.5169,-8.5019,-8.4868,-8.4858,-17.806,-17.6477,-17.53,-17.4385,-17.3605,-17.3341,-17.2956,-17.2264,-17.1418,-17.0571,-16.9769,-16.9372,-16.8516,-16.7386,-16.6475,-16.5406,-16.4405,-16.3455,-16.2688,-16.1951,-16.1385,-16.0625,-15.9767,-15.8959,-15.7635,-15.6359,-15.5319,-15.4964,-15.4682,-15.4559,-15.4038,-15.2777,-15.0766,-14.8516,-14.6071,-14.3625,-14.1378,-13.9787,-13.8814,-13.8015,-13.774,-13.7549,-13.7684,-13.7549,-13.7143,-13.6805,-13.6466,-13.6042,-13.5397,-13.3601,-13.1004,-12.7675,-12.472,-12.2145,-12.0649,-11.9593,-11.8557,-11.8282,-11.8174,-11.7887,-11.7899,-11.7959,-11.8078,-11.8018,-11.7899,-11.7659,-11.73,-11.6941,-11.6941,-11.6642,-11.5744,-11.5146,-11.4727,-11.4487,-11.4263,-11.4098,-11.3485,-11.2872,-11.1838,-11.0694,-10.881,-10.6656,-10.4079,-10.1253,-9.8998,-9.6874,-9.4965,-9.346,-9.2206,-9.1515,-9.0994,-9.0643,-9.0241,-9.004,-8.994,-8.9639,-8.9136,-8.8584,-8.8032,-8.7128,-8.6425,-8.6174,-8.6023,-8.5973,-8.5872,-8.5621,-8.537,-8.5169,-8.5119,-8.5019,-8.4918,-8.4717,-8.4466,-8.4315,-8.4165,-17.7059,-17.569,-17.4555,-17.3927,-17.3615,-17.2869,-17.2418,-17.2187,-17.1341,-17.0494,-16.9648,-16.8923,-16.8022,-16.7051,-16.6863,-16.5997,-16.4752,-16.3954,-16.3297,-16.261,-16.1513,-16.0676,-15.9674,-15.8539,-15.6851,-15.5683,-15.4951,-15.4817,-15.4462,-15.4535,-15.413,-15.2836,-15.0997,-14.8989,-14.688,-14.443,-14.2055,-14.0434,-13.8935,-13.7911,-13.6979,-13.6791,-13.6737,-13.6331,-13.5587,-13.5316,-13.5046,-13.4504,-13.3979,-13.2593,-13.0577,-12.7823,-12.5649,-12.3505,-12.1877,-12.0448,-11.932,-11.8442,-11.8169,-11.7442,-11.7335,-11.742,-11.742,-11.742,-11.73,-11.724,-11.6702,-11.5924,-11.5804,-11.5744,-11.5086,-11.4727,-11.4368,-11.4368,-11.4308,-11.4203,-11.3919,-11.3277,-11.2383,-11.1326,-10.9885,-10.765,-10.5424,-10.2751,-10.0416,-9.8098,-9.5525,-9.3913,-9.2242,-9.1281,-9.056,-9.0325,-9.0088,-8.9538,-8.9438,-8.9488,-8.9086,-8.8534,-8.7881,-8.6977,-8.6324,-8.6123,-8.5973,-8.5822,-8.5571,-8.527,-8.5019,-8.4617,-8.4567,-8.4466,-8.4466,-8.4315,-8.4064,-8.3763,-8.3612]},{"header":{"parameterUnit":"m.s-1","parameterCategory":1,"la1":31.0,"la2":29.5877,"lo1":-88.7671,"lo2":-86.6584,"dy":0.0162,"dx":0.0185,"nx":115,"ny":88,"refTime":"2024-09-12T00:00:00:Z","depth":0,"parameterNumber":3,"parameterNumberName":"V-component_of_WINDS"},"data":[0.0,0.0,0.0,0.0,0.0,0.0,0.0,0.0,0.0,0.0,0.0,0.0,0.0,0.0,0.0,0.0,0.0,0.0,0.0,0.0,0.0,0.0,0.0,0.0,0.0,0.0,0.0,0.0,0.0,0.0,0.0,0.0,0.0,0.0,0.0,0.0,0.0,0.0,0.0,0.0,0.0,0.0,0.0,0.0,0.0,0.0,0.0,0.0,0.0,0.0,0.0,0.0,0.0,0.0,0.0,0.0,0.0,0.0,0.0,0.0,0.0,0.0,0.0,0.0,0.0,0.0,0.0,0.0,0.0,0.0,0.0,0.0,0.0,0.0,0.0,0.0,0.0,0.0,0.0,0.0,0.0,0.0,0.0,0.0,0.0,0.0,0.0,0.0,0.0,0.0,0.0,0.0,0.0,0.0,0.0,0.0,0.0,0.0,0.0,0.0,0.0,0.0,0.0,0.0,0.0,0.0,0.0,0.0,0.0,0.0,0.0,0.0,0.0,0.0,0.0,0.0,0.0,0.0,0.0,0.0,0.0,0.0,0.0,0.0,0.0,0.0,0.0,0.0,0.0,0.0,0.0,0.0,0.0,0.0,0.0,0.0,0.0,0.0,0.0,0.0,0.0,0.0,0.0,0.0,0.0,0.0,0.0,0.0,0.0,0.0,0.0,0.0,0.0,0.0,0.0,0.0,0.0,0.0,0.0,0.0,0.0,0.0,0.0,0.0,0.0,0.0,0.0,0.0,0.0,0.0,0.0,0.0,0.0,0.0,0.0,0.0,0.0,0.0,0.0,0.0,0.0,0.0,0.0,0.0,0.0,0.0,0.0,0.0,0.0,0.0,0.0,0.0,0.0,0.0,0.0,0.0,0.0,0.0,0.0,0.0,0.0,0.0,0.0,0.0,0.0,0.0,0.0,0.0,0.0,0.0,0.0,0.0,0.0,0.0,0.0,0.0,0.0,0.0,0.0,0.0,0.0,0.0,0.0,0.0,0.0,0.0,0.0,0.0,0.0,0.0,0.0,0.0,0.0,0.0,0.0,0.0,0.0,0.0,0.0,0.0,0.0,0.0,0.0,0.0,0.0,0.0,0.0,0.0,0.0,0.0,0.0,0.0,0.0,0.0,0.0,0.0,0.0,0.0,0.0,0.0,0.0,0.0,0.0,0.0,0.0,0.0,0.0,0.0,0.0,0.0,0.0,0.0,0.0,0.0,0.0,0.0,0.0,0.0,0.0,0.0,0.0,0.0,0.0,0.0,0.0,0.0,0.0,0.0,0.0,0.0,0.0,0.0,0.0,0.0,0.0,0.0,0.0,0.0,0.0,0.0,0.0,0.0,0.0,0.0,0.0,0.0,0.0,0.0,0.0,0.0,0.0,0.0,0.0,0.0,0.0,0.0,0.0,0.0,0.0,0.0,0.0,0.0,0.0,0.0,0.0,0.0,0.0,0.0,0.0,0.0,0.0,0.0,0.0,0.0,0.0,0.0,0.0,0.0,0.0,0.0,0.0,0.0,0.0,0.0,0.0,0.0,0.0,0.0,0.0,0.0,0.0,0.0,0.0,0.0,0.0,0.0,0.0,0.0,0.0,0.0,0.0,0.0,0.0,0.0,0.0,0.0,0.0,0.0,0.0,0.0,0.0,0.0,0.0,0.0,0.0,0.0,0.0,0.0,0.0,0.0,0.0,0.0,0.0,0.0,0.0,0.0,0.0,0.0,0.0,0.0,0.0,0.0,0.0,0.0,0.0,0.0,0.0,0.0,0.0,0.0,0.0,0.0,0.0,0.0,0.0,0.0,0.0,0.0,0.0,0.0,0.0,0.0,0.0,0.0,0.0,0.0,0.0,0.0,0.0,0.0,0.0,0.0,0.0,0.0,0.0,0.0,0.0,0.0,0.0,0.0,0.0,0.0,0.0,0.0,0.0,0.0,0.0,0.0,0.0,0.0,0.0,0.0,0.0,0.0,0.0,0.0,0.0,0.0,0.0,0.0,0.0,0.0,0.0,0.0,0.0,0.0,0.0,0.0,0.0,0.0,0.0,0.0,0.0,0.0,0.0,0.0,0.0,0.0,0.0,0.0,0.0,0.0,0.0,0.0,0.0,0.0,0.0,0.0,0.0,0.0,0.0,0.0,0.0,0.0,0.0,0.0,0.0,0.0,0.0,0.0,0.0,0.0,0.0,0.0,0.0,0.0,0.0,0.0,0.0,0.0,0.0,0.0,0.0,0.0,0.0,0.0,0.0,0.0,0.0,0.0,0.0,0.0,0.0,0.0,0.0,0.0,0.0,0.0,0.0,0.0,0.0,0.0,0.0,0.0,0.0,0.0,0.0,0.0,0.0,0.0,0.0,0.0,0.0,0.0,0.0,0.0,0.0,0.0,0.0,0.0,0.0,0.0,0.0,0.0,0.0,0.0,0.0,0.0,0.0,0.0,0.0,0.0,0.0,0.0,0.0,0.0,0.0,0.0,0.0,0.0,0.0,0.0,0.0,0.0,0.0,0.0,0.0,0.0,0.0,0.0,0.0,0.0,0.0,0.0,0.0,0.0,0.0,0.0,0.0,0.0,0.0,0.0,0.0,0.0,0.0,0.0,0.0,0.0,0.0,0.0,0.0,0.0,0.0,0.0,0.0,0.0,0.0,0.0,0.0,0.0,0.0,0.0,0.0,0.0,0.0,0.0,0.0,0.0,0.0,0.0,0.0,0.0,0.0,0.0,0.0,0.0,0.0,0.0,0.0,0.0,0.0,0.0,0.0,0.0,0.0,0.0,0.0,0.0,0.0,0.0,0.0,0.0,0.0,0.0,0.0,0.0,0.0,0.0,0.0,0.0,0.0,0.0,0.0,0.0,0.0,0.0,0.0,0.0,0.0,0.0,0.0,0.0,0.0,0.0,0.0,0.0,0.0,0.0,0.0,0.0,0.0,0.0,0.0,0.0,0.0,0.0,0.0,0.0,0.0,0.0,0.0,0.0,0.0,0.0,0.0,0.0,0.0,0.0,0.0,0.0,0.0,0.0,0.0,0.0,0.0,0.0,0.0,0.0,0.0,0.0,0.0,0.0,0.0,0.0,0.0,0.0,0.0,0.0,0.0,0.0,0.0,0.0,0.0,0.0,0.0,0.0,0.0,0.0,0.0,0.0,0.0,0.0,0.0,0.0,0.0,0.0,0.0,0.0,0.0,0.0,0.0,0.0,0.0,0.0,0.0,0.0,0.0,0.0,0.0,0.0,0.0,0.0,0.0,0.0,0.0,0.0,0.0,0.0,0.0,0.0,0.0,0.0,0.0,0.0,0.0,0.0,0.0,0.0,0.0,0.0,0.0,0.0,0.0,0.0,0.0,0.0,0.0,0.0,0.0,0.0,0.0,0.0,0.0,0.0,0.0,0.0,0.0,0.0,0.0,0.0,0.0,0.0,0.0,0.0,0.0,0.0,0.0,0.0,0.0,0.0,0.0,0.0,0.0,0.0,0.0,0.0,0.0,0.0,0.0,0.0,0.0,0.0,0.0,0.0,0.0,0.0,0.0,0.0,0.0,0.0,0.0,0.0,0.0,0.0,0.0,0.0,0.0,0.0,0.0,0.0,0.0,0.0,0.0,0.0,0.0,0.0,0.0,0.0,0.0,0.0,0.0,0.0,0.0,0.0,0.0,0.0,0.0,0.0,0.0,0.0,0.0,0.0,0.0,0.0,0.0,0.0,0.0,0.0,0.0,0.0,0.0,0.0,0.0,0.0,0.0,0.0,0.0,0.0,0.0,0.0,0.0,0.0,0.0,0.0,0.0,0.0,0.0,0.0,0.0,0.0,0.0,0.0,0.0,0.0,0.0,0.0,0.0,0.0,0.0,0.0,0.0,0.0,0.0,0.0,0.0,0.0,0.0,0.0,0.0,0.0,0.0,0.0,0.0,0.0,0.0,0.0,0.0,0.0,0.0,0.0,0.0,0.0,0.0,0.0,0.0,0.0,0.0,0.0,0.0,0.0,0.0,0.0,0.0,0.0,0.0,0.0,0.0,0.0,0.0,0.0,0.0,0.0,0.0,0.0,0.0,0.0,0.0,0.0,0.0,0.0,0.0,0.0,0.0,0.0,0.0,0.0,0.0,0.0,0.0,0.0,0.0,0.0,0.0,0.0,0.0,0.0,0.0,0.0,0.0,0.0,0.0,0.0,0.0,0.0,0.0,0.0,0.0,0.0,0.0,0.0,0.0,0.0,0.0,0.0,0.0,0.0,0.0,0.0,0.0,0.0,0.0,0.0,0.0,0.0,0.0,0.0,8.594,0.0,0.0,0.0,0.0,0.0,0.0,0.0,0.0,0.0,0.0,0.0,0.0,0.0,0.0,0.0,0.0,0.0,0.0,0.0,0.0,0.0,0.0,0.0,0.0,0.0,0.0,0.0,0.0,0.0,0.0,0.0,0.0,0.0,0.0,0.0,0.0,0.0,0.0,0.0,0.0,0.0,0.0,0.0,0.0,0.0,0.0,0.0,0.0,0.0,0.0,0.0,0.0,0.0,0.0,0.0,0.0,0.0,0.0,0.0,0.0,0.0,0.0,0.0,0.0,0.0,0.0,0.0,0.0,0.0,0.0,0.0,0.0,0.0,0.0,0.0,0.0,0.0,0.0,0.0,0.0,0.0,0.0,0.0,0.0,0.0,0.0,0.0,0.0,0.0,0.0,0.0,0.0,0.0,0.0,0.0,0.0,0.0,0.0,0.0,0.0,0.0,0.0,0.0,0.0,0.0,0.0,0.0,0.0,0.0,0.0,9.0017,8.8709,8.8325,8.7478,8.617,0.0,0.0,0.0,0.0,0.0,0.0,0.0,0.0,0.0,0.0,0.0,0.0,0.0,0.0,0.0,0.0,0.0,0.0,0.0,0.0,0.0,0.0,0.0,0.0,0.0,0.0,0.0,0.0,0.0,0.0,0.0,0.0,0.0,0.0,0.0,0.0,0.0,0.0,0.0,0.0,0.0,0.0,0.0,0.0,0.0,0.0,0.0,0.0,0.0,0.0,0.0,0.0,0.0,0.0,0.0,0.0,0.0,0.0,0.0,0.0,0.0,0.0,0.0,0.0,0.0,0.0,0.0,0.0,0.0,0.0,0.0,0.0,0.0,0.0,0.0,0.0,0.0,0.0,0.0,0.0,0.0,0.0,0.0,0.0,0.0,0.0,0.0,0.0,0.0,0.0,0.0,0.0,0.0,0.0,0.0,0.0,0.0,0.0,0.0,0.0,0.0,0.0,0.0,0.0,0.0,0.0,0.0,0.0,0.0,0.0,0.0,0.0,9.0402,8.9633,8.794,0.0,0.0,0.0,0.0,0.0,0.0,0.0,0.0,0.0,0.0,0.0,0.0,0.0,0.0,0.0,0.0,0.0,0.0,0.0,0.0,0.0,0.0,0.0,0.0,0.0,0.0,0.0,0.0,0.0,0.0,0.0,0.0,0.0,0.0,0.0,0.0,0.0,0.0,0.0,0.0,0.0,0.0,0.0,0.0,0.0,0.0,0.0,0.0,0.0,0.0,0.0,0.0,0.0,0.0,0.0,0.0,0.0,0.0,0.0,0.0,0.0,0.0,0.0,0.0,0.0,0.0,0.0,0.0,0.0,0.0,0.0,0.0,0.0,0.0,0.0,0.0,0.0,0.0,0.0,0.0,0.0,0.0,0.0,0.0,0.0,0.0,0.0,0.0,0.0,0.0,0.0,0.0,0.0,0.0,0.0,0.0,0.0,0.0,0.0,0.0,0.0,0.0,0.0,0.0,0.0,0.0,0.0,0.0,0.0,0.0,9.2633,9.548,9.5557,0.0,9.3172,0.0,0.0,0.0,0.0,0.0,0.0,0.0,0.0,0.0,0.0,0.0,0.0,0.0,0.0,0.0,0.0,0.0,0.0,0.0,0.0,0.0,0.0,0.0,0.0,0.0,0.0,0.0,0.0,0.0,0.0,0.0,0.0,0.0,0.0,0.0,0.0,0.0,0.0,0.0,0.0,0.0,0.0,0.0,0.0,0.0,0.0,0.0,0.0,0.0,0.0,0.0,0.0,0.0,0.0,0.0,0.0,0.0,0.0,0.0,0.0,0.0,0.0,0.0,0.0,0.0,0.0,0.0,0.0,0.0,0.0,0.0,0.0,0.0,0.0,0.0,0.0,0.0,0.0,0.0,0.0,0.0,0.0,0.0,0.0,0.0,0.0,0.0,0.0,0.0,0.0,0.0,0.0,0.0,0.0,0.0,0.0,0.0,0.0,0.0,0.0,0.0,0.0,0.0,0.0,0.0,0.0,0.0,0.0,0.0,0.0,9.6095,9.7019,9.5557,9.4403,0.0,0.0,0.0,0.0,0.0,0.0,0.0,0.0,0.0,0.0,0.0,0.0,0.0,0.0,0.0,0.0,0.0,0.0,0.0,0.0,0.0,0.0,0.0,0.0,0.0,0.0,0.0,0.0,0.0,0.0,0.0,0.0,0.0,0.0,0.0,0.0,0.0,0.0,0.0,0.0,0.0,0.0,0.0,0.0,0.0,0.0,0.0,0.0,0.0,0.0,0.0,0.0,0.0,0.0,0.0,0.0,0.0,0.0,0.0,0.0,0.0,0.0,0.0,0.0,0.0,0.0,0.0,0.0,0.0,0.0,0.0,0.0,0.0,0.0,0.0,0.0,0.0,0.0,0.0,0.0,0.0,0.0,0.0,0.0,0.0,0.0,0.0,0.0,0.0,0.0,0.0,0.0,0.0,0.0,0.0,0.0,0.0,0.0,0.0,0.0,0.0,0.0,0.0,0.0,0.0,0.0,0.0,0.0,0.0,0.0,9.7634,9.8942,9.9173,9.7019,9.5018,9.3403,0.0,0.0,0.0,0.0,0.0,0.0,0.0,0.0,0.0,0.0,0.0,0.0,0.0,0.0,0.0,0.0,0.0,0.0,0.0,0.0,0.0,0.0,0.0,0.0,0.0,0.0,0.0,0.0,0.0,0.0,0.0,0.0,0.0,0.0,0.0,0.0,0.0,0.0,0.0,0.0,0.0,0.0,0.0,0.0,0.0,0.0,0.0,0.0,0.0,0.0,0.0,0.0,0.0,0.0,0.0,0.0,0.0,0.0,0.0,0.0,0.0,0.0,0.0,0.0,0.0,0.0,0.0,0.0,0.0,0.0,0.0,0.0,0.0,0.0,0.0,0.0,0.0,0.0,0.0,0.0,0.0,0.0,0.0,0.0,0.0,0.0,0.0,0.0,0.0,0.0,0.0,0.0,0.0,0.0,0.0,0.0,0.0,0.0,0.0,0.0,0.0,0.0,0.0,0.0,0.0,0.0,0.0,0.0,10.4866,10.1096,10.0327,10.3482,10.1866,9.8327,0.0,0.0,0.0,0.0,0.0,0.0,0.0,0.0,0.0,0.0,0.0,0.0,0.0,0.0,0.0,0.0,0.0,0.0,0.0,0.0,0.0,0.0,0.0,0.0,0.0,0.0,0.0,0.0,0.0,0.0,0.0,0.0,0.0,0.0,0.0,0.0,0.0,0.0,0.0,0.0,0.0,0.0,0.0,0.0,0.0,0.0,0.0,0.0,0.0,0.0,0.0,0.0,0.0,0.0,0.0,0.0,0.0,0.0,0.0,0.0,0.0,0.0,0.0,0.0,0.0,0.0,0.0,0.0,0.0,0.0,0.0,0.0,0.0,0.0,0.0,0.0,0.0,0.0,0.0,0.0,0.0,0.0,0.0,0.0,0.0,0.0,0.0,0.0,0.0,0.0,0.0,0.0,0.0,0.0,0.0,0.0,0.0,0.0,0.0,0.0,0.0,0.0,0.0,0.0,0.0,0.0,0.0,0.0,0.0,9.648,9.8019,10.2251,10.8867,10.1096,9.6711,0.0,0.0,0.0,0.0,0.0,0.0,0.0,0.0,0.0,0.0,0.0,0.0,0.0,0.0,0.0,0.0,0.0,0.0,0.0,0.0,0.0,0.0,0.0,0.0,0.0,0.0,0.0,0.0,0.0,0.0,0.0,0.0,0.0,0.0,0.0,0.0,0.0,0.0,0.0,0.0,0.0,0.0,0.0,0.0,0.0,0.0,0.0,0.0,0.0,0.0,0.0,0.0,0.0,0.0,0.0,0.0,0.0,0.0,0.0,0.0,0.0,0.0,0.0,0.0,0.0,0.0,0.0,0.0,0.0,0.0,0.0,0.0,0.0,0.0,0.0,0.0,0.0,0.0,0.0,0.0,0.0,0.0,0.0,0.0,0.0,0.0,0.0,0.0,0.0,0.0,0.0,0.0,0.0,0.0,0.0,0.0,0.0,0.0,0.0,0.0,0.0,0.0,0.0,0.0,0.0,0.0,0.0,0.0,0.0,9.5634,0.0,10.5328,0.0,10.1096,9.5865,0.0,0.0,0.0,0.0,0.0,0.0,0.0,0.0,0.0,0.0,0.0,0.0,0.0,0.0,0.0,0.0,0.0,0.0,0.0,0.0,0.0,0.0,0.0,0.0,0.0,0.0,0.0,0.0,0.0,0.0,0.0,0.0,0.0,0.0,0.0,0.0,0.0,0.0,0.0,0.0,0.0,0.0,0.0,0.0,0.0,0.0,0.0,0.0,0.0,0.0,0.0,0.0,0.0,0.0,0.0,0.0,0.0,0.0,0.0,0.0,0.0,0.0,0.0,0.0,0.0,0.0,0.0,0.0,0.0,0.0,0.0,0.0,0.0,0.0,0.0,0.0,0.0,0.0,0.0,0.0,0.0,0.0,0.0,0.0,0.0,0.0,0.0,0.0,0.0,0.0,0.0,0.0,0.0,0.0,0.0,0.0,0.0,0.0,0.0,0.0,0.0,0.0,0.0,0.0,0.0,0.0,0.0,0.0,9.5018,10.4482,10.8867,10.9252,10.5405,10.2558,9.6172,0.0,0.0,0.0,0.0,0.0,0.0,0.0,0.0,0.0,0.0,0.0,0.0,0.0,0.0,0.0,0.0,0.0,0.0,0.0,0.0,0.0,0.0,0.0,0.0,0.0,0.0,0.0,0.0,0.0,0.0,0.0,0.0,0.0,0.0,0.0,0.0,0.0,0.0,0.0,0.0,0.0,0.0,0.0,0.0,0.0,0.0,0.0,0.0,0.0,0.0,0.0,0.0,0.0,0.0,0.0,0.0,0.0,0.0,0.0,0.0,0.0,0.0,0.0,0.0,0.0,0.0,0.0,0.0,0.0,0.0,0.0,0.0,0.0,0.0,0.0,0.0,0.0,0.0,0.0,0.0,0.0,0.0,0.0,0.0,0.0,0.0,0.0,0.0,0.0,0.0,0.0,0.0,0.0,0.0,0.0,0.0,0.0,0.0,0.0,0.0,0.0,0.0,0.0,0.0,0.0,0.0,0.0,0.0,0.0,10.0866,10.6097,10.9944,11.1714,10.2866,9.7942,0.0,0.0,0.0,0.0,0.0,0.0,0.0,0.0,0.0,0.0,0.0,0.0,0.0,0.0,0.0,0.0,0.0,0.0,0.0,0.0,0.0,0.0,0.0,0.0,0.0,0.0,0.0,0.0,0.0,0.0,0.0,0.0,0.0,0.0,0.0,0.0,0.0,0.0,0.0,0.0,0.0,0.0,0.0,0.0,0.0,0.0,0.0,0.0,0.0,0.0,0.0,0.0,0.0,0.0,0.0,0.0,0.0,0.0,0.0,0.0,0.0,0.0,0.0,0.0,0.0,0.0,0.0,0.0,0.0,0.0,0.0,0.0,0.0,0.0,0.0,0.0,0.0,0.0,0.0,0.0,0.0,0.0,0.0,0.0,0.0,0.0,0.0,0.0,0.0,0.0,0.0,0.0,0.0,0.0,0.0,0.0,0.0,0.0,0.0,0.0,0.0,0.0,0.0,0.0,0.0,0.0,0.0,0.0,0.0,10.6489,11.1187,11.4253,11.5253,10.5713,10.0404,9.9865,0.0,0.0,0.0,0.0,0.0,0.0,0.0,0.0,0.0,0.0,0.0,0.0,0.0,0.0,0.0,0.0,0.0,0.0,0.0,0.0,0.0,0.0,0.0,0.0,0.0,0.0,0.0,0.0,0.0,0.0,0.0,0.0,0.0,0.0,0.0,0.0,0.0,0.0,0.0,0.0,0.0,0.0,0.0,0.0,0.0,0.0,0.0,0.0,0.0,0.0,0.0,0.0,0.0,0.0,0.0,0.0,0.0,0.0,0.0,0.0,0.0,0.0,0.0,0.0,0.0,0.0,0.0,0.0,0.0,0.0,0.0,0.0,0.0,0.0,0.0,0.0,0.0,0.0,0.0,0.0,0.0,0.0,0.0,0.0,0.0,0.0,0.0,0.0,0.0,0.0,0.0,0.0,0.0,0.0,0.0,0.0,0.0,0.0,0.0,0.0,0.0,0.0,0.0,0.0,0.0,0.0,0.0,0.0,11.8639,12.2498,12.1799,11.6285,11.0748,10.3692,0.0,0.0,0.0,0.0,0.0,0.0,0.0,0.0,0.0,0.0,0.0,0.0,0.0,0.0,0.0,0.0,0.0,0.0,0.0,0.0,0.0,0.0,0.0,0.0,0.0,0.0,0.0,0.0,0.0,0.0,0.0,0.0,0.0,0.0,0.0,0.0,0.0,0.0,0.0,0.0,0.0,0.0,0.0,0.0,0.0,0.0,0.0,0.0,0.0,0.0,0.0,0.0,0.0,0.0,0.0,0.0,0.0,0.0,0.0,0.0,0.0,0.0,0.0,0.0,0.0,0.0,0.0,0.0,0.0,0.0,0.0,0.0,0.0,0.0,0.0,0.0,0.0,0.0,0.0,0.0,0.0,0.0,0.0,0.0,0.0,0.0,0.0,0.0,0.0,0.0,0.0,0.0,0.0,0.0,0.0,0.0,0.0,0.0,0.0,0.0,0.0,0.0,0.0,0.0,0.0,0.0,0.0,0.0,0.0,12.0216,12.6794,12.8687,12.4973,11.5954,10.9067,0.0,0.0,0.0,0.0,0.0,0.0,0.0,0.0,0.0,0.0,0.0,0.0,0.0,0.0,0.0,0.0,0.0,0.0,0.0,0.0,0.0,0.0,0.0,0.0,0.0,0.0,0.0,0.0,0.0,0.0,0.0,0.0,0.0,0.0,0.0,0.0,0.0,0.0,0.0,0.0,0.0,0.0,0.0,0.0,0.0,0.0,0.0,0.0,0.0,0.0,0.0,0.0,0.0,0.0,0.0,0.0,0.0,0.0,0.0,0.0,0.0,0.0,0.0,0.0,0.0,0.0,0.0,0.0,0.0,0.0,0.0,0.0,0.0,0.0,0.0,0.0,0.0,0.0,0.0,0.0,0.0,0.0,0.0,0.0,0.0,0.0,0.0,0.0,0.0,0.0,0.0,0.0,0.0,0.0,0.0,0.0,0.0,0.0,0.0,0.0,0.0,0.0,0.0,0.0,0.0,0.0,0.0,0.0,11.8932,12.4258,12.9825,13.1794,12.9841,12.1689,11.4088,0.0,0.0,0.0,0.0,0.0,0.0,0.0,0.0,0.0,0.0,0.0,0.0,0.0,0.0,0.0,0.0,0.0,0.0,0.0,0.0,0.0,0.0,0.0,0.0,0.0,0.0,0.0,0.0,0.0,0.0,0.0,0.0,0.0,0.0,0.0,0.0,0.0,0.0,0.0,0.0,0.0,0.0,0.0,0.0,0.0,0.0,0.0,0.0,0.0,0.0,0.0,0.0,0.0,0.0,0.0,0.0,0.0,0.0,0.0,0.0,0.0,0.0,0.0,0.0,0.0,0.0,0.0,0.0,0.0,0.0,0.0,0.0,0.0,0.0,0.0,0.0,0.0,0.0,0.0,0.0,0.0,0.0,0.0,0.0,0.0,0.0,0.0,0.0,0.0,0.0,0.0,0.0,0.0,0.0,0.0,0.0,0.0,0.0,0.0,0.0,0.0,0.0,0.0,0.0,0.0,0.0,0.0,0.0,12.1659,12.9006,13.1795,13.2713,13.1666,12.6778,11.8546,0.0,0.0,0.0,0.0,0.0,0.0,0.0,0.0,0.0,0.0,0.0,0.0,0.0,0.0,0.0,0.0,0.0,0.0,0.0,0.0,0.0,0.0,0.0,0.0,0.0,0.0,0.0,0.0,0.0,0.0,0.0,0.0,0.0,0.0,0.0,0.0,0.0,0.0,0.0,0.0,0.0,0.0,0.0,0.0,0.0,0.0,0.0,0.0,0.0,0.0,0.0,0.0,0.0,0.0,0.0,0.0,0.0,0.0,0.0,0.0,0.0,0.0,0.0,0.0,0.0,0.0,0.0,0.0,0.0,0.0,0.0,0.0,0.0,0.0,0.0,0.0,0.0,0.0,0.0,0.0,0.0,0.0,0.0,0.0,0.0,0.0,0.0,0.0,0.0,0.0,0.0,0.0,0.0,0.0,0.0,0.0,0.0,0.0,0.0,0.0,0.0,0.0,0.0,0.0,0.0,0.0,0.0,0.0,12.43,12.8,13.2642,13.4424,13.2861,12.6661,11.9352,0.0,0.0,0.0,0.0,0.0,0.0,0.0,0.0,0.0,0.0,0.0,0.0,0.0,0.0,0.0,0.0,0.0,0.0,0.0,0.0,0.0,0.0,0.0,0.0,0.0,0.0,0.0,0.0,0.0,0.0,0.0,0.0,0.0,0.0,0.0,0.0,0.0,0.0,0.0,0.0,0.0,0.0,0.0,0.0,0.0,0.0,0.0,0.0,7.763,0.0,0.0,0.0,0.0,0.0,0.0,0.0,0.0,0.0,0.0,0.0,0.0,0.0,0.0,0.0,0.0,0.0,0.0,0.0,0.0,0.0,0.0,0.0,0.0,0.0,0.0,0.0,0.0,0.0,0.0,0.0,0.0,0.0,0.0,0.0,0.0,0.0,0.0,0.0,0.0,0.0,0.0,0.0,0.0,0.0,0.0,0.0,0.0,0.0,0.0,0.0,0.0,0.0,0.0,0.0,0.0,0.0,0.0,0.0,12.5662,12.9145,13.2839,13.4141,13.2739,12.8097,12.1242,0.0,0.0,0.0,0.0,0.0,0.0,0.0,0.0,0.0,0.0,0.0,0.0,0.0,0.0,0.0,0.0,0.0,0.0,0.0,0.0,0.0,0.0,0.0,0.0,0.0,0.0,0.0,0.0,0.0,0.0,0.0,0.0,0.0,0.0,0.0,0.0,0.0,0.0,0.0,0.0,0.0,0.0,0.0,0.0,0.0,0.0,0.0,0.0,0.0,0.0,0.0,0.0,0.0,0.0,0.0,0.0,0.0,0.0,0.0,0.0,0.0,0.0,0.0,0.0,0.0,0.0,0.0,0.0,0.0,0.0,0.0,0.0,0.0,0.0,0.0,0.0,0.0,0.0,0.0,0.0,0.0,0.0,0.0,0.0,0.0,0.0,0.0,0.0,0.0,0.0,0.0,0.0,0.0,0.0,0.0,0.0,0.0,0.0,0.0,0.0,0.0,0.0,0.0,0.0,0.0,0.0,0.0,12.0471,12.6357,13.0918,13.2872,13.3403,13.2507,12.9682,12.3127,11.2395,0.0,0.0,0.0,0.0,0.0,0.0,0.0,0.0,0.0,0.0,0.0,0.0,0.0,0.0,0.0,0.0,0.0,0.0,0.0,0.0,0.0,0.0,0.0,0.0,0.0,0.0,0.0,0.0,0.0,0.0,0.0,0.0,0.0,0.0,0.0,0.0,0.0,0.0,8.0323,8.4016,0.0,0.0,0.0,0.0,0.0,0.0,0.0,0.0,8.5016,0.0,0.0,0.0,0.0,0.0,0.0,0.0,0.0,0.0,0.0,0.0,0.0,0.0,0.0,0.0,0.0,0.0,0.0,0.0,0.0,0.0,0.0,0.0,0.0,0.0,0.0,0.0,0.0,0.0,0.0,0.0,0.0,0.0,0.0,0.0,0.0,0.0,0.0,0.0,0.0,0.0,0.0,0.0,0.0,0.0,0.0,0.0,0.0,0.0,0.0,0.0,0.0,0.0,0.0,0.0,0.0,12.1006,12.3135,12.6913,13.2395,13.3776,13.3864,13.2698,13.0188,12.3747,11.3424,0.0,0.0,0.0,0.0,0.0,0.0,0.0,0.0,0.0,0.0,0.0,0.0,0.0,0.0,0.0,0.0,0.0,0.0,0.0,0.0,0.0,0.0,0.0,0.0,0.0,0.0,0.0,0.0,0.0,0.0,0.0,0.0,0.0,0.0,0.0,0.0,0.0,0.0,0.0,9.2172,9.3787,0.0,0.0,0.0,0.0,0.0,0.0,0.0,0.0,8.6709,0.0,0.0,0.0,0.0,0.0,0.0,0.0,0.0,0.0,0.0,0.0,0.0,0.0,0.0,0.0,0.0,0.0,0.0,0.0,0.0,0.0,0.0,0.0,0.0,0.0,0.0,0.0,0.0,0.0,0.0,0.0,0.0,0.0,0.0,0.0,0.0,0.0,0.0,0.0,0.0,0.0,0.0,0.0,0.0,0.0,0.0,0.0,0.0,0.0,0.0,0.0,0.0,0.0,0.0,0.0,11.8083,12.3261,12.7528,13.1115,13.2678,13.2887,13.1593,12.6297,11.9856,0.0,0.0,0.0,0.0,0.0,0.0,0.0,0.0,0.0,0.0,0.0,0.0,0.0,0.0,0.0,0.0,0.0,0.0,0.0,0.0,0.0,0.0,0.0,0.0,0.0,0.0,0.0,0.0,0.0,0.0,0.0,0.0,0.0,0.0,0.0,0.0,0.0,0.0,0.0,0.0,9.3963,9.5848,9.6847,0.0,0.0,0.0,0.0,0.0,0.0,8.9325,8.8863,0.0,0.0,0.0,0.0,0.0,0.0,0.0,0.0,0.0,0.0,0.0,0.0,0.0,0.0,0.0,0.0,0.0,0.0,0.0,0.0,0.0,0.0,0.0,0.0,0.0,0.0,0.0,0.0,0.0,0.0,0.0,0.0,0.0,0.0,0.0,0.0,0.0,0.0,0.0,0.0,0.0,0.0,0.0,0.0,0.0,0.0,0.0,0.0,0.0,0.0,0.0,0.0,0.0,0.0,0.0,11.401,12.2225,12.7613,12.9901,13.156,13.179,13.0331,12.3477,11.6953,0.0,0.0,0.0,0.0,0.0,0.0,0.0,0.0,0.0,0.0,0.0,0.0,0.0,0.0,0.0,0.0,0.0,0.0,0.0,0.0,0.0,0.0,0.0,0.0,0.0,0.0,0.0,0.0,0.0,0.0,0.0,0.0,0.0,0.0,0.0,0.0,0.0,0.0,0.0,0.0,0.0,9.7881,10.0798,9.7728,0.0,0.0,0.0,0.0,9.3864,9.371,0.0,0.0,0.0,0.0,0.0,0.0,0.0,0.0,0.0,0.0,0.0,0.0,0.0,0.0,0.0,0.0,0.0,0.0,0.0,0.0,0.0,0.0,0.0,0.0,0.0,0.0,0.0,0.0,0.0,0.0,0.0,0.0,0.0,0.0,0.0,0.0,0.0,0.0,0.0,0.0,0.0,0.0,0.0,0.0,0.0,0.0,0.0,0.0,0.0,0.0,0.0,0.0,0.0,0.0,0.0,0.0,11.3379,12.0161,12.5921,13.0574,13.1719,13.1238,12.9405,12.6387,11.9844,0.0,0.0,0.0,0.0,0.0,0.0,0.0,0.0,0.0,0.0,0.0,0.0,0.0,0.0,0.0,0.0,0.0,0.0,0.0,0.0,0.0,0.0,0.0,0.0,0.0,0.0,0.0,0.0,0.0,0.0,0.0,0.0,0.0,0.0,0.0,0.0,0.0,0.0,0.0,0.0,0.0,10.3202,10.2107,10.088,10.0497,0.0,0.0,10.0096,10.302,10.2251,0.0,0.0,0.0,0.0,0.0,0.0,0.0,0.0,0.0,0.0,0.0,0.0,0.0,0.0,0.0,0.0,0.0,0.0,0.0,0.0,0.0,0.0,0.0,0.0,0.0,0.0,0.0,0.0,0.0,0.0,0.0,0.0,0.0,0.0,0.0,0.0,0.0,0.0,0.0,0.0,0.0,0.0,0.0,0.0,0.0,0.0,0.0,0.0,0.0,0.0,0.0,0.0,0.0,0.0,0.0,10.6591,11.2736,12.0164,12.588,12.954,13.0441,12.9933,12.7937,12.1865,11.4846,0.0,0.0,0.0,0.0,0.0,0.0,0.0,0.0,0.0,0.0,0.0,0.0,0.0,0.0,0.0,0.0,0.0,0.0,0.0,0.0,0.0,0.0,0.0,0.0,0.0,0.0,0.0,0.0,0.0,0.0,0.0,0.0,0.0,0.0,0.0,0.0,0.0,0.0,0.0,0.0,0.0,0.0,10.7148,10.5994,0.0,0.0,0.0,10.579,10.7713,0.0,0.0,0.0,0.0,0.0,0.0,0.0,0.0,0.0,0.0,0.0,0.0,0.0,0.0,0.0,0.0,0.0,0.0,0.0,0.0,0.0,0.0,0.0,0.0,0.0,0.0,0.0,0.0,0.0,0.0,0.0,0.0,0.0,0.0,0.0,0.0,0.0,0.0,0.0,0.0,0.0,0.0,0.0,0.0,0.0,0.0,0.0,0.0,0.0,0.0,0.0,0.0,0.0,0.0,0.0,0.0,0.0,11.1027,12.0192,12.6162,12.8694,12.9543,12.8777,12.6473,11.9198,0.0,0.0,0.0,0.0,0.0,0.0,0.0,0.0,0.0,0.0,0.0,0.0,0.0,0.0,0.0,0.0,0.0,0.0,0.0,0.0,0.0,0.0,0.0,0.0,0.0,0.0,0.0,6.9495,0.0,0.0,0.0,0.0,0.0,0.0,0.0,0.0,0.0,0.0,0.0,0.0,0.0,0.0,10.4964,11.1416,11.0628,11.1016,0.0,0.0,11.0977,11.2418,11.0769,10.6713,0.0,0.0,0.0,0.0,0.0,0.0,0.0,0.0,0.0,0.0,0.0,0.0,0.0,0.0,0.0,0.0,0.0,0.0,0.0,0.0,0.0,0.0,0.0,0.0,0.0,0.0,0.0,0.0,8.588,8.6757,0.0,0.0,0.0,0.0,0.0,0.0,0.0,0.0,0.0,0.0,0.0,0.0,0.0,0.0,0.0,0.0,0.0,0.0,0.0,0.0,0.0,0.0,0.0,0.0,10.5607,10.7621,11.9146,12.6589,12.9037,12.9577,12.8388,12.5463,12.2509,11.5206,0.0,0.0,0.0,0.0,0.0,0.0,0.0,0.0,0.0,0.0,0.0,0.0,0.0,0.0,0.0,0.0,0.0,0.0,0.0,0.0,0.0,0.0,0.0,0.0,0.0,0.0,0.0,0.0,0.0,0.0,0.0,0.0,0.0,0.0,0.0,0.0,0.0,0.0,0.0,0.0,0.0,10.7548,11.2718,11.3774,11.5861,0.0,11.7761,11.5822,11.8916,11.6086,11.1021,10.3405,0.0,0.0,0.0,0.0,0.0,0.0,0.0,0.0,0.0,0.0,0.0,0.0,0.0,0.0,0.0,0.0,0.0,0.0,0.0,0.0,0.0,0.0,0.0,0.0,0.0,8.6007,8.6974,8.6645,8.6824,0.0,0.0,0.0,0.0,0.0,0.0,0.0,0.0,0.0,0.0,0.0,0.0,0.0,0.0,0.0,0.0,0.0,0.0,0.0,0.0,0.0,0.0,0.0,0.0,10.4591,10.6997,11.8845,12.6341,12.9024,12.9389,12.825,12.5742,12.2506,11.5542,0.0,0.0,0.0,0.0,0.0,0.0,0.0,0.0,0.0,0.0,0.0,0.0,0.0,0.0,0.0,0.0,0.0,0.0,0.0,0.0,0.0,0.0,0.0,0.0,0.0,0.0,0.0,0.0,8.0897,8.2025,8.2084,0.0,0.0,0.0,0.0,0.0,0.0,0.0,0.0,0.0,0.0,11.0665,11.6215,11.7784,0.0,0.0,12.0881,11.9364,12.1936,11.7582,11.2011,10.6615,10.1943,0.0,0.0,0.0,0.0,0.0,0.0,0.0,0.0,0.0,0.0,0.0,0.0,0.0,0.0,0.0,0.0,0.0,0.0,0.0,0.0,0.0,0.0,0.0,0.0,0.0,0.0,8.6529,8.6704,0.0,0.0,0.0,0.0,0.0,0.0,0.0,0.0,0.0,0.0,0.0,0.0,0.0,0.0,0.0,0.0,0.0,0.0,0.0,0.0,0.0,0.0,0.0,0.0,10.5077,10.9503,11.9789,12.6385,12.9159,12.9159,12.8144,12.5912,12.2809,11.6474,0.0,0.0,0.0,0.0,0.0,0.0,0.0,0.0,0.0,0.0,0.0,0.0,0.0,0.0,0.0,0.0,0.0,0.0,0.0,0.0,0.0,0.0,0.0,0.0,0.0,0.0,0.0,0.0,8.3713,8.3766,8.3153,0.0,0.0,0.0,0.0,0.0,0.0,0.0,0.0,0.0,0.0,11.3853,11.9015,12.0356,12.1704,12.4026,12.1479,11.9937,12.1914,11.7894,11.3145,10.8959,0.0,0.0,0.0,0.0,0.0,0.0,0.0,0.0,0.0,0.0,0.0,0.0,0.0,0.0,0.0,0.0,0.0,0.0,0.0,0.0,0.0,0.0,0.0,0.0,0.0,0.0,8.6504,8.4381,0.0,8.5335,8.347,0.0,0.0,0.0,0.0,0.0,0.0,0.0,0.0,0.0,0.0,0.0,0.0,0.0,0.0,0.0,0.0,0.0,0.0,0.0,0.0,0.0,0.0,10.7509,11.5507,12.2335,12.6927,12.9092,12.9159,12.8144,12.5979,12.3989,11.8637,10.9337,0.0,0.0,0.0,0.0,0.0,0.0,0.0,0.0,0.0,0.0,0.0,0.0,0.0,0.0,0.0,0.0,0.0,0.0,0.0,0.0,0.0,0.0,0.0,0.0,0.0,0.0,8.4459,8.4077,8.3198,0.0,0.0,0.0,0.0,0.0,0.0,0.0,0.0,0.0,10.733,11.2763,11.7187,12.0628,12.1076,12.145,12.2483,11.9147,11.6965,11.8683,11.7458,11.4859,0.0,0.0,0.0,0.0,0.0,0.0,0.0,0.0,0.0,0.0,0.0,0.0,0.0,0.0,0.0,0.0,0.0,0.0,0.0,0.0,0.0,0.0,0.0,0.0,0.0,0.0,0.0,9.0323,8.9055,0.0,0.0,0.0,0.0,0.0,0.0,0.0,0.0,0.0,10.2666,0.0,10.7516,11.0075,0.0,0.0,0.0,0.0,0.0,0.0,0.0,0.0,0.0,0.0,0.0,0.0,10.8726,11.609,12.2354,12.6296,12.7986,12.8436,12.7941,12.6255,12.4897,11.9499,10.9471,0.0,0.0,0.0,0.0,0.0,0.0,0.0,0.0,0.0,0.0,0.0,0.0,0.0,0.0,0.0,0.0,0.0,0.0,0.0,0.0,0.0,0.0,0.0,0.0,0.0,8.4866,0.0,0.0,0.0,0.0,0.0,0.0,0.0,0.0,0.0,0.0,9.9695,10.5789,11.1955,11.6507,11.9858,12.157,12.2937,12.3757,0.0,0.0,0.0,0.0,0.0,0.0,0.0,0.0,0.0,0.0,0.0,0.0,0.0,0.0,11.5204,10.3458,10.0398,9.9905,10.0762,0.0,0.0,0.0,0.0,0.0,0.0,0.0,0.0,0.0,0.0,0.0,0.0,0.0,0.0,9.4582,9.3155,9.3427,9.1469,0.0,0.0,0.0,0.0,0.0,0.0,0.0,10.8964,11.2264,11.3773,11.633,11.5786,11.2539,11.1046,10.5852,0.0,0.0,0.0,0.0,0.0,0.0,0.0,0.0,11.0346,11.7008,12.2489,12.5994,12.7319,12.7771,12.7402,12.6195,12.4545,12.0085,11.2321,10.6608,10.1892,0.0,0.0,0.0,0.0,0.0,0.0,0.0,0.0,0.0,0.0,0.0,0.0,0.0,0.0,0.0,0.0,0.0,0.0,0.0,0.0,0.0,0.0,0.0,8.7512,0.0,0.0,0.0,0.0,0.0,0.0,0.0,0.0,0.0,10.2191,10.7257,11.291,11.8342,12.1279,12.3041,12.3334,0.0,0.0,0.0,0.0,0.0,0.0,0.0,11.6969,11.9212,11.8355,11.7266,11.7419,12.0768,12.3188,12.26,0.0,0.0,11.3717,11.0894,11.0605,11.1463,11.1645,11.2072,11.3463,11.4066,11.4745,0.0,0.0,0.0,0.0,10.2585,0.0,0.0,0.0,10.0542,9.8913,0.0,9.7713,0.0,0.0,0.0,0.0,9.8346,10.314,0.0,0.0,11.4553,11.7278,11.7839,12.0571,12.0753,11.8916,12.0652,11.735,10.8966,10.0298,9.4605,0.0,0.0,0.0,0.0,0.0,11.2366,11.8388,12.3097,12.6032,12.6926,12.7078,12.6678,12.5964,12.3298,12.0599,11.7692,11.3676,10.9338,10.4514,9.774,0.0,0.0,0.0,0.0,0.0,0.0,0.0,0.0,0.0,0.0,0.0,0.0,0.0,0.0,0.0,0.0,0.0,0.0,0.0,0.0,9.1142,0.0,0.0,0.0,0.0,0.0,0.0,0.0,0.0,0.0,11.4626,11.1148,11.4672,11.9884,12.5977,0.0,0.0,0.0,0.0,12.4362,12.3628,12.1426,12.0519,12.2061,12.2895,12.3012,12.1974,0.0,0.0,12.3469,12.7009,12.8987,12.4582,12.7666,13.0602,13.0309,12.6537,12.444,12.5153,12.4103,12.3878,12.4706,12.5832,12.7639,10.9625,0.0,0.0,0.0,0.0,10.6113,10.6495,10.8702,10.5297,10.3376,10.2426,10.2134,0.0,0.0,0.0,0.0,0.0,0.0,11.057,11.479,11.6875,11.9254,12.1915,12.1772,12.1093,11.9909,11.9598,11.7009,11.2339,10.9043,10.3267,9.553,0.0,0.0,0.0,0.0,11.4793,11.8452,12.2376,12.4294,12.4056,12.4748,12.4951,12.4793,12.3561,12.2209,12.0667,11.7786,11.4346,11.0218,10.4598,0.0,0.0,0.0,0.0,0.0,0.0,0.0,0.0,0.0,0.0,0.0,0.0,0.0,0.0,0.0,0.0,0.0,0.0,0.0,9.1991,9.4227,9.6037,0.0,0.0,0.0,0.0,0.0,0.0,0.0,0.0,0.0,12.2329,12.397,12.5684,0.0,0.0,12.7446,12.6638,12.6344,12.6344,12.6711,12.561,0.0,12.5463,12.4142,12.3897,12.6367,12.9361,13.1176,13.0519,13.1452,13.1997,13.1043,13.2144,13.3245,13.3686,13.133,12.9246,12.9295,12.9162,12.9118,12.9387,13.0055,13.0696,11.5418,11.1795,11.0816,11.1543,11.3045,11.1114,11.1076,11.2372,10.9649,10.8147,10.7699,10.7273,10.6214,10.4636,10.5753,0.0,0.0,0.0,11.5339,11.9158,11.9519,12.1048,12.3335,12.2339,12.1567,12.1032,11.9714,11.7736,11.5338,11.4302,10.9831,10.232,0.0,10.5687,10.6404,11.1993,11.6184,11.8765,12.1649,12.262,12.1947,12.269,12.3226,12.3351,12.3364,12.2879,12.1659,12.0041,11.7644,11.4342,10.9538,10.372,0.0,0.0,0.0,0.0,0.0,0.0,0.0,0.0,0.0,0.0,0.0,8.3091,8.0105,0.0,0.0,0.0,9.1434,9.4951,9.8973,10.1248,0.0,0.0,0.0,0.0,0.0,0.0,0.0,12.035,12.3463,12.6368,12.934,13.004,13.0263,13.0268,13.0079,12.9713,12.9354,0.0,12.8473,12.8987,12.84,12.8055,12.854,12.7109,12.6994,12.9771,13.1503,13.2927,13.3823,13.3823,13.3892,13.444,13.464,13.4787,13.5301,13.3865,13.2699,13.2699,13.2802,13.2904,13.2904,13.2904,13.3052,12.1143,12.0756,11.693,11.5563,11.6044,11.6519,11.528,11.2994,11.2958,11.2641,11.2028,11.2657,11.2483,11.1642,11.3074,11.4794,11.6762,11.871,12.0522,12.2215,12.2327,12.2627,12.3218,12.2404,12.1963,12.1843,12.0515,11.9244,11.8094,11.6829,11.4285,11.0563,10.9507,11.0086,11.2223,11.4362,11.6713,11.9112,12.0524,12.0965,12.0339,12.0753,12.118,12.1732,12.2721,12.2516,12.1103,12.0787,11.9569,11.6968,11.2918,10.8252,10.3046,0.0,0.0,0.0,0.0,0.0,0.0,0.0,0.0,0.0,0.0,0.0,0.0,0.0,0.0,9.5882,10.106,0.0,10.8737,11.0366,0.0,0.0,0.0,11.3773,11.6049,12.0058,12.3433,12.5395,0.0,0.0,13.2942,13.3251,13.3552,13.3691,13.3019,13.2597,13.2866,13.1399,13.0519,13.0614,13.0006,12.9901,13.0753,13.0719,13.0856,13.2079,13.2675,13.3238,13.4178,13.4627,13.4976,13.5247,13.5374,13.5374,13.5374,13.5227,13.5374,13.5227,13.5301,13.5301,13.5207,13.5207,13.5134,12.3595,12.1943,12.0954,11.9283,11.727,11.6963,11.5973,11.4341,11.3984,11.352,11.3231,11.4136,11.5463,11.7059,11.7459,11.859,12.0127,12.1997,12.2867,12.2962,12.3417,12.3465,12.3105,12.2439,12.1892,12.1352,12.0562,11.9422,11.8174,11.7395,11.5716,11.3234,11.2907,11.2174,11.1138,11.4153,11.617,11.6962,11.7838,11.836,11.8197,11.8254,11.838,11.852,11.9927,12.0447,11.9821,11.9608,11.8964,11.7698,11.4839,11.1077,10.6425,9.9535,0.0,0.0,0.0,0.0,0.0,0.0,0.0,0.0,0.0,9.621,8.7076,0.0,10.0084,0.0,10.7402,11.1561,11.1743,11.4046,0.0,0.0,12.0519,12.164,12.7821,12.7825,12.834,13.1064,13.2217,13.2923,13.339,13.3521,13.3564,13.3673,13.2914,13.2397,13.2382,13.1583,13.1147,13.1655,13.1203,13.0783,13.1049,13.1351,13.1912,13.326,13.3411,13.3601,13.4415,13.4729,13.4976,13.532,13.5374,13.5374,13.5374,13.5374,13.5374,13.5374,13.5374,13.5374,13.5374,13.5374,13.5374,12.469,12.3084,12.2581,12.1138,11.8927,11.7867,11.6807,11.5601,11.4798,11.4388,11.4357,11.4871,11.6253,11.83,11.8789,11.9923,12.1593,12.3391,12.3937,12.3684,12.3901,12.3764,12.3105,12.2507,12.1849,12.119,12.0532,11.9694,11.8677,11.7959,11.6749,11.5086,11.5026,11.3961,11.1949,11.3858,11.5098,11.5234,11.5612,11.6063,11.633,11.6263,11.6249,11.6198,11.7494,11.753,11.6333,11.696,11.6177,11.3764,11.2864,11.0945,10.7776,10.2711,9.9254,0.0,0.0,0.0,0.0,0.0,0.0,0.0,0.0,0.0,0.0,0.0,10.5342,10.6625,11.3358,11.7888,11.8267,12.1243,12.4648,12.8195,12.7349,12.8138,13.2076,13.1218,13.113,13.3233,13.2855,13.2641,13.3319,13.2702,13.2218,13.243,13.1902,13.1941,13.2998,13.2663,13.2302,13.2735,13.2158,13.1618,13.1542,13.1607,13.1893,13.2678,13.2715,13.2855,13.3802,13.4242,13.4589,13.5103,13.5266,13.5448,13.5374,13.5374,13.5374,13.5374,13.5374,13.5374,13.5374,13.5374,13.5374,12.503,12.4038,12.2983,12.1828,12.0573,11.9066,11.776,11.6605,11.5551,11.5144,11.5125,11.4846,11.5596,11.7123,11.7904,11.9343,12.1467,12.2902,12.3624,12.3814,12.3796,12.3537,12.2993,12.2335,12.1797,12.131,12.0592,11.9934,11.9335,11.8557,11.748,11.6223,11.6163,11.5146,11.3231,11.3396,11.3654,11.38,11.3856,11.4158,11.4547,11.4467,11.4251,11.3875,11.4599,11.3983,11.1695,11.3326,11.2406,10.8536,10.9637,10.9843,10.8503,10.5818,10.4472,0.0,10.2382,0.0,0.0,0.0,0.0,0.0,0.0,0.0,0.0,11.0892,11.1839,11.2854,11.9356,12.4118,12.562,12.8807,13.1383,13.2815,13.3028,13.2849,13.2372,13.2341,13.2731,13.3627,13.2603,13.2149,13.29,13.1566,13.0565,13.1031,13.0921,13.1518,13.3564,13.3435,13.2863,13.3062,13.2489,13.1836,13.176,13.1516,13.1448,13.1658,13.1795,13.1902,13.3013,13.3613,13.4168,13.4718,13.5103,13.532,13.532,13.532,13.5448,13.5374,13.5374,13.5374,13.5374,13.5374,13.5374,12.544,12.464,12.3987,12.2531,12.0623,11.992,11.8715,11.7208,11.6555,11.59,11.5125,11.3324,11.3338,11.4675,11.5198,11.6321,11.7861,11.994,12.1169,12.1798,12.1822,12.1989,12.2313,12.1832,12.17,12.1909,12.0771,12.0173,11.9993,11.8796,11.73,11.5505,11.5445,11.4487,11.2572,0.0,0.0,0.0,11.3198,11.3258,11.2761,11.2086,11.1009,10.9265,10.9517,0.0,10.7254,10.8547,10.9049,10.8269,11.0113,0.0,0.0,0.0,0.0,0.0,0.0,0.0,0.0,0.0,0.0,0.0,11.6664,11.5599,11.4811,12.0093,12.3002,12.1582,12.5617,12.8513,12.8908,13.0462,13.1793,13.2705,13.3322,13.3495,13.3123,13.3519,13.3899,13.3757,13.286,13.2279,13.2212,13.1419,13.0851,13.0938,13.1032,13.1276,13.2037,13.1581,13.1027,13.0957,13.1027,13.0955,13.1148,13.0843,13.0967,13.1824,13.2066,13.229,13.2949,13.3655,13.4033,13.4241,13.4662,13.4994,13.5049,13.5212,13.5374,13.5448,13.5448,13.5374,13.5374,13.5448,13.5374,12.3465,12.2521,12.1685,12.0731,0.0,11.8731,11.7915,11.7097,11.6755,11.5802,11.4586,11.287,11.2435,11.3107,11.3633,11.467,11.5916,11.8071,11.9296,11.9726,12.0508,12.0768,12.0764,12.0815,12.0914,12.1222,12.0209,11.9723,11.9694,11.8677,11.736,11.5744,11.5804,11.4966,11.335,11.3291,11.3111,11.2812,11.3171,11.3171,11.2752,11.2101,11.1099,10.9816,10.9399,0.0,0.0,0.0,0.0,0.0,0.0,0.0,0.0,11.0484,0.0,11.4058,11.3452,11.3643,11.5241,11.7264,12.0067,12.3664,12.574,12.5096,12.1099,12.5641,12.8144,12.713,12.9457,13.1179,13.1179,13.2021,13.2797,13.3137,13.3545,13.3666,13.3485,13.3757,13.3741,13.3167,13.2407,13.1745,13.1247,13.0501,13.012,13.0181,13.0124,13.0204,13.0451,13.0772,13.0967,13.0967,13.0818,13.0806,13.0993,13.0526,13.0363,13.117,13.1371,13.1566,13.2291,13.3086,13.3592,13.3625,13.4256,13.4761,13.4662,13.4866,13.5212,13.5394,13.5741,13.5961,13.5961,13.5961,13.6108,12.0408,11.979,11.864,11.8082,11.7561,11.6822,11.648,11.6575,11.635,0.0,11.4044,11.294,11.2075,11.1734,11.2593,11.339,11.4253,11.6146,11.7226,11.7519,11.8713,11.9086,11.8835,11.9425,11.9716,11.9967,11.954,11.9221,11.9226,11.8737,11.7659,11.6403,11.6283,11.5625,11.4368,11.4308,11.4009,11.353,11.335,11.3231,11.3111,11.2453,11.1745,11.1055,11.0379,10.9088,10.7275,10.8555,10.7956,10.5155,10.7004,10.9044,11.0917,11.1853,11.4673,11.9716,12.0476,12.1416,12.3186,12.4635,12.6198,12.7938,13.171,13.2139,12.759,12.9633,13.1054,13.0918,13.2001,13.2677,13.2745,13.3286,13.3692,13.3692,13.3692,13.3692,13.3692,13.3557,13.3219,13.2542,13.1798,13.0986,13.0377,12.9701,12.9159,12.9227,12.9241,12.9159,12.9322,13.0294,13.0938,13.0938,13.0637,13.0687,13.0598,13.0204,12.9953,13.0362,13.044,13.0648,13.1342,13.2291,13.2887,13.2963,13.3699,13.425,13.4314,13.455,13.4939,13.5212,13.5834,13.6475,13.6769,13.6842,13.6989,11.7464,11.84,11.6892,11.5713,11.4841,11.4618,11.4808,11.5055,11.5199,11.4747,11.4044,11.294,11.1835,11.1018,11.1177,11.1556,11.1867,11.2895,11.402,11.5311,11.5135,11.5583,11.6763,11.6981,11.7549,11.8612,11.9061,11.9316,11.9281,11.9176,11.8138,11.6522,11.6283,11.5625,11.4368,11.4308,11.4248,11.4128,11.359,11.3051,11.2453,11.1794,11.0519,10.8938,10.8314,10.7134,10.5811,10.7099,10.7424,10.7074,10.9414,11.1577,11.3294,11.4337,11.607,11.8227,11.9499,12.0555,12.1704,12.3485,12.6348,13.0305,13.2601,13.3396,13.2713,13.3557,13.3895,13.3286,13.3354,13.3557,13.3557,13.3625,13.3625,13.3692,13.3692,13.3692,13.3625,13.3016,13.261,13.2407,13.1257,13.0445,13.0242,12.9633,12.9159,12.9159,12.9159,12.9159,12.9159,12.9389,12.9483,12.9483,12.9483,12.947,12.9564,12.9403,12.9483,12.9805,13.0146,13.0363,13.0504,13.1489,13.222,13.221,13.2918,13.3502,13.395,13.4344,13.4623,13.4884,13.5378,13.5981,13.7136,13.7503,13.765,11.2042,11.2305,11.0655,11.0189,11.0844,11.1901,11.2395,11.2936,11.3922,11.4549,11.4496,11.3693,11.2739,11.1634,11.1642,11.136,11.1224,11.1747,11.2204,11.2657,11.2877,11.3376,11.415,11.4546,11.5656,11.7197,11.7568,11.8077,11.8672,11.8745,11.7943,11.6345,11.5356,11.4251,11.342,11.3678,11.3888,11.3829,11.38,11.3709,11.335,11.2752,11.1974,11.1076,11.0418,10.976,10.9161,10.97,11.0059,11.0059,11.1196,11.2683,11.4423,11.5093,11.6434,11.8799,11.9473,12.0288,12.1366,12.3504,12.6099,12.9296,13.1135,13.2145,13.2247,13.363,13.4249,13.376,13.3692,13.3692,13.3692,13.3286,13.3016,13.3083,13.2677,13.2475,13.2407,13.2204,13.173,13.1324,13.0715,13.0174,12.9701,12.943,12.9227,12.9159,12.9159,12.9159,12.9159,12.9159,12.9159,12.9159,12.9159,12.9159,12.9159,12.9159,12.9105,12.8928,12.9533,12.9863,12.9719,13.0565,13.1393,13.1647,13.2218,13.2944,13.334,13.3818,13.4169,13.4381,13.5194,13.6129,13.677,13.732,13.809,10.683,10.6842,10.5025,10.5024,10.6556,10.8517,10.9578,11.026,11.2248,11.3523,11.4149,11.4098,11.3492,11.2387,11.186,11.1338,11.0873,11.1031,11.0817,11.0474,11.0942,11.1259,11.1594,11.2135,11.3507,11.5188,11.5799,11.6584,11.7434,11.7752,11.7024,11.5379,11.3765,11.2668,11.2081,11.2558,11.2983,11.3196,11.3724,11.4203,11.4248,11.3769,11.353,11.347,11.2991,11.2752,11.2752,11.2752,11.2752,11.2752,11.2872,11.3678,11.5234,11.5475,11.6736,11.9089,11.9558,12.0073,12.1294,12.3237,12.5314,12.7288,12.8898,13.0076,13.0637,13.1891,13.2773,13.2995,13.2946,13.2879,13.2677,13.2291,13.1988,13.1853,13.1548,13.1361,13.1294,13.1174,13.0986,13.0377,13.0174,12.9836,12.9362,12.9159,12.9159,12.9159,12.9159,12.9159,12.9159,12.9159,12.9159,12.9024,12.9092,12.9092,12.9024,12.8956,12.8618,12.8009,12.8725,12.9033,12.9001,12.9884,13.0783,13.1007,13.1702,13.2291,13.2536,13.322,13.374,13.3901,13.475,13.5757,13.6183,13.6935,13.8109,10.4357,10.48,10.31,10.259,10.2847,10.4117,10.5812,10.7546,10.9741,11.1252,11.2213,11.3501,11.3344,11.2387,11.1427,11.0673,11.0069,10.9608,10.9426,10.9429,10.9148,10.9104,10.932,10.9679,11.0518,11.2028,11.3841,11.4751,11.508,11.6063,11.5129,11.2478,11.1389,11.0754,11.0345,11.0775,11.1533,11.2605,11.3196,11.3783,11.4308,11.4248,11.4188,11.4188,11.4128,11.4128,11.4009,11.4128,11.4069,11.4128,11.4607,11.5431,11.609,11.6689,11.7408,11.8294,11.9002,11.9795,12.0928,12.2092,12.3548,12.5176,12.6382,12.7634,12.8665,12.8553,12.9155,13.0384,13.0896,13.0741,13.0276,13.036,13.0201,12.9839,13.0151,13.0876,13.0674,13.0535,13.0377,13.0309,12.9619,12.9295,12.9227,12.9159,12.9159,12.9159,12.9159,12.9159,12.9159,12.9092,12.8889,12.855,12.8753,12.8821,12.8415,12.8212,12.7874,12.7332,12.7738,12.809,12.8386,12.9033,13.0056,13.0413,13.0917,13.1485,13.2007,13.2773,13.3197,13.3188,13.3985,13.5012,13.5903,13.6622,13.7556,10.0875,10.0885,9.9404,9.8834,9.9178,10.1092,10.2747,10.3843,10.6604,10.8381,10.955,11.1017,11.2005,11.2553,11.1739,11.0981,11.0378,10.9525,10.8963,10.8691,10.8136,10.8035,10.8131,10.8133,10.8839,11.0282,11.1597,11.2652,11.3352,11.357,11.267,11.0734,10.9427,10.8578,10.8354,10.8966,10.979,11.0992,11.1915,11.2877,11.3618,11.4098,11.4308,11.4308,11.4308,11.4308,11.4308,11.4308,11.4308,11.4308,11.4906,11.5565,11.6223,11.6881,11.7719,11.8677,11.9036,11.9542,12.0407,12.0579,12.1121,12.2413,12.3175,12.3905,12.4315,12.4393,12.4661,12.5175,12.7232,12.8527,12.8198,12.7981,12.7828,12.7848,12.7865,12.8029,12.8607,12.8592,12.8642,12.914,12.8953,12.8915,12.9145,12.9159,12.9159,12.9159,12.9159,12.9159,12.9159,12.8821,12.8483,12.8144,12.8077,12.7806,12.7468,12.7468,12.713,12.6724,12.6994,12.7468,12.7535,12.8157,12.9021,12.9829,13.0413,13.0772,13.0967,13.1861,13.2498,13.254,13.3013,13.4068,13.5357,13.5462,13.5822,9.8789,9.8203,9.7031,9.6369,9.6515,9.8747,9.9817,10.0581,10.3173,10.513,10.6352,10.8201,10.9905,11.1203,11.1363,11.1143,11.073,10.9776,10.9023,10.847,10.7817,10.7544,10.7593,10.7059,10.7453,10.8656,10.935,11.0192,11.087,11.0375,10.9453,10.8047,10.6788,10.6177,10.6214,10.6758,10.7789,10.942,11.0639,11.1842,11.3088,11.3764,11.4172,11.4308,11.4308,11.4308,11.4308,11.4487,11.4547,11.4607,11.5325,11.6043,11.6522,11.7121,11.8078,11.9275,11.9096,11.9313,12.0108,11.9386,11.9273,12.0167,12.057,12.0723,12.0848,12.0924,12.0792,12.0756,12.2912,12.4449,12.5105,12.5057,12.4941,12.5108,12.4944,12.5455,12.6132,12.6478,12.7078,12.7838,12.8089,12.8504,12.8996,12.9159,12.9159,12.9159,12.9159,12.9092,12.8956,12.8415,12.8009,12.7603,12.6994,12.6791,12.6724,12.6656,12.6385,12.5979,12.6182,12.6656,12.6791,12.7468,12.8144,12.9101,12.9772,13.0225,13.0518,13.1164,13.1923,13.1869,13.2271,13.3099,13.413,13.3902,13.3961,9.875,9.8203,9.7031,9.6009,9.5498,9.6474,9.7101,9.7712,9.9858,10.1538,10.306,10.5688,10.7277,10.796,10.9824,11.091,11.0686,11.0178,10.9575,10.8922,10.7968,10.7466,10.7505,10.6581,10.6448,10.7236,10.7529,10.7544,10.7292,10.6544,10.5266,10.3712,10.3607,10.3586,10.3714,10.4167,10.5595,10.7879,10.9143,11.0844,11.2458,11.3196,11.3741,11.4172,11.4308,11.4368,11.4428,11.4906,11.5206,11.5206,11.6403,11.7121,11.724,11.7779,11.8737,11.9814,11.8976,11.8856,11.9754,11.9025,11.8522,11.8999,11.8729,11.8668,11.9366,11.8655,11.8186,11.8509,11.8418,11.899,12.0313,12.1382,12.1609,12.1292,12.2505,12.3422,12.3695,12.4771,12.5892,12.6498,12.7351,12.8172,12.8996,12.9159,12.9159,12.9159,12.9159,12.8889,12.828,12.8077,12.7468,12.6521,12.6047,12.5979,12.5979,12.5912,12.5573,12.5303,12.5506,12.5979,12.6453,12.6994,12.7603,12.836,12.9089,12.9681,12.9977,13.0481,13.1214,13.1485,13.1513,13.2144,13.2527,13.2555,13.264,9.8281,9.7148,9.6679,9.5649,9.4477,9.5459,9.5563,9.5426,9.6702,9.8099,9.9635,10.1362,10.316,10.5086,10.6184,10.7487,10.8951,10.9226,10.8961,10.8312,10.7737,10.7466,10.7365,10.6386,10.5989,10.6346,10.6168,10.5861,10.5417,10.4865,10.4059,10.3025,10.1921,10.163,10.199,10.2238,10.3486,10.5467,10.6764,10.8564,11.0733,11.1905,11.2834,11.3855,11.4617,11.5146,11.5565,11.5804,11.5924,11.5924,11.6762,11.724,11.73,11.8258,11.9036,11.9455,11.9096,11.9036,11.9395,11.8737,11.8126,11.7815,11.7682,11.7248,11.6889,11.6451,11.6132,11.5917,11.5675,11.582,11.6454,11.7932,11.9001,11.9144,11.9602,12.0563,12.1479,12.2412,12.3422,12.486,12.6518,12.8089,12.8586,12.8996,12.9024,12.8618,12.8483,12.8144,12.7535,12.7062,12.6521,12.5979,12.5438,12.51,12.51,12.5167,12.5032,12.4964,12.5032,12.5506,12.5912,12.625,12.6791,12.7738,12.8521,12.9064,12.9373,12.9817,13.0569,13.1055,13.1047,13.0727,13.0815,13.0953,13.0863,9.7656,9.6562,9.6328,9.5351,9.4123,9.4575,9.4279,9.3625,9.4426,9.5519,9.6754,9.7674,9.9296,10.1068,10.2013,10.3011,10.4679,10.6455,10.7331,10.7219,10.6848,10.6775,10.6946,10.6096,10.5758,10.5702,10.513,10.4501,10.3711,10.3175,10.2611,10.1996,10.0617,10.0284,10.0813,10.0955,10.1866,10.3411,10.4746,10.6542,10.8542,11.0107,11.1529,11.2933,11.4118,11.513,11.5963,11.6356,11.6582,11.6702,11.7181,11.754,11.7659,11.8378,11.8976,11.9156,11.8976,11.8976,11.9036,11.8378,11.7659,11.724,11.6822,11.6163,11.5325,11.5086,11.4727,11.4428,11.4308,11.4308,11.4561,11.5596,11.6657,11.7162,11.7501,11.8098,11.9179,12.0051,12.1667,12.372,12.5739,12.7266,12.8105,12.8466,12.8374,12.8064,12.7941,12.7468,12.6724,12.625,12.5776,12.5506,12.51,12.4829,12.4829,12.4897,12.4897,12.4761,12.4761,12.51,12.537,12.5641,12.6182,12.713,12.7874,12.8415,12.8902,12.9335,12.9749,13.0178,13.002,12.9663,12.9642,12.9393,12.9272,9.6914,9.6445,9.6015,9.5117,9.3984,9.4044,9.3398,9.2967,9.3151,9.375,9.4506,9.5372,9.6134,9.6657,9.8173,9.8295,9.848,10.1908,10.4451,10.5149,10.5,10.5514,10.6253,10.5888,10.5607,10.5695,10.4654,10.3482,10.2106,10.1633,10.0898,10.0164,9.984,9.9745,10.0208,10.0362,10.0922,10.221,10.3534,10.4771,10.6117,10.7976,10.9683,11.1526,11.2782,11.3995,11.5222,11.6512,11.7133,11.7193,11.7779,11.8198,11.8138,11.8258,11.8497,11.8916,11.8557,11.8557,11.8916,11.8018,11.742,11.7001,11.6103,11.5505,11.5146,11.4667,11.4368,11.4308,11.4308,11.4308,11.4308,11.4517,11.4829,11.508,11.6108,11.6657,11.7061,11.816,12.021,12.2874,12.4682,12.6239,12.7217,12.7552,12.7494,12.7469,12.7239,12.6644,12.5968,12.5697,12.5506,12.5032,12.4761,12.4694,12.4694,12.4694,12.4694,12.4694,12.4694,12.4829,12.5032,12.5235,12.5641,12.6521,12.74,12.7941,12.828,12.8644,12.8589,12.8865,12.8682,12.8499,12.8152,12.7929,12.7815,9.7109,9.6484,9.6328,9.5351,9.3984,9.3867,9.3398,9.2578,9.2496,9.2756,9.3008,9.3212,9.3501,9.4061,9.4677,9.4657,9.4886,9.6122,9.8441,10.1925,10.3311,10.4614,10.575,10.5666,10.5269,10.4668,10.4352,10.3499,10.2394,10.1691,10.1138,10.0686,10.0435,10.0264,10.0171,10.0121,10.0508,10.1357,10.1889,10.2817,10.4136,10.601,10.746,10.8645,11.0482,11.2045,11.2955,11.5757,11.7249,11.7249,11.7862,11.8198,11.8198,11.8198,11.8318,11.8437,11.8318,11.8258,11.8437,11.8138,11.748,11.6702,11.6163,11.5505,11.4727,11.4428,11.4308,11.4308,11.4308,11.4308,11.4308,11.4308,11.4412,11.4517,11.4873,11.5287,11.5801,11.7324,11.9242,12.1196,12.2993,12.4593,12.5673,12.6072,12.6233,12.603,12.5837,12.5501,12.4906,12.493,12.5032,12.4761,12.4694,12.4694,12.4694,12.4694,12.4694,12.4694,12.4694,12.4694,12.4829,12.4897,12.5303,12.5912,12.6791,12.74,12.7671,12.7887,12.7899,12.7696,12.7584,12.72,12.6745,12.6443,12.6425,9.5415,9.4839,9.4281,9.3325,9.2305,9.2266,9.216,9.2092,9.182,9.1875,9.2017,9.1874,9.1844,9.1936,9.1746,9.1679,9.1923,9.1659,9.3625,9.7508,10.0163,10.2195,10.4229,10.5293,10.5219,10.4518,10.4252,10.3699,10.2846,10.2093,10.154,10.1239,10.0988,10.0686,10.0385,10.0335,10.0596,10.0884,10.1277,10.1843,10.2809,10.4447,10.5515,10.6449,10.852,10.9959,11.079,11.3648,11.5678,11.6559,11.7437,11.7873,11.7873,11.809,11.8198,11.8198,11.8198,11.8198,11.8198,11.7959,11.754,11.6702,11.6163,11.5565,11.4787,11.4487,11.4308,11.4308,11.4308,11.4308,11.4308,11.4308,11.4308,11.4308,11.4412,11.4517,11.5244,11.6414,11.7961,11.9568,12.1101,12.2597,12.3926,12.4359,12.4678,12.4376,12.4382,12.4385,12.4009,12.4287,12.4379,12.4615,12.4694,12.4694,12.4694,12.4694,12.4694,12.4694,12.4694,12.4694,12.4761,12.4761,12.5032,12.5641,12.6453,12.6859,12.713,12.7197,12.7277,12.6927,12.6521,12.607,12.5549,12.521,12.4977,9.2226,9.1632,9.0301,8.9676,8.933,8.9399,8.9847,9.08,9.0961,9.0811,9.0926,9.1038,9.0547,8.9661,8.9912,8.9778,8.8904,8.953,9.0484,9.2473,9.5326,9.8325,10.1623,10.4304,10.5141,10.4732,10.4453,10.39,10.3248,10.2394,10.1741,10.159,10.1289,10.0938,10.0938,10.0938,10.0938,10.1149,10.1491,10.178,10.191,10.3074,10.4049,10.4686,10.6472,10.7786,10.854,11.0578,11.2897,11.5172,11.6567,11.7008,11.7278,11.7824,11.7992,11.8041,11.809,11.8198,11.8078,11.7779,11.736,11.7121,11.6223,11.5325,11.5325,11.4847,11.4487,11.4428,11.4368,11.4308,11.4308,11.4308,11.4308,11.4308,11.4308,11.4517,11.4977,11.5596,11.6657,11.7961,11.9144,12.0339,12.207,12.2229,12.2577,12.2896,12.3016,12.3068,12.3413,12.37,12.4208,12.4379,12.4536,12.4615,12.4615,12.4694,12.4694,12.4694,12.4694,12.4694,12.4694,12.4694,12.4761,12.537,12.5844,12.625,12.6385,12.6385,12.625,12.5979,12.5506,12.4964,12.4559,12.4298,12.397,8.9983,8.8621,8.8327,8.761,8.69,8.7121,8.7265,8.7434,8.8302,8.8381,8.8455,8.9463,8.9154,8.8437,8.8777,8.8771,8.831,8.7852,8.7871,8.8843,9.1057,9.5954,10.0898,10.3931,10.4882,10.4333,10.4532,10.4302,10.3398,10.2996,10.2444,10.1741,10.1942,10.1841,10.154,10.149,10.149,10.1389,10.1169,10.1149,10.1331,10.2063,10.2531,10.279,10.4204,10.5298,10.6003,10.8211,11.1167,11.4451,11.5077,11.5755,11.6429,11.6764,11.7142,11.7387,11.7546,11.7764,11.809,11.8018,11.7719,11.73,11.6881,11.6522,11.6043,11.5385,11.5086,11.4906,11.4607,11.4308,11.4308,11.4308,11.4308,11.4308,11.4308,11.4412,11.4561,11.4977,11.5699,11.6516,11.7463,11.8555,11.9346,11.9962,12.0425,12.0963,12.136,12.1759,12.2197,12.2719,12.3094,12.3901,12.422,12.4458,12.4536,12.4615,12.4694,12.4694,12.4694,12.4694,12.4694,12.4694,12.4761,12.4964,12.5167,12.5506,12.5303,12.5167,12.5032,12.5235,12.4897,12.4559,12.4085,12.3679,12.3351,8.5018,8.3712,8.2784,8.2369,8.2019,8.2216,8.287,8.4087,8.4456,8.5161,8.5891,8.7019,8.7455,8.7285,8.7959,8.8117,8.778,8.7334,8.7249,8.7715,8.9949,9.4342,9.9439,10.2547,10.3723,10.3942,10.4283,10.4231,10.38,10.3448,10.2846,10.2243,10.2344,10.2344,10.2093,10.2042,10.2042,10.1992,10.1691,10.154,10.154,10.1936,10.2067,10.233,10.3246,10.4053,10.4952,10.6247,10.8674,11.1572,11.3113,11.3931,11.4509,11.5308,11.5809,11.6117,11.639,11.689,11.7655,11.7873,11.7802,11.7552,11.742,11.7061,11.6642,11.6103,11.5684,11.5265,11.4906,11.4607,11.4308,11.4308,11.4428,11.4667,11.4487,11.4308,11.4308,11.4621,11.4977,11.5493,11.6108,11.682,11.7463,11.8022,11.8589,11.9108,11.9411,12.0077,12.0891,12.1405,12.2022,12.2849,12.366,12.3901,12.4299,12.4458,12.4694,12.4694,12.4694,12.4694,12.4694,12.4694,12.4694,12.4761,12.4694,12.4694,12.4694,12.4694,12.4761,12.4761,12.4491,12.4017,12.3476,12.3002,12.2596,7.8572,7.8032,7.5786,7.5649,7.6459,7.5986,7.756,7.9932,8.0033,8.089,8.2676,8.3903,8.4578,8.5366,8.6338,8.7205,8.6991,8.7109,8.7281,8.7916,8.9586,9.2789,9.6446,9.9939,10.1828,10.2844,10.3605,10.3985,10.4031,10.3665,10.3248,10.2796,10.2645,10.2544,10.2444,10.2444,10.2494,10.2444,10.2394,10.2293,10.2293,10.2426,10.2426,10.2559,10.2957,10.3596,10.4205,10.4828,10.5853,10.8039,11.063,11.1557,11.1705,11.3293,11.3934,11.4273,11.4777,11.5503,11.6611,11.6721,11.7109,11.7259,11.6951,11.6978,11.6643,11.6226,11.5737,11.5353,11.522,11.4861,11.4667,11.4487,11.4787,11.5026,11.4727,11.4428,11.4308,11.4308,11.4517,11.4873,11.4977,11.5493,11.6108,11.6556,11.6816,11.7613,11.7872,11.8379,11.9033,11.9556,12.0477,12.1621,12.2453,12.3337,12.3821,12.4299,12.4536,12.4694,12.4694,12.4694,12.4694,12.4694,12.4694,12.4694,12.4694,12.4694,12.4694,12.4694,12.4559,12.4288,12.395,12.3273,12.2596,12.219,12.1785,7.4971,7.3486,7.3038,7.2817,7.2548,7.2621,7.3231,7.3986,7.4984,7.5765,7.6845,7.8935,8.0562,8.1502,8.3318,8.4525,8.5187,8.5738,8.6663,8.7431,8.7798,8.9268,9.232,9.6356,9.9331,10.0872,10.2746,10.3655,10.3897,10.4095,10.4101,10.3298,10.3147,10.2946,10.2595,10.2595,10.2544,10.2544,10.2544,10.2544,10.2544,10.2544,10.2544,10.2544,10.2678,10.2893,10.3058,10.3536,10.4092,10.5009,10.6775,10.854,10.9684,11.0034,11.0864,11.2018,11.244,11.3132,11.4268,11.4948,11.5168,11.545,11.5444,11.538,11.5823,11.5294,11.5143,11.5141,11.4928,11.4902,11.51,11.5565,11.5625,11.5445,11.5206,11.4847,11.4428,11.4308,11.4412,11.4517,11.4517,11.4621,11.4873,11.5287,11.5722,11.6189,11.6454,11.6664,11.725,11.7792,11.8765,11.9849,12.12,12.2039,12.3012,12.358,12.4061,12.4299,12.4379,12.4334,12.4334,12.448,12.4412,12.448,12.4694,12.4626,12.4491,12.4085,12.3814,12.3544,12.3273,12.2596,12.1988,12.1582,12.1176,7.1127,7.0109,6.9575,6.9237,6.9283,6.912,6.9537,7.0223,7.0563,7.1338,7.2335,7.4595,7.584,7.6878,7.9514,8.1272,8.2101,8.3613,8.496,8.5853,8.6238,8.7033,8.8616,9.2147,9.5371,9.8202,10.0823,10.2271,10.3319,10.3947,10.4095,10.38,10.375,10.3448,10.2996,10.2896,10.2745,10.2544,10.2544,10.2544,10.2544,10.2544,10.2544,10.2544,10.2544,10.2544,10.2627,10.2893,10.3026,10.3373,10.4121,10.55,10.7155,10.7719,10.8604,10.9595,11.0283,11.1369,11.2659,11.3472,11.382,11.3991,11.4105,11.4102,11.4326,11.4146,11.4298,11.4487,11.4789,11.5201,11.6057,11.6103,11.6103,11.6163,11.5625,11.5146,11.4787,11.4487,11.4308,11.4308,11.4308,11.4308,11.4517,11.4725,11.4977,11.5559,11.4629,11.4876,11.555,11.6149,11.6768,11.7907,11.9479,12.0775,12.1789,12.2684,12.3499,12.3741,12.3968,12.3792,12.3681,12.3906,12.4052,12.4131,12.4288,12.4153,12.395,12.3544,12.307,12.2935,12.2529,12.1988,12.1514,12.1108,12.077,6.8064,6.7538,6.6475,6.6376,6.6532,6.5936,6.6512,6.7653,6.6955,6.7656,6.8837,7.0333,7.1346,7.2462,7.5422,7.7118,7.8737,8.012,8.2033,8.3742,8.4389,8.5248,8.6631,8.8792,9.1414,9.5488,9.8252,10.03,10.1888,10.2993,10.321,10.3536,10.3709,10.3088,10.2774,10.3029,10.2778,10.2562,10.2544,10.2544,10.2544,10.2544,10.2544,10.2544,10.2544,10.2544,10.2544,10.2544,10.2544,10.2544,10.2544,10.3171,10.4256,10.5369,10.6489,10.7238,10.7824,10.8839,11.042,11.1262,11.1691,11.2482,11.2309,11.2087,11.1923,11.2157,11.2559,11.357,11.4222,11.5706,11.6858,11.7001,11.6881,11.6881,11.6163,11.5565,11.5206,11.4727,11.4547,11.4308,11.4308,11.4308,11.4308,11.4412,11.4725,11.4589,11.3609,11.3234,11.3875,11.441,11.4956,11.5896,11.7456,11.9239,12.0453,12.1321,12.2222,12.2434,12.2745,12.2668,12.2587,12.2758,12.2917,12.3658,12.3814,12.3611,12.3273,12.2799,12.2461,12.2258,12.1852,12.1243,12.0905,12.0634,12.0499,6.676,6.625,6.5999,6.5875,6.5312,6.4669,6.4786,6.5007,6.4922,6.4907,6.5077,6.6411,6.7347,6.8524,7.0352,7.3288,7.5757,7.7207,7.8828,8.1019,8.2168,8.3327,8.4576,8.6112,8.8069,9.0919,9.4505,9.7537,9.9543,10.0962,10.1376,10.1317,10.1777,10.1615,10.1341,10.1677,10.2355,10.236,10.2428,10.2461,10.2544,10.2544,10.2544,10.2544,10.2544,10.2544,10.2544,10.2544,10.2544,10.2544,10.2544,10.271,10.3038,10.3341,10.4259,10.5084,10.5665,10.6467,10.7541,10.7754,10.7555,10.7317,10.7523,10.7739,10.8028,10.8819,10.9958,11.1817,11.3789,11.5724,11.6486,11.7157,11.754,11.736,11.6941,11.6403,11.5565,11.5146,11.4787,11.4368,11.4308,11.4248,11.4248,11.4188,11.4173,11.4021,11.3121,11.2725,11.3033,11.3167,11.3196,11.4264,11.543,11.7301,11.9086,11.9978,12.0617,12.056,12.0697,12.0714,12.0791,12.1317,12.1715,12.2187,12.2644,12.2732,12.2393,12.1988,12.1717,12.1514,12.104,12.0499,12.0499,12.0431,12.0431,6.6373,6.5972,6.5839,6.5518,6.5037,6.4449,6.4209,6.4075,6.3869,6.3518,6.354,6.4077,6.4324,6.5025,6.6469,6.9255,7.1923,7.355,7.5579,7.79,7.9646,8.1056,8.2493,8.3867,8.5402,8.7247,9.021,9.384,9.6907,9.8206,9.8925,9.9685,10.0015,9.9916,9.99,10.0728,10.139,10.1677,10.2056,10.2394,10.2411,10.2544,10.2494,10.2544,10.2544,10.2544,10.2544,10.2544,10.2544,10.2544,10.2544,10.2544,10.2577,10.2692,10.3019,10.3888,10.4153,10.4647,10.5445,10.58,10.5709,10.5508,10.5066,10.4965,10.5283,10.6171,10.7754,11.0486,11.2843,11.5035,11.6256,11.7259,11.7694,11.7671,11.748,11.6822,11.6043,11.5565,11.4966,11.4428,11.4308,11.4248,11.4188,11.4069,11.3829,11.3291,11.2513,11.2358,11.2323,11.2046,11.1995,11.2915,11.4168,11.5617,11.7147,11.7701,11.8329,11.8376,11.8287,11.8406,11.8831,11.9144,11.9716,12.0384,12.083,12.1621,12.1717,12.1379,12.1108,12.0837,12.0567,12.0364,12.0296,12.0296,12.0296,6.6213,6.5865,6.5652,6.5358,6.4957,6.4449,6.4155,6.3968,6.3327,6.2873,6.2579,6.2625,6.2417,6.2359,6.3408,6.5497,6.8023,6.9411,7.1793,7.4059,7.6316,7.8153,7.9895,8.1745,8.3158,8.4459,8.5922,8.9007,9.2955,9.4575,9.5699,9.6235,9.7006,9.7639,9.7744,9.8738,9.9665,10.0478,10.1134,10.1701,10.1842,10.2094,10.2228,10.2361,10.2361,10.2544,10.2544,10.2544,10.2544,10.2544,10.2544,10.2544,10.2544,10.2544,10.2811,10.3209,10.3342,10.3953,10.4405,10.4386,10.4027,10.3717,10.3454,10.3063,10.3224,10.4383,10.6468,10.9705,11.2156,11.4097,11.5608,11.683,11.7546,11.7862,11.7719,11.7121,11.6403,11.5804,11.5146,11.4727,11.4368,11.4069,11.3889,11.3769,11.353,11.2872,11.2153,11.1794,11.1699,11.1201,11.1301,11.1995,11.2915,11.4168,11.4961,11.4989,11.5502,11.554,11.5503,11.552,11.6174,11.68,11.7629,11.8544,11.9691,12.0338,12.0522,12.0837,12.0634,12.0499,12.0364,12.0296,12.0296,12.0296,12.0296,6.6106,6.5598,6.5545,6.5224,6.4716,6.4342,6.4048,6.3781,6.3407,6.298,6.2472,6.2016,6.14,6.1146,6.1326,6.2556,6.4037,6.572,6.7428,6.9484,7.2183,7.4484,7.64,7.85,8.0443,8.1894,8.3047,8.5565,8.8705,9.0125,9.0575,9.1278,9.2467,9.3029,9.3991,9.583,9.7463,9.7934,9.8854,9.9386,9.9767,10.0752,10.129,10.1693,10.2094,10.2544,10.2544,10.2544,10.2544,10.2544,10.2544,10.2544,10.2544,10.2544,10.2544,10.2678,10.2678,10.2678,10.2925,10.2684,10.2229,10.1882,10.1194,10.0637,10.1381,10.2942,10.5054,10.7196,11.0176,11.2731,11.4719,11.628,11.7328,11.7981,11.8018,11.73,11.6582,11.6163,11.5505,11.4547,11.4069,11.365,11.335,11.3291,11.3111,11.2453,11.1854,11.1495,11.1136,11.08,11.06,11.1301,11.1699,11.2817,11.3092,11.3044,11.2961,11.3088,11.2893,11.2902,11.3746,11.4647,11.5878,11.6907,11.8092,11.9188,11.9733,11.9974,12.0144,12.0296,12.0296,12.0296,12.0296,12.0296,12.0296,6.4575,6.5518,6.5197,6.4904,6.4636,6.4155,6.3888,6.3701,6.3274,6.2846,6.2365,6.1644,6.0922,6.0462,6.0445,6.0903,6.1671,6.2932,6.4151,6.568,6.8447,7.0943,7.2884,7.5391,7.7649,7.9059,8.0441,8.1717,8.4243,8.6385,8.7603,8.8209,8.8965,8.9933,9.0572,9.2498,9.4282,9.5612,9.6996,9.7826,9.8416,9.9135,9.9892,10.0702,10.1559,10.2094,10.2361,10.2544,10.2544,10.2544,10.2544,10.2544,10.2544,10.2544,10.2544,10.2544,10.2544,10.2544,10.2444,10.1741,10.1239,10.0787,10.0134,9.9818,10.0335,10.1557,10.3567,10.5913,10.8158,11.0879,11.353,11.5391,11.683,11.7655,11.8198,11.736,11.6702,11.6403,11.5804,11.4727,11.3709,11.3291,11.2812,11.2393,11.2213,11.1854,11.1316,11.0897,11.0717,11.0478,11.0459,11.06,11.0902,11.1401,11.1373,11.1279,11.1058,11.0926,11.0571,11.0666,11.1424,11.2429,11.3702,11.4984,11.6117,11.7264,11.854,11.9464,11.9915,12.0144,12.0296,12.0296,12.0296,12.0296,12.0296,6.2309,6.4389,6.4629,6.461,6.4423,6.3968,6.3674,6.3487,6.3087,6.2686,6.2178,6.143,6.0575,5.996,5.972,5.9933,6.0004,6.0773,6.1635,6.3196,6.5077,6.7091,6.9164,7.175,7.3858,7.5795,7.7051,7.8722,8.0665,8.2731,8.474,8.5967,8.612,8.6994,8.8209,8.9482,9.1018,9.2847,9.4152,9.5117,9.5825,9.6935,9.8306,9.9621,10.0702,10.1693,10.2361,10.2544,10.2544,10.2544,10.2544,10.2544,10.2544,10.2544,10.2544,10.2544,10.2544,10.2544,10.2293,10.1791,10.1189,10.0737,10.0084,9.9689,9.9823,10.0591,10.1936,10.456,10.6711,10.9649,11.2616,11.4719,11.639,11.7546,11.8198,11.736,11.6642,11.6403,11.5744,11.4547,11.359,11.2872,11.2273,11.1555,11.1196,11.1076,11.0717,11.0358,11.0298,11.0358,11.0358,11.0399,11.05,11.0701,11.0501,11.0258,10.9693,10.9201,10.8714,10.877,10.9615,11.0379,11.139,11.2688,11.3961,11.4985,11.5966,11.7837,11.9685,11.9915,12.0144,12.0296,12.0296,12.0296,12.0296,5.8865,6.1584,6.3782,6.4342,6.3861,6.3808,6.3461,6.3033,6.2899,6.2499,6.1884,6.1163,6.0441,5.988,5.9533,5.9266,5.9068,5.9704,5.9928,6.0576,6.1674,6.3708,6.5639,6.7426,6.9392,7.2039,7.3624,7.5336,7.7474,7.9452,8.1175,8.246,8.366,8.4432,8.5467,8.7147,8.8259,8.9589,9.0563,9.1289,9.2471,9.4189,9.6421,9.8258,10.0163,10.1693,10.2361,10.2544,10.2544,10.2544,10.2544,10.2544,10.2544,10.2544,10.2544,10.2544,10.2544,10.2544,10.2344,10.1942,10.1641,10.1289,10.0636,9.9632,9.9488,9.9951,10.1303,10.3317,10.5614,10.87,11.1753,11.4323,11.6058,11.7437,11.797,11.742,11.6762,11.6403,11.5684,11.4428,11.353,11.2931,11.2393,11.1794,11.0956,11.0777,11.0657,11.0298,11.0298,11.0298,11.0298,11.0298,11.0298,11.0399,11.0279,10.972,10.9118,10.8555,10.8064,10.7845,10.8053,10.8781,10.9334,11.0199,11.1401,11.2398,11.363,11.5592,11.7467,11.9175,11.9915,12.0144,12.0296,12.0296,12.0296,5.5429,5.8135,6.0968,6.2817,6.3755,6.338,6.3113,6.2846,6.2499,6.1911,6.1216,6.0842,6.0281,5.9693,5.9453,5.9105,5.8704,5.8922,5.8828,5.9014,5.9945,6.1156,6.2563,6.4037,6.6075,6.8405,7.003,7.2272,7.482,7.6413,7.835,7.9923,8.1643,8.3041,8.4278,8.5314,8.6291,8.6635,8.7376,8.7908,8.9195,9.1066,9.3446,9.6006,9.8804,10.0568,10.1693,10.2228,10.2411,10.2544,10.2544,10.2544,10.2544,10.2544,10.2544,10.2544,10.2544,10.2544,10.2444,10.1992,10.144,10.0686,10.0184,9.9783,9.928,9.9438,10.0591,10.2566,10.4631,10.7503,11.094,11.353,11.5503,11.7109,11.7574,11.7253,11.6822,11.6236,11.5625,11.4428,11.3709,11.3111,11.2632,11.2213,11.1316,11.0538,11.0418,11.0298,11.0298,11.0298,11.0298,11.0298,11.0298,11.0238,11.0119,10.9341,10.8443,10.7943,10.7442,10.7291,10.7134,10.6902,10.7515,10.8196,10.8759,10.9752,11.1225,11.328,11.5218,11.7201,11.8897,11.9992,12.0144,12.0085,11.995,5.1641,5.4751,5.7843,6.0752,6.2996,6.2924,6.2846,6.2686,6.2258,6.1537,6.0735,6.0682,6.0227,5.9586,5.9266,5.8998,5.8571,5.8384,5.825,5.8465,5.8932,5.9599,6.0325,6.1419,6.2746,6.4868,6.6468,6.8523,7.0765,7.3378,7.5139,7.7206,7.9452,8.1019,8.2926,8.4124,8.4732,8.4563,8.4603,8.5398,8.6619,8.8659,9.1084,9.4007,9.6974,9.9349,10.0702,10.1693,10.2228,10.2411,10.2544,10.2544,10.2544,10.2544,10.2544,10.2544,10.2494,10.2494,10.2394,10.1942,10.1289,10.0636,10.0134,9.9732,9.9381,9.918,10.0208,10.2062,10.4012,10.6293,11.0003,11.2616,11.4719,11.6169,11.708,11.687,11.6368,11.5831,11.516,11.4428,11.3829,11.3231,11.2931,11.2513,11.1794,11.1076,11.0837,11.0657,11.0298,11.0298,11.0298,11.0298,11.0298,11.0178,10.9999,10.9101,10.8263,10.7665,10.7164,10.6723,10.6533,10.6148,10.5857,10.6564,10.706,10.7418,10.8545,11.0265,11.2891,11.5519,11.7014,11.8417,11.859,11.8465,11.898,4.7496,5.1381,5.4497,5.7984,6.1399,6.2466,6.2524,6.1883,6.1699,6.1115,6.0371,6.0291,5.9994,5.9274,5.8875,5.8731,5.8464,5.8197,5.809,5.8237,5.8237,5.8732,5.9089,5.9648,6.0197,6.13,6.294,6.4409,6.6233,6.9305,7.1735,7.3985,7.6572,7.9295,8.1057,8.1993,8.246,8.2458,8.2441,8.3452,8.4702,8.6702,8.9265,9.2034,9.5172,9.7661,9.9349,10.0752,10.129,10.1693,10.2228,10.2228,10.2361,10.2444,10.2394,10.2444,10.2394,10.2394,10.2394,10.1942,10.1239,10.0686,10.0184,9.9783,9.9331,9.9309,9.9823,10.1557,10.3317,10.5859,10.8819,11.1578,11.3303,11.4711,11.5581,11.5982,11.5319,11.5379,11.4769,11.4278,11.3785,11.3291,11.3111,11.2812,11.2213,11.1675,11.1375,11.1016,11.0597,11.0478,11.0538,11.0238,11.0178,10.9939,10.964,10.8862,10.8084,10.7485,10.6887,10.6386,10.5787,10.5344,10.521,10.5168,10.5279,10.5499,10.6221,10.7228,10.9671,11.2189,11.4912,11.6349,11.6527,11.6903,11.7401,4.3831,4.7276,5.0821,5.3837,5.6687,5.9507,5.998,5.9298,5.8678,5.8195,5.8103,5.8704,5.885,5.8271,5.8432,5.8491,5.8223,5.817,5.8063,5.8063,5.8063,5.8237,5.8423,5.8353,5.8543,5.932,6.0282,6.1447,6.3099,6.5873,6.8165,7.0441,7.4625,7.8507,8.0588,8.1838,8.2226,8.1875,8.1749,8.1926,8.2819,8.4639,8.6905,8.9509,9.2882,9.545,9.7434,9.8804,9.9892,10.0482,10.1021,10.1693,10.1727,10.1894,10.1992,10.1892,10.1741,10.144,10.1289,10.0887,10.0536,10.0285,10.0084,9.9682,9.928,9.918,9.9951,10.0922,10.2566,10.4631,10.6536,10.9294,11.1232,11.2274,11.3114,11.3813,11.3883,11.4334,11.4392,11.4021,11.3531,11.3785,11.3769,11.353,11.2991,11.2513,11.2213,11.1555,11.1076,11.0956,11.0897,11.0298,10.9999,10.97,10.9221,10.8443,10.7844,10.7306,10.6647,10.5989,10.5391,10.4852,10.4229,10.4128,10.3807,10.3667,10.4614,10.5581,10.6563,10.8625,11.1257,11.3664,11.4516,11.5111,11.5836,4.0204,4.3255,4.6629,4.898,5.1539,5.5755,5.7022,5.5907,5.5333,5.5204,5.5366,5.6377,5.6977,5.7049,5.7569,5.8155,5.809,5.8063,5.8063,5.8063,5.8063,5.8237,5.7956,5.7769,5.7766,5.8181,5.8731,5.9607,6.0301,6.2602,6.5411,6.898,7.3344,7.6889,7.9452,8.1175,8.2226,8.1914,8.1677,8.1553,8.2334,8.3356,8.4875,8.7384,9.0039,9.2504,9.4474,9.6144,9.7661,9.8395,9.9485,10.0568,10.0823,10.1244,10.1476,10.1408,10.1239,10.0887,10.0536,10.0385,10.0084,9.9732,9.9732,9.9582,9.928,9.918,9.9566,10.054,10.1683,10.2942,10.4631,10.7383,10.8662,10.9572,11.0507,11.1238,11.1721,11.2192,11.3088,11.2889,11.3513,11.3829,11.4143,11.4188,11.3889,11.347,11.3051,11.2273,11.1495,11.1316,11.1076,11.0418,10.976,10.94,10.8862,10.8144,10.7545,10.7126,10.6528,10.581,10.5331,10.4792,10.3895,10.3057,10.3133,10.3172,10.339,10.4126,10.5097,10.6119,10.7693,11.0055,11.2132,11.2998,11.3533,3.6987,3.9788,4.1903,4.3802,4.6166,5.1032,5.2837,5.1843,5.1798,5.2081,5.2562,5.3169,5.4363,5.5729,5.6485,5.7254,5.7768,5.7889,5.8063,5.8063,5.8063,5.8063,5.7983,5.7796,5.7674,5.7551,5.7766,5.82,5.8011,6.0301,6.3596,6.7675,7.1735,7.5386,7.8238,8.0591,8.1721,8.1915,8.164,8.1557,8.1887,8.2397,8.3559,8.538,8.7298,8.9322,9.1324,9.2882,9.4567,9.6006,9.7524,9.8756,9.9696,10.0477,10.0945,10.1176,10.0938,10.0486,10.0084,9.9883,9.9732,9.9381,9.928,9.918,9.918,9.918,9.9438,9.9951,10.0973,10.181,10.3192,10.4542,10.5794,10.6815,10.7742,10.8287,10.8863,10.9586,11.0731,11.1425,11.2558,11.3196,11.3829,11.3979,11.368,11.365,11.3051,11.2273,11.1615,11.1375,11.1016,11.0358,10.976,10.9041,10.8443,10.7785,10.7246,10.6767,10.6408,10.581,10.5331,10.4673,10.3775,10.3057,10.2757,10.2765,10.3079,10.3205,10.3667,10.4705,10.5642,10.6916,10.9163,10.9965,11.0549,3.4924,3.6618,3.8511,3.9877,4.1104,4.2728,4.4227,4.5787,4.5506,4.5802,4.6811,4.9348,5.102,5.3006,5.4165,5.5522,5.652,5.7192,5.7541,5.7715,5.7889,5.8063,5.801,5.793,5.7609,5.7487,5.7363,5.7291,5.7392,5.8963,6.2104,6.6397,7.005,7.3649,7.6876,7.9662,8.0905,8.1837,8.1562,8.1364,8.1278,8.1563,8.2366,8.3462,8.4709,8.6467,8.7734,8.9465,9.1039,9.2176,9.4986,9.6968,9.8087,9.9216,10.0148,9.9853,9.9682,9.9582,9.9431,9.9431,9.9381,9.923,9.918,9.918,9.918,9.918,9.9309,9.9695,10.008,10.0922,10.1402,10.2275,10.2974,10.3563,10.4418,10.5113,10.5729,10.6997,10.8181,10.9733,11.0825,11.2002,11.2806,11.3083,11.2725,11.3143,11.2991,11.2213,11.1735,11.1435,11.1016,11.0358,10.952,10.8802,10.8144,10.7485,10.6947,10.6408,10.6109,10.563,10.4912,10.4194,10.3535,10.3057,10.2698,10.2518,10.2612,10.2832,10.3112,10.3019,10.382,10.4884,10.5987,10.7154,10.793,3.3429,3.428,3.5436,3.6444,3.704,3.6401,3.7365,3.8951,3.987,4.1053,4.2393,4.4423,4.6877,4.9354,5.0906,5.2412,5.4193,5.507,5.5769,5.6119,5.7166,5.7367,5.7541,5.7836,5.7689,5.7368,5.7101,5.7031,5.694,5.8319,6.0968,6.4556,6.8361,7.2035,7.5517,7.8074,7.994,8.0868,8.1289,8.0976,8.0738,8.0689,8.1206,8.1677,8.2828,8.3528,8.4562,8.6279,8.7298,8.8846,9.204,9.4149,9.5933,9.8022,9.945,9.9302,9.928,9.928,9.923,9.923,9.918,9.918,9.918,9.918,9.918,9.918,9.918,9.9438,9.9516,9.985,9.998,10.0005,10.002,10.0097,10.1032,10.194,10.3049,10.4247,10.5806,10.7564,10.901,11.026,11.1104,11.1437,11.1772,11.2175,11.2247,11.1854,11.1495,11.1375,11.0956,11.0418,10.94,10.8443,10.7844,10.7306,10.6767,10.6288,10.5869,10.5331,10.4493,10.3895,10.3296,10.2877,10.2578,10.2518,10.2612,10.2518,10.2705,10.2705,10.2646,10.3514,10.4461,10.5183,10.5809,3.2124,3.2655,3.2822,3.3396,3.3709,3.2961,3.2423,3.2279,3.5076,3.723,3.8687,3.9627,4.2164,4.5126,4.6923,4.8703,5.0603,5.2012,5.3066,5.3618,5.5143,5.5867,5.6817,5.7461,5.729,5.7342,5.7048,5.6807,5.6629,5.7815,5.9799,6.2738,6.556,6.939,7.3915,7.6574,7.8633,8.0209,8.0628,8.0625,8.0469,8.0425,8.0459,8.0707,8.1038,8.1407,8.245,8.3339,8.4037,8.6213,8.8454,9.0799,9.4414,9.7134,9.8561,9.9172,9.918,9.918,9.918,9.918,9.918,9.918,9.918,9.918,9.918,9.918,9.918,9.913,9.9337,9.9085,9.9217,9.8838,9.8683,9.8599,9.9179,9.9674,10.0261,10.1672,10.3447,10.5127,10.6439,10.7776,10.9182,10.9528,11.0343,11.0898,11.1221,11.1052,11.1076,11.1016,11.0657,11.0178,10.9221,10.8263,10.7785,10.7246,10.6707,10.6169,10.569,10.5151,10.4493,10.3835,10.3176,10.2817,10.2518,10.2518,10.2518,10.2518,10.2518,10.2518,10.2552,10.2458,10.3051,10.37,10.4005,3.0565,3.0681,3.1243,3.1615,3.1627,3.1284,3.0943,3.0805,3.1558,3.3145,3.464,3.6266,3.8446,4.1191,4.2404,4.4393,4.7019,4.7972,4.9582,5.1014,5.2569,5.3994,5.5492,5.6234,5.6639,5.7037,5.6941,5.6674,5.6549,5.7311,5.8627,6.1243,6.4055,6.813,7.2085,7.4841,7.7334,7.9171,7.974,8.0122,8.0234,8.0,7.9955,7.991,7.9981,7.9935,8.0522,8.058,8.1641,8.3192,8.5855,8.98,9.4976,9.7116,9.8474,9.9101,9.918,9.918,9.918,9.918,9.918,9.918,9.918,9.918,9.918,9.918,9.913,9.9029,9.8879,9.8577,9.8303,9.7826,9.7449,9.7421,9.7366,9.7484,9.7722,9.9344,10.1156,10.2421,10.3718,10.5094,10.6479,10.7769,10.8703,10.9297,10.9713,11.003,11.0257,11.0238,10.9879,10.94,10.8982,10.8204,10.7725,10.7126,10.6528,10.5929,10.5391,10.4912,10.4373,10.3595,10.2817,10.2698,10.2518,10.2458,10.2398,10.2458,10.2458,10.2398,10.2159,10.2039,10.186,10.2329,10.2597,2.8487,2.8546,2.9694,3.0468,3.0714,3.0633,3.051,3.0388,3.0307,3.0745,3.1721,3.3269,3.5152,3.7327,3.8224,3.9503,4.2469,4.3417,4.4753,4.6694,4.9399,5.1327,5.2898,5.4639,5.5766,5.6166,5.653,5.6433,5.6495,5.6805,5.8124,6.0215,6.3471,6.6322,6.9872,7.327,7.5848,7.795,7.8631,7.9313,7.9771,7.9726,7.9687,7.9609,7.9375,7.914,7.9094,7.9156,7.9847,8.1844,8.4755,8.8706,9.3058,9.5801,9.7543,9.8534,9.8922,9.918,9.918,9.913,9.913,9.913,9.918,9.918,9.9079,9.9029,9.8728,9.8627,9.8627,9.8376,9.7673,9.7147,9.6795,9.6693,9.6666,9.6712,9.6953,9.773,9.9031,9.9847,10.0904,10.1654,10.3253,10.5345,10.6461,10.8201,10.8622,10.9452,10.9577,10.946,10.9101,10.8682,10.8263,10.7964,10.7545,10.6947,10.6348,10.569,10.5091,10.4313,10.3655,10.3057,10.2518,10.2518,10.2398,10.2279,10.2279,10.2159,10.2039,10.192,10.168,10.1501,10.1321,10.1142,10.1354,2.5817,2.6375,2.8353,2.9573,3.0416,3.0565,3.0497,3.0375,3.0226,3.0076,3.0126,3.1009,3.2184,3.3485,3.4437,3.5347,3.6636,3.8677,4.0186,4.2449,4.5135,4.777,5.0566,5.2802,5.4278,5.5562,5.6148,5.6211,5.63,5.6637,5.7593,5.9796,6.1872,6.3999,6.8114,7.1218,7.3401,7.5898,7.7342,7.8284,7.8924,7.9414,7.9492,7.9414,7.918,7.8984,7.8789,7.8742,7.8764,8.0872,8.3861,8.7749,9.124,9.4149,9.6184,9.7494,9.8384,9.8592,9.8721,9.87,9.8929,9.8979,9.9079,9.9029,9.8929,9.8728,9.8427,9.8125,9.8125,9.7874,9.7121,9.6619,9.6267,9.6066,9.6091,9.6165,9.6285,9.6402,9.7005,9.7719,9.8188,9.8807,10.0508,10.2587,10.455,10.6416,10.7811,10.8706,10.9159,10.8822,10.8443,10.8024,10.7545,10.7306,10.7186,10.6827,10.6229,10.557,10.4912,10.3835,10.2997,10.2698,10.2518,10.2458,10.2339,10.2039,10.174,10.1501,10.1441,10.1321,10.1201,10.0962,10.0663,10.0483,10.0304,2.2132,2.5278,2.7062,2.8521,2.9443,3.0093,3.0402,3.0361,3.0212,3.0063,2.9914,2.9976,3.0573,3.1527,3.168,3.2455,3.3894,3.5036,3.6576,3.8852,4.1019,4.4182,4.7677,5.0558,5.3435,5.513,5.6015,5.6157,5.6219,5.6246,5.6671,5.7904,6.0051,6.2285,6.5012,6.8118,7.1214,7.369,7.5828,7.7036,7.7894,7.8381,7.8945,7.8711,7.8281,7.8125,7.7969,7.7656,7.7939,7.967,8.2787,8.6421,8.9418,9.2226,9.4367,9.5809,9.6839,9.7419,9.7628,9.7892,9.802,9.8527,9.8527,9.8527,9.8427,9.8376,9.7924,9.7272,9.7171,9.7121,9.6569,9.6267,9.5966,9.5966,9.5916,9.604,9.6014,9.5684,9.5772,9.5925,9.6155,9.7141,9.8525,10.0753,10.308,10.4968,10.6792,10.7797,10.8719,10.8304,10.7686,10.7169,10.6652,10.6707,10.6588,10.6647,10.6169,10.551,10.4732,10.3655,10.2877,10.2638,10.2458,10.2279,10.1979,10.162,10.1321,10.0842,10.0782,10.0663,10.0663,10.0483,10.0184,9.9825,9.9645]}]]